<?xml version="1.0" encoding="UTF-8" standalone="no" ?>
<gpx xmlns="http://www.topografix.com/GPX/1/1" xmlns:xsi="http://www.w3.org/2001/XMLSchema-instance" xsi:schemaLocation="http://www.topografix.com/GPX/1/1 http://www.topografix.com/GPX/1/1/gpx.xsd" version="1.1" creator="VisuGPX - https://www.visugpx.com">
  <metadata>
    <name>Tracé actuel: 05 DEC 2014 08:51</name>
  </metadata>
  <trk>
    <name><![CDATA[Tracé actuel: 05 DEC 2014 08:51]]></name>
    <extensions>
      <line xmlns="http://www.topografix.com/GPX/gpx_style/0/2">
        <color>0000ff</color>
        <width>4</width>
      </line>
    </extensions>
    <trkseg>
      <trkpt lat="45.50985" lon="6.59356">
        <ele>1244.56</ele>
        <time>2014-12-05T07:51:04Z</time>
      </trkpt>
      <trkpt lat="45.50985" lon="6.59356">
        <ele>1244.56</ele>
        <time>2014-12-05T07:51:04Z</time>
      </trkpt>
      <trkpt lat="45.50986" lon="6.59357">
        <ele>1244.56</ele>
        <time>2014-12-05T07:51:05Z</time>
      </trkpt>
      <trkpt lat="45.50984" lon="6.59359">
        <ele>1244.56</ele>
        <time>2014-12-05T07:51:30Z</time>
      </trkpt>
      <trkpt lat="45.50976" lon="6.59358">
        <ele>1245.53</ele>
        <time>2014-12-05T07:52:12Z</time>
      </trkpt>
      <trkpt lat="45.50977" lon="6.59358">
        <ele>1246.01</ele>
        <time>2014-12-05T07:52:48Z</time>
      </trkpt>
      <trkpt lat="45.50975" lon="6.59362">
        <ele>1244.56</ele>
        <time>2014-12-05T07:53:01Z</time>
      </trkpt>
      <trkpt lat="45.50976" lon="6.59363">
        <ele>1246.97</ele>
        <time>2014-12-05T07:53:19Z</time>
      </trkpt>
      <trkpt lat="45.50976" lon="6.59362">
        <ele>1245.53</ele>
        <time>2014-12-05T07:53:22Z</time>
      </trkpt>
      <trkpt lat="45.50976" lon="6.59362">
        <ele>1245.04</ele>
        <time>2014-12-05T07:53:29Z</time>
      </trkpt>
      <trkpt lat="45.50976" lon="6.5936">
        <ele>1246.49</ele>
        <time>2014-12-05T07:53:33Z</time>
      </trkpt>
      <trkpt lat="45.50975" lon="6.5936">
        <ele>1245.04</ele>
        <time>2014-12-05T07:53:47Z</time>
      </trkpt>
      <trkpt lat="45.50974" lon="6.59362">
        <ele>1245.04</ele>
        <time>2014-12-05T07:54:17Z</time>
      </trkpt>
      <trkpt lat="45.50971" lon="6.59364">
        <ele>1245.53</ele>
        <time>2014-12-05T07:54:48Z</time>
      </trkpt>
      <trkpt lat="45.50971" lon="6.59362">
        <ele>1246.97</ele>
        <time>2014-12-05T07:54:54Z</time>
      </trkpt>
      <trkpt lat="45.50974" lon="6.59356">
        <ele>1246.97</ele>
        <time>2014-12-05T07:55:08Z</time>
      </trkpt>
      <trkpt lat="45.50974" lon="6.59358">
        <ele>1247.45</ele>
        <time>2014-12-05T07:55:24Z</time>
      </trkpt>
      <trkpt lat="45.50977" lon="6.59356">
        <ele>1247.45</ele>
        <time>2014-12-05T07:55:43Z</time>
      </trkpt>
      <trkpt lat="45.50976" lon="6.59357">
        <ele>1247.93</ele>
        <time>2014-12-05T07:56:03Z</time>
      </trkpt>
      <trkpt lat="45.50977" lon="6.59357">
        <ele>1247.93</ele>
        <time>2014-12-05T07:56:16Z</time>
      </trkpt>
      <trkpt lat="45.50977" lon="6.59356">
        <ele>1247.93</ele>
        <time>2014-12-05T07:56:32Z</time>
      </trkpt>
      <trkpt lat="45.50975" lon="6.5936">
        <ele>1247.93</ele>
        <time>2014-12-05T07:56:48Z</time>
      </trkpt>
      <trkpt lat="45.50967" lon="6.59368">
        <ele>1247.93</ele>
        <time>2014-12-05T07:56:57Z</time>
      </trkpt>
      <trkpt lat="45.5096" lon="6.59379">
        <ele>1249.85</ele>
        <time>2014-12-05T07:57:07Z</time>
      </trkpt>
      <trkpt lat="45.50949" lon="6.59385">
        <ele>1250.81</ele>
        <time>2014-12-05T07:57:20Z</time>
      </trkpt>
      <trkpt lat="45.50948" lon="6.59385">
        <ele>1250.81</ele>
        <time>2014-12-05T07:57:21Z</time>
      </trkpt>
      <trkpt lat="45.5094" lon="6.59393">
        <ele>1252.25</ele>
        <time>2014-12-05T07:57:36Z</time>
      </trkpt>
      <trkpt lat="45.50932" lon="6.594">
        <ele>1254.66</ele>
        <time>2014-12-05T07:57:50Z</time>
      </trkpt>
      <trkpt lat="45.50925" lon="6.59407">
        <ele>1257.54</ele>
        <time>2014-12-05T07:58:05Z</time>
      </trkpt>
      <trkpt lat="45.50918" lon="6.59412">
        <ele>1259.46</ele>
        <time>2014-12-05T07:58:20Z</time>
      </trkpt>
      <trkpt lat="45.5091" lon="6.59418">
        <ele>1261.87</ele>
        <time>2014-12-05T07:58:35Z</time>
      </trkpt>
      <trkpt lat="45.50904" lon="6.59424">
        <ele>1264.27</ele>
        <time>2014-12-05T07:58:49Z</time>
      </trkpt>
      <trkpt lat="45.50899" lon="6.59432">
        <ele>1266.67</ele>
        <time>2014-12-05T07:59:03Z</time>
      </trkpt>
      <trkpt lat="45.50893" lon="6.5944">
        <ele>1269.56</ele>
        <time>2014-12-05T07:59:16Z</time>
      </trkpt>
      <trkpt lat="45.50888" lon="6.59447">
        <ele>1271.48</ele>
        <time>2014-12-05T07:59:30Z</time>
      </trkpt>
      <trkpt lat="45.50884" lon="6.59454">
        <ele>1274.85</ele>
        <time>2014-12-05T07:59:43Z</time>
      </trkpt>
      <trkpt lat="45.50878" lon="6.5946">
        <ele>1277.25</ele>
        <time>2014-12-05T07:59:59Z</time>
      </trkpt>
      <trkpt lat="45.50873" lon="6.59467">
        <ele>1279.65</ele>
        <time>2014-12-05T08:00:12Z</time>
      </trkpt>
      <trkpt lat="45.50869" lon="6.59475">
        <ele>1282.06</ele>
        <time>2014-12-05T08:00:27Z</time>
      </trkpt>
      <trkpt lat="45.50863" lon="6.59483">
        <ele>1284.94</ele>
        <time>2014-12-05T08:00:43Z</time>
      </trkpt>
      <trkpt lat="45.50858" lon="6.5949">
        <ele>1286.38</ele>
        <time>2014-12-05T08:00:56Z</time>
      </trkpt>
      <trkpt lat="45.50855" lon="6.59496">
        <ele>1288.78</ele>
        <time>2014-12-05T08:01:09Z</time>
      </trkpt>
      <trkpt lat="45.5085" lon="6.59504">
        <ele>1291.19</ele>
        <time>2014-12-05T08:01:24Z</time>
      </trkpt>
      <trkpt lat="45.50846" lon="6.59508">
        <ele>1293.59</ele>
        <time>2014-12-05T08:01:37Z</time>
      </trkpt>
      <trkpt lat="45.50842" lon="6.59516">
        <ele>1296.48</ele>
        <time>2014-12-05T08:01:53Z</time>
      </trkpt>
      <trkpt lat="45.50839" lon="6.59523">
        <ele>1298.88</ele>
        <time>2014-12-05T08:02:07Z</time>
      </trkpt>
      <trkpt lat="45.50835" lon="6.59528">
        <ele>1301.28</ele>
        <time>2014-12-05T08:02:20Z</time>
      </trkpt>
      <trkpt lat="45.50832" lon="6.59534">
        <ele>1303.2</ele>
        <time>2014-12-05T08:02:34Z</time>
      </trkpt>
      <trkpt lat="45.50829" lon="6.59539">
        <ele>1306.09</ele>
        <time>2014-12-05T08:02:49Z</time>
      </trkpt>
      <trkpt lat="45.50826" lon="6.59545">
        <ele>1308.49</ele>
        <time>2014-12-05T08:03:02Z</time>
      </trkpt>
      <trkpt lat="45.50823" lon="6.59549">
        <ele>1311.38</ele>
        <time>2014-12-05T08:03:15Z</time>
      </trkpt>
      <trkpt lat="45.50824" lon="6.59557">
        <ele>1311.86</ele>
        <time>2014-12-05T08:03:25Z</time>
      </trkpt>
      <trkpt lat="45.50824" lon="6.59568">
        <ele>1313.78</ele>
        <time>2014-12-05T08:03:39Z</time>
      </trkpt>
      <trkpt lat="45.50822" lon="6.59571">
        <ele>1316.18</ele>
        <time>2014-12-05T08:03:51Z</time>
      </trkpt>
      <trkpt lat="45.5082" lon="6.59575">
        <ele>1318.1</ele>
        <time>2014-12-05T08:04:01Z</time>
      </trkpt>
      <trkpt lat="45.50817" lon="6.59578">
        <ele>1320.03</ele>
        <time>2014-12-05T08:04:13Z</time>
      </trkpt>
      <trkpt lat="45.50814" lon="6.59581">
        <ele>1321.95</ele>
        <time>2014-12-05T08:04:24Z</time>
      </trkpt>
      <trkpt lat="45.50812" lon="6.59584">
        <ele>1323.39</ele>
        <time>2014-12-05T08:04:37Z</time>
      </trkpt>
      <trkpt lat="45.5081" lon="6.59587">
        <ele>1324.83</ele>
        <time>2014-12-05T08:04:49Z</time>
      </trkpt>
      <trkpt lat="45.5081" lon="6.59587">
        <ele>1325.31</ele>
        <time>2014-12-05T08:05:11Z</time>
      </trkpt>
      <trkpt lat="45.50808" lon="6.59589">
        <ele>1326.28</ele>
        <time>2014-12-05T08:05:28Z</time>
      </trkpt>
      <trkpt lat="45.50808" lon="6.5959">
        <ele>1326.76</ele>
        <time>2014-12-05T08:05:45Z</time>
      </trkpt>
      <trkpt lat="45.50805" lon="6.59595">
        <ele>1329.64</ele>
        <time>2014-12-05T08:05:59Z</time>
      </trkpt>
      <trkpt lat="45.50802" lon="6.59598">
        <ele>1332.04</ele>
        <time>2014-12-05T08:06:12Z</time>
      </trkpt>
      <trkpt lat="45.50798" lon="6.59602">
        <ele>1333.97</ele>
        <time>2014-12-05T08:06:24Z</time>
      </trkpt>
      <trkpt lat="45.50795" lon="6.59605">
        <ele>1336.37</ele>
        <time>2014-12-05T08:06:37Z</time>
      </trkpt>
      <trkpt lat="45.5079" lon="6.5961">
        <ele>1338.29</ele>
        <time>2014-12-05T08:06:50Z</time>
      </trkpt>
      <trkpt lat="45.50786" lon="6.59613">
        <ele>1340.7</ele>
        <time>2014-12-05T08:07:03Z</time>
      </trkpt>
      <trkpt lat="45.50784" lon="6.59619">
        <ele>1343.1</ele>
        <time>2014-12-05T08:07:16Z</time>
      </trkpt>
      <trkpt lat="45.5078" lon="6.59625">
        <ele>1344.54</ele>
        <time>2014-12-05T08:07:29Z</time>
      </trkpt>
      <trkpt lat="45.50776" lon="6.59629">
        <ele>1346.94</ele>
        <time>2014-12-05T08:07:42Z</time>
      </trkpt>
      <trkpt lat="45.50771" lon="6.59635">
        <ele>1348.87</ele>
        <time>2014-12-05T08:07:55Z</time>
      </trkpt>
      <trkpt lat="45.50767" lon="6.59641">
        <ele>1351.27</ele>
        <time>2014-12-05T08:08:09Z</time>
      </trkpt>
      <trkpt lat="45.50764" lon="6.59646">
        <ele>1352.71</ele>
        <time>2014-12-05T08:08:20Z</time>
      </trkpt>
      <trkpt lat="45.50757" lon="6.59649">
        <ele>1355.12</ele>
        <time>2014-12-05T08:08:37Z</time>
      </trkpt>
      <trkpt lat="45.50752" lon="6.59654">
        <ele>1358</ele>
        <time>2014-12-05T08:08:51Z</time>
      </trkpt>
      <trkpt lat="45.50746" lon="6.59661">
        <ele>1359.92</ele>
        <time>2014-12-05T08:09:04Z</time>
      </trkpt>
      <trkpt lat="45.50739" lon="6.59665">
        <ele>1362.33</ele>
        <time>2014-12-05T08:09:18Z</time>
      </trkpt>
      <trkpt lat="45.50735" lon="6.59668">
        <ele>1364.73</ele>
        <time>2014-12-05T08:09:33Z</time>
      </trkpt>
      <trkpt lat="45.50733" lon="6.59676">
        <ele>1365.69</ele>
        <time>2014-12-05T08:09:45Z</time>
      </trkpt>
      <trkpt lat="45.50736" lon="6.5969">
        <ele>1366.65</ele>
        <time>2014-12-05T08:09:56Z</time>
      </trkpt>
      <trkpt lat="45.50736" lon="6.59693">
        <ele>1366.65</ele>
        <time>2014-12-05T08:09:58Z</time>
      </trkpt>
      <trkpt lat="45.50739" lon="6.59708">
        <ele>1367.13</ele>
        <time>2014-12-05T08:10:09Z</time>
      </trkpt>
      <trkpt lat="45.50739" lon="6.59728">
        <ele>1368.09</ele>
        <time>2014-12-05T08:10:24Z</time>
      </trkpt>
      <trkpt lat="45.50742" lon="6.59748">
        <ele>1369.54</ele>
        <time>2014-12-05T08:10:38Z</time>
      </trkpt>
      <trkpt lat="45.50744" lon="6.59768">
        <ele>1370.98</ele>
        <time>2014-12-05T08:10:52Z</time>
      </trkpt>
      <trkpt lat="45.50745" lon="6.59775">
        <ele>1371.46</ele>
        <time>2014-12-05T08:10:57Z</time>
      </trkpt>
      <trkpt lat="45.50744" lon="6.59779">
        <ele>1371.94</ele>
        <time>2014-12-05T08:11:00Z</time>
      </trkpt>
      <trkpt lat="45.50741" lon="6.59785">
        <ele>1372.9</ele>
        <time>2014-12-05T08:11:04Z</time>
      </trkpt>
      <trkpt lat="45.50739" lon="6.59786">
        <ele>1373.38</ele>
        <time>2014-12-05T08:11:07Z</time>
      </trkpt>
      <trkpt lat="45.50732" lon="6.59783">
        <ele>1373.86</ele>
        <time>2014-12-05T08:11:14Z</time>
      </trkpt>
      <trkpt lat="45.50725" lon="6.59761">
        <ele>1375.78</ele>
        <time>2014-12-05T08:11:30Z</time>
      </trkpt>
      <trkpt lat="45.50718" lon="6.59742">
        <ele>1377.71</ele>
        <time>2014-12-05T08:11:44Z</time>
      </trkpt>
      <trkpt lat="45.50713" lon="6.59731">
        <ele>1379.15</ele>
        <time>2014-12-05T08:11:54Z</time>
      </trkpt>
      <trkpt lat="45.50712" lon="6.59728">
        <ele>1379.15</ele>
        <time>2014-12-05T08:11:57Z</time>
      </trkpt>
      <trkpt lat="45.50704" lon="6.59715">
        <ele>1381.07</ele>
        <time>2014-12-05T08:12:10Z</time>
      </trkpt>
      <trkpt lat="45.50703" lon="6.59713">
        <ele>1381.07</ele>
        <time>2014-12-05T08:12:12Z</time>
      </trkpt>
      <trkpt lat="45.50693" lon="6.59696">
        <ele>1382.99</ele>
        <time>2014-12-05T08:12:27Z</time>
      </trkpt>
      <trkpt lat="45.50686" lon="6.59682">
        <ele>1384.44</ele>
        <time>2014-12-05T08:12:39Z</time>
      </trkpt>
      <trkpt lat="45.50684" lon="6.59679">
        <ele>1384.92</ele>
        <time>2014-12-05T08:12:42Z</time>
      </trkpt>
      <trkpt lat="45.50682" lon="6.59672">
        <ele>1385.88</ele>
        <time>2014-12-05T08:12:47Z</time>
      </trkpt>
      <trkpt lat="45.50674" lon="6.59657">
        <ele>1387.32</ele>
        <time>2014-12-05T08:13:01Z</time>
      </trkpt>
      <trkpt lat="45.50669" lon="6.59656">
        <ele>1388.28</ele>
        <time>2014-12-05T08:13:07Z</time>
      </trkpt>
      <trkpt lat="45.50668" lon="6.59659">
        <ele>1388.76</ele>
        <time>2014-12-05T08:13:10Z</time>
      </trkpt>
      <trkpt lat="45.50669" lon="6.59668">
        <ele>1389.24</ele>
        <time>2014-12-05T08:13:16Z</time>
      </trkpt>
      <trkpt lat="45.50671" lon="6.59678">
        <ele>1390.2</ele>
        <time>2014-12-05T08:13:23Z</time>
      </trkpt>
      <trkpt lat="45.50673" lon="6.59683">
        <ele>1390.68</ele>
        <time>2014-12-05T08:13:27Z</time>
      </trkpt>
      <trkpt lat="45.50675" lon="6.59692">
        <ele>1391.65</ele>
        <time>2014-12-05T08:13:33Z</time>
      </trkpt>
      <trkpt lat="45.50679" lon="6.59718">
        <ele>1392.61</ele>
        <time>2014-12-05T08:13:49Z</time>
      </trkpt>
      <trkpt lat="45.5068" lon="6.59741">
        <ele>1394.05</ele>
        <time>2014-12-05T08:14:03Z</time>
      </trkpt>
      <trkpt lat="45.50681" lon="6.59751">
        <ele>1394.05</ele>
        <time>2014-12-05T08:14:09Z</time>
      </trkpt>
      <trkpt lat="45.50677" lon="6.5976">
        <ele>1396.45</ele>
        <time>2014-12-05T08:14:22Z</time>
      </trkpt>
      <trkpt lat="45.50674" lon="6.59766">
        <ele>1399.34</ele>
        <time>2014-12-05T08:14:37Z</time>
      </trkpt>
      <trkpt lat="45.50671" lon="6.59772">
        <ele>1400.78</ele>
        <time>2014-12-05T08:14:49Z</time>
      </trkpt>
      <trkpt lat="45.50668" lon="6.59779">
        <ele>1403.18</ele>
        <time>2014-12-05T08:15:02Z</time>
      </trkpt>
      <trkpt lat="45.50665" lon="6.59784">
        <ele>1405.58</ele>
        <time>2014-12-05T08:15:16Z</time>
      </trkpt>
      <trkpt lat="45.50661" lon="6.59787">
        <ele>1407.51</ele>
        <time>2014-12-05T08:15:29Z</time>
      </trkpt>
      <trkpt lat="45.50657" lon="6.59788">
        <ele>1409.43</ele>
        <time>2014-12-05T08:15:41Z</time>
      </trkpt>
      <trkpt lat="45.50655" lon="6.59793">
        <ele>1411.35</ele>
        <time>2014-12-05T08:15:55Z</time>
      </trkpt>
      <trkpt lat="45.50651" lon="6.59797">
        <ele>1413.28</ele>
        <time>2014-12-05T08:16:07Z</time>
      </trkpt>
      <trkpt lat="45.50646" lon="6.598">
        <ele>1415.68</ele>
        <time>2014-12-05T08:16:21Z</time>
      </trkpt>
      <trkpt lat="45.50641" lon="6.59801">
        <ele>1418.56</ele>
        <time>2014-12-05T08:16:38Z</time>
      </trkpt>
      <trkpt lat="45.50636" lon="6.59803">
        <ele>1420.49</ele>
        <time>2014-12-05T08:16:53Z</time>
      </trkpt>
      <trkpt lat="45.50633" lon="6.59809">
        <ele>1423.37</ele>
        <time>2014-12-05T08:17:08Z</time>
      </trkpt>
      <trkpt lat="45.5063" lon="6.59814">
        <ele>1425.77</ele>
        <time>2014-12-05T08:17:21Z</time>
      </trkpt>
      <trkpt lat="45.50628" lon="6.59819">
        <ele>1427.7</ele>
        <time>2014-12-05T08:17:34Z</time>
      </trkpt>
      <trkpt lat="45.50626" lon="6.59822">
        <ele>1429.14</ele>
        <time>2014-12-05T08:17:46Z</time>
      </trkpt>
      <trkpt lat="45.50622" lon="6.59822">
        <ele>1431.06</ele>
        <time>2014-12-05T08:17:59Z</time>
      </trkpt>
      <trkpt lat="45.50616" lon="6.59827">
        <ele>1433.46</ele>
        <time>2014-12-05T08:18:17Z</time>
      </trkpt>
      <trkpt lat="45.5061" lon="6.59838">
        <ele>1435.87</ele>
        <time>2014-12-05T08:18:35Z</time>
      </trkpt>
      <trkpt lat="45.50607" lon="6.59844">
        <ele>1438.27</ele>
        <time>2014-12-05T08:18:48Z</time>
      </trkpt>
      <trkpt lat="45.50604" lon="6.59854">
        <ele>1440.67</ele>
        <time>2014-12-05T08:19:05Z</time>
      </trkpt>
      <trkpt lat="45.50601" lon="6.59859">
        <ele>1443.08</ele>
        <time>2014-12-05T08:19:19Z</time>
      </trkpt>
      <trkpt lat="45.50598" lon="6.59869">
        <ele>1445.48</ele>
        <time>2014-12-05T08:19:36Z</time>
      </trkpt>
      <trkpt lat="45.50596" lon="6.59877">
        <ele>1447.88</ele>
        <time>2014-12-05T08:19:50Z</time>
      </trkpt>
      <trkpt lat="45.50594" lon="6.59887">
        <ele>1449.81</ele>
        <time>2014-12-05T08:20:05Z</time>
      </trkpt>
      <trkpt lat="45.50591" lon="6.59896">
        <ele>1452.69</ele>
        <time>2014-12-05T08:20:22Z</time>
      </trkpt>
      <trkpt lat="45.50586" lon="6.59905">
        <ele>1455.57</ele>
        <time>2014-12-05T08:20:37Z</time>
      </trkpt>
      <trkpt lat="45.50582" lon="6.59909">
        <ele>1457.5</ele>
        <time>2014-12-05T08:20:52Z</time>
      </trkpt>
      <trkpt lat="45.50573" lon="6.59914">
        <ele>1459.9</ele>
        <time>2014-12-05T08:21:09Z</time>
      </trkpt>
      <trkpt lat="45.50568" lon="6.59929">
        <ele>1460.86</ele>
        <time>2014-12-05T08:21:23Z</time>
      </trkpt>
      <trkpt lat="45.50567" lon="6.59946">
        <ele>1461.82</ele>
        <time>2014-12-05T08:21:36Z</time>
      </trkpt>
      <trkpt lat="45.50566" lon="6.59962">
        <ele>1463.26</ele>
        <time>2014-12-05T08:21:49Z</time>
      </trkpt>
      <trkpt lat="45.50567" lon="6.59973">
        <ele>1464.71</ele>
        <time>2014-12-05T08:22:03Z</time>
      </trkpt>
      <trkpt lat="45.50567" lon="6.59978">
        <ele>1465.19</ele>
        <time>2014-12-05T08:22:16Z</time>
      </trkpt>
      <trkpt lat="45.50566" lon="6.59985">
        <ele>1466.15</ele>
        <time>2014-12-05T08:22:30Z</time>
      </trkpt>
      <trkpt lat="45.50567" lon="6.59998">
        <ele>1467.59</ele>
        <time>2014-12-05T08:22:44Z</time>
      </trkpt>
      <trkpt lat="45.50566" lon="6.60012">
        <ele>1469.51</ele>
        <time>2014-12-05T08:22:58Z</time>
      </trkpt>
      <trkpt lat="45.50564" lon="6.60028">
        <ele>1470.95</ele>
        <time>2014-12-05T08:23:14Z</time>
      </trkpt>
      <trkpt lat="45.50562" lon="6.60039">
        <ele>1472.88</ele>
        <time>2014-12-05T08:23:28Z</time>
      </trkpt>
      <trkpt lat="45.5056" lon="6.6005">
        <ele>1474.32</ele>
        <time>2014-12-05T08:23:40Z</time>
      </trkpt>
      <trkpt lat="45.50559" lon="6.60062">
        <ele>1476.24</ele>
        <time>2014-12-05T08:23:54Z</time>
      </trkpt>
      <trkpt lat="45.50558" lon="6.60072">
        <ele>1478.16</ele>
        <time>2014-12-05T08:24:07Z</time>
      </trkpt>
      <trkpt lat="45.50557" lon="6.60083">
        <ele>1480.09</ele>
        <time>2014-12-05T08:24:22Z</time>
      </trkpt>
      <trkpt lat="45.50558" lon="6.60093">
        <ele>1482.01</ele>
        <time>2014-12-05T08:24:36Z</time>
      </trkpt>
      <trkpt lat="45.50558" lon="6.60102">
        <ele>1483.93</ele>
        <time>2014-12-05T08:24:49Z</time>
      </trkpt>
      <trkpt lat="45.50558" lon="6.60112">
        <ele>1486.34</ele>
        <time>2014-12-05T08:25:05Z</time>
      </trkpt>
      <trkpt lat="45.50557" lon="6.60121">
        <ele>1488.26</ele>
        <time>2014-12-05T08:25:19Z</time>
      </trkpt>
      <trkpt lat="45.50556" lon="6.60129">
        <ele>1490.18</ele>
        <time>2014-12-05T08:25:32Z</time>
      </trkpt>
      <trkpt lat="45.50555" lon="6.60138">
        <ele>1492.58</ele>
        <time>2014-12-05T08:25:45Z</time>
      </trkpt>
      <trkpt lat="45.50555" lon="6.60147">
        <ele>1494.51</ele>
        <time>2014-12-05T08:26:00Z</time>
      </trkpt>
      <trkpt lat="45.50554" lon="6.60159">
        <ele>1496.91</ele>
        <time>2014-12-05T08:26:18Z</time>
      </trkpt>
      <trkpt lat="45.5055" lon="6.60168">
        <ele>1498.83</ele>
        <time>2014-12-05T08:26:33Z</time>
      </trkpt>
      <trkpt lat="45.50549" lon="6.6018">
        <ele>1501.72</ele>
        <time>2014-12-05T08:26:52Z</time>
      </trkpt>
      <trkpt lat="45.50546" lon="6.60189">
        <ele>1504.12</ele>
        <time>2014-12-05T08:27:07Z</time>
      </trkpt>
      <trkpt lat="45.50548" lon="6.60197">
        <ele>1506.04</ele>
        <time>2014-12-05T08:27:20Z</time>
      </trkpt>
      <trkpt lat="45.50548" lon="6.60203">
        <ele>1507</ele>
        <time>2014-12-05T08:27:33Z</time>
      </trkpt>
      <trkpt lat="45.50552" lon="6.60211">
        <ele>1508.93</ele>
        <time>2014-12-05T08:27:48Z</time>
      </trkpt>
      <trkpt lat="45.50554" lon="6.60221">
        <ele>1511.33</ele>
        <time>2014-12-05T08:28:02Z</time>
      </trkpt>
      <trkpt lat="45.50552" lon="6.60231">
        <ele>1513.73</ele>
        <time>2014-12-05T08:28:21Z</time>
      </trkpt>
      <trkpt lat="45.50552" lon="6.60237">
        <ele>1515.66</ele>
        <time>2014-12-05T08:28:34Z</time>
      </trkpt>
      <trkpt lat="45.50549" lon="6.60244">
        <ele>1518.06</ele>
        <time>2014-12-05T08:28:51Z</time>
      </trkpt>
      <trkpt lat="45.50545" lon="6.60247">
        <ele>1519.98</ele>
        <time>2014-12-05T08:29:06Z</time>
      </trkpt>
      <trkpt lat="45.50542" lon="6.60252">
        <ele>1521.9</ele>
        <time>2014-12-05T08:29:20Z</time>
      </trkpt>
      <trkpt lat="45.50533" lon="6.60256">
        <ele>1524.31</ele>
        <time>2014-12-05T08:29:35Z</time>
      </trkpt>
      <trkpt lat="45.50536" lon="6.60264">
        <ele>1526.71</ele>
        <time>2014-12-05T08:29:49Z</time>
      </trkpt>
      <trkpt lat="45.50539" lon="6.60273">
        <ele>1529.11</ele>
        <time>2014-12-05T08:30:06Z</time>
      </trkpt>
      <trkpt lat="45.50545" lon="6.60282">
        <ele>1531.04</ele>
        <time>2014-12-05T08:30:23Z</time>
      </trkpt>
      <trkpt lat="45.50551" lon="6.60289">
        <ele>1532.96</ele>
        <time>2014-12-05T08:30:37Z</time>
      </trkpt>
      <trkpt lat="45.50553" lon="6.60297">
        <ele>1534.88</ele>
        <time>2014-12-05T08:30:50Z</time>
      </trkpt>
      <trkpt lat="45.50552" lon="6.60308">
        <ele>1537.77</ele>
        <time>2014-12-05T08:31:07Z</time>
      </trkpt>
      <trkpt lat="45.50558" lon="6.60315">
        <ele>1539.69</ele>
        <time>2014-12-05T08:31:22Z</time>
      </trkpt>
      <trkpt lat="45.50565" lon="6.6032">
        <ele>1541.61</ele>
        <time>2014-12-05T08:31:36Z</time>
      </trkpt>
      <trkpt lat="45.50568" lon="6.60321">
        <ele>1542.57</ele>
        <time>2014-12-05T08:31:41Z</time>
      </trkpt>
      <trkpt lat="45.50572" lon="6.60328">
        <ele>1544.5</ele>
        <time>2014-12-05T08:31:51Z</time>
      </trkpt>
      <trkpt lat="45.50573" lon="6.60331">
        <ele>1546.9</ele>
        <time>2014-12-05T08:32:06Z</time>
      </trkpt>
      <trkpt lat="45.50575" lon="6.60335">
        <ele>1548.82</ele>
        <time>2014-12-05T08:32:16Z</time>
      </trkpt>
      <trkpt lat="45.50581" lon="6.60343">
        <ele>1551.71</ele>
        <time>2014-12-05T08:32:34Z</time>
      </trkpt>
      <trkpt lat="45.50586" lon="6.60346">
        <ele>1553.15</ele>
        <time>2014-12-05T08:32:47Z</time>
      </trkpt>
      <trkpt lat="45.50591" lon="6.6035">
        <ele>1555.55</ele>
        <time>2014-12-05T08:33:02Z</time>
      </trkpt>
      <trkpt lat="45.50591" lon="6.60357">
        <ele>1556.99</ele>
        <time>2014-12-05T08:33:17Z</time>
      </trkpt>
      <trkpt lat="45.50586" lon="6.60359">
        <ele>1558.92</ele>
        <time>2014-12-05T08:33:33Z</time>
      </trkpt>
      <trkpt lat="45.50586" lon="6.60357">
        <ele>1561.32</ele>
        <time>2014-12-05T08:33:49Z</time>
      </trkpt>
      <trkpt lat="45.50582" lon="6.60364">
        <ele>1563.24</ele>
        <time>2014-12-05T08:34:03Z</time>
      </trkpt>
      <trkpt lat="45.50579" lon="6.60368">
        <ele>1565.16</ele>
        <time>2014-12-05T08:34:16Z</time>
      </trkpt>
      <trkpt lat="45.50578" lon="6.60365">
        <ele>1565.16</ele>
        <time>2014-12-05T08:34:36Z</time>
      </trkpt>
      <trkpt lat="45.50584" lon="6.60372">
        <ele>1565.16</ele>
        <time>2014-12-05T08:35:05Z</time>
      </trkpt>
      <trkpt lat="45.50584" lon="6.6037">
        <ele>1565.16</ele>
        <time>2014-12-05T08:35:26Z</time>
      </trkpt>
      <trkpt lat="45.50581" lon="6.60372">
        <ele>1565.64</ele>
        <time>2014-12-05T08:35:56Z</time>
      </trkpt>
      <trkpt lat="45.50581" lon="6.60378">
        <ele>1567.57</ele>
        <time>2014-12-05T08:36:08Z</time>
      </trkpt>
      <trkpt lat="45.50586" lon="6.6038">
        <ele>1569.97</ele>
        <time>2014-12-05T08:36:24Z</time>
      </trkpt>
      <trkpt lat="45.50589" lon="6.60383">
        <ele>1570.93</ele>
        <time>2014-12-05T08:36:38Z</time>
      </trkpt>
      <trkpt lat="45.50595" lon="6.60389">
        <ele>1573.82</ele>
        <time>2014-12-05T08:36:55Z</time>
      </trkpt>
      <trkpt lat="45.506" lon="6.60396">
        <ele>1575.74</ele>
        <time>2014-12-05T08:37:08Z</time>
      </trkpt>
      <trkpt lat="45.50604" lon="6.60402">
        <ele>1578.14</ele>
        <time>2014-12-05T08:37:23Z</time>
      </trkpt>
      <trkpt lat="45.5061" lon="6.60408">
        <ele>1579.58</ele>
        <time>2014-12-05T08:37:35Z</time>
      </trkpt>
      <trkpt lat="45.50615" lon="6.60413">
        <ele>1581.99</ele>
        <time>2014-12-05T08:37:50Z</time>
      </trkpt>
      <trkpt lat="45.50619" lon="6.60417">
        <ele>1583.91</ele>
        <time>2014-12-05T08:38:04Z</time>
      </trkpt>
      <trkpt lat="45.50623" lon="6.60423">
        <ele>1586.31</ele>
        <time>2014-12-05T08:38:20Z</time>
      </trkpt>
      <trkpt lat="45.50629" lon="6.60429">
        <ele>1588.24</ele>
        <time>2014-12-05T08:38:33Z</time>
      </trkpt>
      <trkpt lat="45.50636" lon="6.60433">
        <ele>1590.64</ele>
        <time>2014-12-05T08:38:46Z</time>
      </trkpt>
      <trkpt lat="45.5064" lon="6.6044">
        <ele>1592.56</ele>
        <time>2014-12-05T08:39:01Z</time>
      </trkpt>
      <trkpt lat="45.50644" lon="6.60442">
        <ele>1594.48</ele>
        <time>2014-12-05T08:39:14Z</time>
      </trkpt>
      <trkpt lat="45.50649" lon="6.60447">
        <ele>1596.41</ele>
        <time>2014-12-05T08:39:28Z</time>
      </trkpt>
      <trkpt lat="45.50645" lon="6.60455">
        <ele>1598.81</ele>
        <time>2014-12-05T08:39:41Z</time>
      </trkpt>
      <trkpt lat="45.50642" lon="6.60457">
        <ele>1599.77</ele>
        <time>2014-12-05T08:39:54Z</time>
      </trkpt>
      <trkpt lat="45.50638" lon="6.60457">
        <ele>1602.17</ele>
        <time>2014-12-05T08:40:07Z</time>
      </trkpt>
      <trkpt lat="45.50635" lon="6.60457">
        <ele>1604.1</ele>
        <time>2014-12-05T08:40:19Z</time>
      </trkpt>
      <trkpt lat="45.50628" lon="6.6046">
        <ele>1606.02</ele>
        <time>2014-12-05T08:40:35Z</time>
      </trkpt>
      <trkpt lat="45.50621" lon="6.60462">
        <ele>1607.94</ele>
        <time>2014-12-05T08:40:47Z</time>
      </trkpt>
      <trkpt lat="45.50608" lon="6.60462">
        <ele>1609.86</ele>
        <time>2014-12-05T08:41:02Z</time>
      </trkpt>
      <trkpt lat="45.506" lon="6.60466">
        <ele>1611.79</ele>
        <time>2014-12-05T08:41:15Z</time>
      </trkpt>
      <trkpt lat="45.50592" lon="6.60466">
        <ele>1613.23</ele>
        <time>2014-12-05T08:41:28Z</time>
      </trkpt>
      <trkpt lat="45.50581" lon="6.60468">
        <ele>1614.67</ele>
        <time>2014-12-05T08:41:41Z</time>
      </trkpt>
      <trkpt lat="45.50577" lon="6.60467">
        <ele>1615.15</ele>
        <time>2014-12-05T08:41:46Z</time>
      </trkpt>
      <trkpt lat="45.50568" lon="6.60465">
        <ele>1616.11</ele>
        <time>2014-12-05T08:41:58Z</time>
      </trkpt>
      <trkpt lat="45.5056" lon="6.60464">
        <ele>1617.56</ele>
        <time>2014-12-05T08:42:10Z</time>
      </trkpt>
      <trkpt lat="45.50558" lon="6.60468">
        <ele>1619.48</ele>
        <time>2014-12-05T08:42:23Z</time>
      </trkpt>
      <trkpt lat="45.50562" lon="6.60474">
        <ele>1620.92</ele>
        <time>2014-12-05T08:42:36Z</time>
      </trkpt>
      <trkpt lat="45.50565" lon="6.60477">
        <ele>1622.84</ele>
        <time>2014-12-05T08:42:51Z</time>
      </trkpt>
      <trkpt lat="45.50571" lon="6.60482">
        <ele>1624.77</ele>
        <time>2014-12-05T08:43:03Z</time>
      </trkpt>
      <trkpt lat="45.50577" lon="6.60484">
        <ele>1627.17</ele>
        <time>2014-12-05T08:43:17Z</time>
      </trkpt>
      <trkpt lat="45.50587" lon="6.60489">
        <ele>1629.57</ele>
        <time>2014-12-05T08:43:33Z</time>
      </trkpt>
      <trkpt lat="45.50595" lon="6.60494">
        <ele>1630.53</ele>
        <time>2014-12-05T08:43:44Z</time>
      </trkpt>
      <trkpt lat="45.506" lon="6.60501">
        <ele>1632.94</ele>
        <time>2014-12-05T08:43:57Z</time>
      </trkpt>
      <trkpt lat="45.50597" lon="6.60505">
        <ele>1634.86</ele>
        <time>2014-12-05T08:44:10Z</time>
      </trkpt>
      <trkpt lat="45.50591" lon="6.60505">
        <ele>1636.78</ele>
        <time>2014-12-05T08:44:24Z</time>
      </trkpt>
      <trkpt lat="45.50588" lon="6.60509">
        <ele>1639.67</ele>
        <time>2014-12-05T08:44:41Z</time>
      </trkpt>
      <trkpt lat="45.5058" lon="6.60513">
        <ele>1642.07</ele>
        <time>2014-12-05T08:44:55Z</time>
      </trkpt>
      <trkpt lat="45.50574" lon="6.60517">
        <ele>1643.51</ele>
        <time>2014-12-05T08:45:07Z</time>
      </trkpt>
      <trkpt lat="45.50565" lon="6.60522">
        <ele>1646.4</ele>
        <time>2014-12-05T08:45:22Z</time>
      </trkpt>
      <trkpt lat="45.50556" lon="6.60523">
        <ele>1648.32</ele>
        <time>2014-12-05T08:45:36Z</time>
      </trkpt>
      <trkpt lat="45.50544" lon="6.60527">
        <ele>1651.2</ele>
        <time>2014-12-05T08:45:56Z</time>
      </trkpt>
      <trkpt lat="45.50535" lon="6.6053">
        <ele>1654.09</ele>
        <time>2014-12-05T08:46:11Z</time>
      </trkpt>
      <trkpt lat="45.50529" lon="6.60531">
        <ele>1656.01</ele>
        <time>2014-12-05T08:46:24Z</time>
      </trkpt>
      <trkpt lat="45.50525" lon="6.60531">
        <ele>1657.93</ele>
        <time>2014-12-05T08:46:37Z</time>
      </trkpt>
      <trkpt lat="45.50512" lon="6.6054">
        <ele>1659.37</ele>
        <time>2014-12-05T08:46:53Z</time>
      </trkpt>
      <trkpt lat="45.50505" lon="6.60544">
        <ele>1660.81</ele>
        <time>2014-12-05T08:47:02Z</time>
      </trkpt>
      <trkpt lat="45.50499" lon="6.60551">
        <ele>1663.22</ele>
        <time>2014-12-05T08:47:16Z</time>
      </trkpt>
      <trkpt lat="45.50498" lon="6.60553">
        <ele>1665.62</ele>
        <time>2014-12-05T08:47:29Z</time>
      </trkpt>
      <trkpt lat="45.50503" lon="6.60554">
        <ele>1666.58</ele>
        <time>2014-12-05T08:47:39Z</time>
      </trkpt>
      <trkpt lat="45.50507" lon="6.60552">
        <ele>1668.99</ele>
        <time>2014-12-05T08:47:54Z</time>
      </trkpt>
      <trkpt lat="45.50512" lon="6.60553">
        <ele>1671.87</ele>
        <time>2014-12-05T08:48:08Z</time>
      </trkpt>
      <trkpt lat="45.50519" lon="6.60559">
        <ele>1673.79</ele>
        <time>2014-12-05T08:48:22Z</time>
      </trkpt>
      <trkpt lat="45.50514" lon="6.60566">
        <ele>1675.72</ele>
        <time>2014-12-05T08:48:36Z</time>
      </trkpt>
      <trkpt lat="45.50506" lon="6.60573">
        <ele>1677.64</ele>
        <time>2014-12-05T08:48:50Z</time>
      </trkpt>
      <trkpt lat="45.505" lon="6.60578">
        <ele>1679.56</ele>
        <time>2014-12-05T08:49:04Z</time>
      </trkpt>
      <trkpt lat="45.50506" lon="6.6058">
        <ele>1681.48</ele>
        <time>2014-12-05T08:49:17Z</time>
      </trkpt>
      <trkpt lat="45.50516" lon="6.60576">
        <ele>1683.41</ele>
        <time>2014-12-05T08:49:29Z</time>
      </trkpt>
      <trkpt lat="45.50522" lon="6.60579">
        <ele>1684.85</ele>
        <time>2014-12-05T08:49:40Z</time>
      </trkpt>
      <trkpt lat="45.50529" lon="6.60583">
        <ele>1686.77</ele>
        <time>2014-12-05T08:49:54Z</time>
      </trkpt>
      <trkpt lat="45.50532" lon="6.60586">
        <ele>1688.69</ele>
        <time>2014-12-05T08:50:07Z</time>
      </trkpt>
      <trkpt lat="45.50538" lon="6.6059">
        <ele>1691.1</ele>
        <time>2014-12-05T08:50:19Z</time>
      </trkpt>
      <trkpt lat="45.50547" lon="6.60594">
        <ele>1693.5</ele>
        <time>2014-12-05T08:50:33Z</time>
      </trkpt>
      <trkpt lat="45.50551" lon="6.60602">
        <ele>1696.38</ele>
        <time>2014-12-05T08:50:50Z</time>
      </trkpt>
      <trkpt lat="45.5055" lon="6.60611">
        <ele>1698.79</ele>
        <time>2014-12-05T08:51:04Z</time>
      </trkpt>
      <trkpt lat="45.50546" lon="6.6062">
        <ele>1701.19</ele>
        <time>2014-12-05T08:51:20Z</time>
      </trkpt>
      <trkpt lat="45.50544" lon="6.60625">
        <ele>1703.11</ele>
        <time>2014-12-05T08:51:33Z</time>
      </trkpt>
      <trkpt lat="45.50543" lon="6.60633">
        <ele>1706</ele>
        <time>2014-12-05T08:51:47Z</time>
      </trkpt>
      <trkpt lat="45.50539" lon="6.60637">
        <ele>1707.92</ele>
        <time>2014-12-05T08:52:00Z</time>
      </trkpt>
      <trkpt lat="45.50537" lon="6.6064">
        <ele>1709.36</ele>
        <time>2014-12-05T08:52:11Z</time>
      </trkpt>
      <trkpt lat="45.50537" lon="6.60645">
        <ele>1711.28</ele>
        <time>2014-12-05T08:52:23Z</time>
      </trkpt>
      <trkpt lat="45.50535" lon="6.60651">
        <ele>1713.69</ele>
        <time>2014-12-05T08:52:37Z</time>
      </trkpt>
      <trkpt lat="45.50536" lon="6.60657">
        <ele>1716.09</ele>
        <time>2014-12-05T08:52:49Z</time>
      </trkpt>
      <trkpt lat="45.50537" lon="6.60663">
        <ele>1718.01</ele>
        <time>2014-12-05T08:53:03Z</time>
      </trkpt>
      <trkpt lat="45.50536" lon="6.60666">
        <ele>1718.01</ele>
        <time>2014-12-05T08:53:16Z</time>
      </trkpt>
      <trkpt lat="45.50536" lon="6.60673">
        <ele>1719.94</ele>
        <time>2014-12-05T08:53:31Z</time>
      </trkpt>
      <trkpt lat="45.50539" lon="6.60681">
        <ele>1722.82</ele>
        <time>2014-12-05T08:53:46Z</time>
      </trkpt>
      <trkpt lat="45.50539" lon="6.60689">
        <ele>1725.22</ele>
        <time>2014-12-05T08:54:01Z</time>
      </trkpt>
      <trkpt lat="45.50538" lon="6.60696">
        <ele>1726.67</ele>
        <time>2014-12-05T08:54:15Z</time>
      </trkpt>
      <trkpt lat="45.50533" lon="6.60701">
        <ele>1727.63</ele>
        <time>2014-12-05T08:54:28Z</time>
      </trkpt>
      <trkpt lat="45.50524" lon="6.60701">
        <ele>1728.59</ele>
        <time>2014-12-05T08:54:41Z</time>
      </trkpt>
      <trkpt lat="45.50518" lon="6.60703">
        <ele>1731.47</ele>
        <time>2014-12-05T08:54:56Z</time>
      </trkpt>
      <trkpt lat="45.5051" lon="6.60706">
        <ele>1733.39</ele>
        <time>2014-12-05T08:55:11Z</time>
      </trkpt>
      <trkpt lat="45.50505" lon="6.60706">
        <ele>1733.88</ele>
        <time>2014-12-05T08:55:19Z</time>
      </trkpt>
      <trkpt lat="45.505" lon="6.60712">
        <ele>1736.28</ele>
        <time>2014-12-05T08:55:33Z</time>
      </trkpt>
      <trkpt lat="45.50492" lon="6.60721">
        <ele>1738.68</ele>
        <time>2014-12-05T08:55:50Z</time>
      </trkpt>
      <trkpt lat="45.50485" lon="6.60729">
        <ele>1742.05</ele>
        <time>2014-12-05T08:56:07Z</time>
      </trkpt>
      <trkpt lat="45.50481" lon="6.60736">
        <ele>1743.97</ele>
        <time>2014-12-05T08:56:23Z</time>
      </trkpt>
      <trkpt lat="45.50479" lon="6.60745">
        <ele>1745.41</ele>
        <time>2014-12-05T08:56:37Z</time>
      </trkpt>
      <trkpt lat="45.50481" lon="6.60751">
        <ele>1748.29</ele>
        <time>2014-12-05T08:56:52Z</time>
      </trkpt>
      <trkpt lat="45.50479" lon="6.60761">
        <ele>1750.22</ele>
        <time>2014-12-05T08:57:05Z</time>
      </trkpt>
      <trkpt lat="45.50473" lon="6.60768">
        <ele>1753.1</ele>
        <time>2014-12-05T08:57:23Z</time>
      </trkpt>
      <trkpt lat="45.50468" lon="6.60776">
        <ele>1755.02</ele>
        <time>2014-12-05T08:57:39Z</time>
      </trkpt>
      <trkpt lat="45.50463" lon="6.60779">
        <ele>1758.39</ele>
        <time>2014-12-05T08:57:53Z</time>
      </trkpt>
      <trkpt lat="45.50455" lon="6.60785">
        <ele>1760.31</ele>
        <time>2014-12-05T08:58:09Z</time>
      </trkpt>
      <trkpt lat="45.50447" lon="6.60793">
        <ele>1763.2</ele>
        <time>2014-12-05T08:58:26Z</time>
      </trkpt>
      <trkpt lat="45.5044" lon="6.60797">
        <ele>1765.12</ele>
        <time>2014-12-05T08:58:41Z</time>
      </trkpt>
      <trkpt lat="45.50431" lon="6.60802">
        <ele>1766.56</ele>
        <time>2014-12-05T08:59:00Z</time>
      </trkpt>
      <trkpt lat="45.50424" lon="6.60807">
        <ele>1768.48</ele>
        <time>2014-12-05T08:59:15Z</time>
      </trkpt>
      <trkpt lat="45.50424" lon="6.60808">
        <ele>1768.48</ele>
        <time>2014-12-05T08:59:35Z</time>
      </trkpt>
      <trkpt lat="45.50424" lon="6.60809">
        <ele>1768.96</ele>
        <time>2014-12-05T08:59:54Z</time>
      </trkpt>
      <trkpt lat="45.50423" lon="6.60811">
        <ele>1768.96</ele>
        <time>2014-12-05T09:00:15Z</time>
      </trkpt>
      <trkpt lat="45.50418" lon="6.60816">
        <ele>1771.85</ele>
        <time>2014-12-05T09:00:29Z</time>
      </trkpt>
      <trkpt lat="45.50411" lon="6.60823">
        <ele>1772.33</ele>
        <time>2014-12-05T09:00:42Z</time>
      </trkpt>
      <trkpt lat="45.50406" lon="6.60833">
        <ele>1775.69</ele>
        <time>2014-12-05T09:01:00Z</time>
      </trkpt>
      <trkpt lat="45.50399" lon="6.60839">
        <ele>1777.61</ele>
        <time>2014-12-05T09:01:16Z</time>
      </trkpt>
      <trkpt lat="45.50394" lon="6.6085">
        <ele>1780.02</ele>
        <time>2014-12-05T09:01:32Z</time>
      </trkpt>
      <trkpt lat="45.50391" lon="6.60855">
        <ele>1781.94</ele>
        <time>2014-12-05T09:01:48Z</time>
      </trkpt>
      <trkpt lat="45.50383" lon="6.60858">
        <ele>1783.38</ele>
        <time>2014-12-05T09:02:03Z</time>
      </trkpt>
      <trkpt lat="45.50379" lon="6.60866">
        <ele>1786.27</ele>
        <time>2014-12-05T09:02:19Z</time>
      </trkpt>
      <trkpt lat="45.50378" lon="6.60871">
        <ele>1788.19</ele>
        <time>2014-12-05T09:02:32Z</time>
      </trkpt>
      <trkpt lat="45.50379" lon="6.60875">
        <ele>1788.67</ele>
        <time>2014-12-05T09:02:44Z</time>
      </trkpt>
      <trkpt lat="45.50378" lon="6.60881">
        <ele>1791.55</ele>
        <time>2014-12-05T09:02:58Z</time>
      </trkpt>
      <trkpt lat="45.50377" lon="6.60887">
        <ele>1792.03</ele>
        <time>2014-12-05T09:03:15Z</time>
      </trkpt>
      <trkpt lat="45.50376" lon="6.6089">
        <ele>1793</ele>
        <time>2014-12-05T09:03:35Z</time>
      </trkpt>
      <trkpt lat="45.50374" lon="6.60892">
        <ele>1793.96</ele>
        <time>2014-12-05T09:03:51Z</time>
      </trkpt>
      <trkpt lat="45.50368" lon="6.60893">
        <ele>1797.32</ele>
        <time>2014-12-05T09:04:06Z</time>
      </trkpt>
      <trkpt lat="45.5036" lon="6.60893">
        <ele>1798.76</ele>
        <time>2014-12-05T09:04:18Z</time>
      </trkpt>
      <trkpt lat="45.50355" lon="6.60893">
        <ele>1800.69</ele>
        <time>2014-12-05T09:04:31Z</time>
      </trkpt>
      <trkpt lat="45.50352" lon="6.6089">
        <ele>1803.09</ele>
        <time>2014-12-05T09:04:44Z</time>
      </trkpt>
      <trkpt lat="45.50348" lon="6.60892">
        <ele>1805.49</ele>
        <time>2014-12-05T09:05:01Z</time>
      </trkpt>
      <trkpt lat="45.50342" lon="6.60894">
        <ele>1807.42</ele>
        <time>2014-12-05T09:05:16Z</time>
      </trkpt>
      <trkpt lat="45.50336" lon="6.60899">
        <ele>1809.34</ele>
        <time>2014-12-05T09:05:31Z</time>
      </trkpt>
      <trkpt lat="45.5033" lon="6.60901">
        <ele>1811.26</ele>
        <time>2014-12-05T09:05:43Z</time>
      </trkpt>
      <trkpt lat="45.50325" lon="6.60906">
        <ele>1813.18</ele>
        <time>2014-12-05T09:05:57Z</time>
      </trkpt>
      <trkpt lat="45.50323" lon="6.60908">
        <ele>1815.11</ele>
        <time>2014-12-05T09:06:07Z</time>
      </trkpt>
      <trkpt lat="45.50319" lon="6.60909">
        <ele>1817.03</ele>
        <time>2014-12-05T09:06:20Z</time>
      </trkpt>
      <trkpt lat="45.50315" lon="6.60916">
        <ele>1819.91</ele>
        <time>2014-12-05T09:06:36Z</time>
      </trkpt>
      <trkpt lat="45.50313" lon="6.60918">
        <ele>1821.84</ele>
        <time>2014-12-05T09:06:49Z</time>
      </trkpt>
      <trkpt lat="45.5031" lon="6.6092">
        <ele>1822.8</ele>
        <time>2014-12-05T09:07:00Z</time>
      </trkpt>
      <trkpt lat="45.50306" lon="6.60927">
        <ele>1824.72</ele>
        <time>2014-12-05T09:07:13Z</time>
      </trkpt>
      <trkpt lat="45.50301" lon="6.60937">
        <ele>1826.16</ele>
        <time>2014-12-05T09:07:28Z</time>
      </trkpt>
      <trkpt lat="45.5029" lon="6.60944">
        <ele>1828.08</ele>
        <time>2014-12-05T09:07:42Z</time>
      </trkpt>
      <trkpt lat="45.50279" lon="6.60951">
        <ele>1830.49</ele>
        <time>2014-12-05T09:07:57Z</time>
      </trkpt>
      <trkpt lat="45.50274" lon="6.60958">
        <ele>1832.41</ele>
        <time>2014-12-05T09:08:09Z</time>
      </trkpt>
      <trkpt lat="45.50271" lon="6.60964">
        <ele>1834.33</ele>
        <time>2014-12-05T09:08:23Z</time>
      </trkpt>
      <trkpt lat="45.50267" lon="6.60969">
        <ele>1837.22</ele>
        <time>2014-12-05T09:08:37Z</time>
      </trkpt>
      <trkpt lat="45.50264" lon="6.60974">
        <ele>1838.18</ele>
        <time>2014-12-05T09:08:50Z</time>
      </trkpt>
      <trkpt lat="45.50261" lon="6.6098">
        <ele>1840.58</ele>
        <time>2014-12-05T09:09:06Z</time>
      </trkpt>
      <trkpt lat="45.50259" lon="6.60986">
        <ele>1842.98</ele>
        <time>2014-12-05T09:09:20Z</time>
      </trkpt>
      <trkpt lat="45.50256" lon="6.60992">
        <ele>1845.39</ele>
        <time>2014-12-05T09:09:33Z</time>
      </trkpt>
      <trkpt lat="45.50254" lon="6.61002">
        <ele>1847.31</ele>
        <time>2014-12-05T09:09:50Z</time>
      </trkpt>
      <trkpt lat="45.50255" lon="6.61007">
        <ele>1849.23</ele>
        <time>2014-12-05T09:10:04Z</time>
      </trkpt>
      <trkpt lat="45.50258" lon="6.6101">
        <ele>1852.6</ele>
        <time>2014-12-05T09:10:15Z</time>
      </trkpt>
      <trkpt lat="45.50257" lon="6.61018">
        <ele>1852.12</ele>
        <time>2014-12-05T09:10:30Z</time>
      </trkpt>
      <trkpt lat="45.50253" lon="6.61018">
        <ele>1852.12</ele>
        <time>2014-12-05T09:10:37Z</time>
      </trkpt>
      <trkpt lat="45.50247" lon="6.61019">
        <ele>1853.08</ele>
        <time>2014-12-05T09:10:50Z</time>
      </trkpt>
      <trkpt lat="45.50247" lon="6.61023">
        <ele>1851.64</ele>
        <time>2014-12-05T09:10:53Z</time>
      </trkpt>
      <trkpt lat="45.50247" lon="6.61031">
        <ele>1853.08</ele>
        <time>2014-12-05T09:11:02Z</time>
      </trkpt>
      <trkpt lat="45.50246" lon="6.61046">
        <ele>1855</ele>
        <time>2014-12-05T09:11:17Z</time>
      </trkpt>
      <trkpt lat="45.50246" lon="6.61058">
        <ele>1855.48</ele>
        <time>2014-12-05T09:11:31Z</time>
      </trkpt>
      <trkpt lat="45.50246" lon="6.61072">
        <ele>1856.44</ele>
        <time>2014-12-05T09:11:45Z</time>
      </trkpt>
      <trkpt lat="45.50246" lon="6.61076">
        <ele>1856.44</ele>
        <time>2014-12-05T09:11:50Z</time>
      </trkpt>
      <trkpt lat="45.50245" lon="6.61092">
        <ele>1857.4</ele>
        <time>2014-12-05T09:12:05Z</time>
      </trkpt>
      <trkpt lat="45.50246" lon="6.61101">
        <ele>1859.81</ele>
        <time>2014-12-05T09:12:18Z</time>
      </trkpt>
      <trkpt lat="45.50243" lon="6.61113">
        <ele>1861.73</ele>
        <time>2014-12-05T09:12:35Z</time>
      </trkpt>
      <trkpt lat="45.50239" lon="6.61121">
        <ele>1864.61</ele>
        <time>2014-12-05T09:12:50Z</time>
      </trkpt>
      <trkpt lat="45.50235" lon="6.61124">
        <ele>1867.02</ele>
        <time>2014-12-05T09:13:03Z</time>
      </trkpt>
      <trkpt lat="45.50231" lon="6.61128">
        <ele>1868.46</ele>
        <time>2014-12-05T09:13:16Z</time>
      </trkpt>
      <trkpt lat="45.50229" lon="6.6113">
        <ele>1869.9</ele>
        <time>2014-12-05T09:13:26Z</time>
      </trkpt>
      <trkpt lat="45.50227" lon="6.61131">
        <ele>1870.38</ele>
        <time>2014-12-05T09:13:46Z</time>
      </trkpt>
      <trkpt lat="45.50225" lon="6.6113">
        <ele>1871.82</ele>
        <time>2014-12-05T09:14:05Z</time>
      </trkpt>
      <trkpt lat="45.50221" lon="6.61131">
        <ele>1873.75</ele>
        <time>2014-12-05T09:14:17Z</time>
      </trkpt>
      <trkpt lat="45.50217" lon="6.61135">
        <ele>1876.63</ele>
        <time>2014-12-05T09:14:32Z</time>
      </trkpt>
      <trkpt lat="45.50213" lon="6.61144">
        <ele>1878.07</ele>
        <time>2014-12-05T09:14:46Z</time>
      </trkpt>
      <trkpt lat="45.5021" lon="6.61149">
        <ele>1879.51</ele>
        <time>2014-12-05T09:14:58Z</time>
      </trkpt>
      <trkpt lat="45.50208" lon="6.61164">
        <ele>1881.44</ele>
        <time>2014-12-05T09:15:14Z</time>
      </trkpt>
      <trkpt lat="45.50206" lon="6.61171">
        <ele>1882.4</ele>
        <time>2014-12-05T09:15:26Z</time>
      </trkpt>
      <trkpt lat="45.50206" lon="6.61187">
        <ele>1885.28</ele>
        <time>2014-12-05T09:15:45Z</time>
      </trkpt>
      <trkpt lat="45.50206" lon="6.612">
        <ele>1887.21</ele>
        <time>2014-12-05T09:15:59Z</time>
      </trkpt>
      <trkpt lat="45.50202" lon="6.6121">
        <ele>1887.69</ele>
        <time>2014-12-05T09:16:12Z</time>
      </trkpt>
      <trkpt lat="45.50199" lon="6.6122">
        <ele>1891.05</ele>
        <time>2014-12-05T09:16:28Z</time>
      </trkpt>
      <trkpt lat="45.502" lon="6.61229">
        <ele>1893.45</ele>
        <time>2014-12-05T09:16:43Z</time>
      </trkpt>
      <trkpt lat="45.50201" lon="6.6124">
        <ele>1895.38</ele>
        <time>2014-12-05T09:16:59Z</time>
      </trkpt>
      <trkpt lat="45.50201" lon="6.61247">
        <ele>1898.26</ele>
        <time>2014-12-05T09:17:13Z</time>
      </trkpt>
      <trkpt lat="45.50198" lon="6.61249">
        <ele>1898.26</ele>
        <time>2014-12-05T09:17:17Z</time>
      </trkpt>
      <trkpt lat="45.50191" lon="6.61256">
        <ele>1899.22</ele>
        <time>2014-12-05T09:17:31Z</time>
      </trkpt>
      <trkpt lat="45.50187" lon="6.61261">
        <ele>1902.59</ele>
        <time>2014-12-05T09:17:46Z</time>
      </trkpt>
      <trkpt lat="45.50179" lon="6.61263">
        <ele>1904.03</ele>
        <time>2014-12-05T09:18:00Z</time>
      </trkpt>
      <trkpt lat="45.50169" lon="6.61261">
        <ele>1905.47</ele>
        <time>2014-12-05T09:18:17Z</time>
      </trkpt>
      <trkpt lat="45.50161" lon="6.61265">
        <ele>1908.83</ele>
        <time>2014-12-05T09:18:33Z</time>
      </trkpt>
      <trkpt lat="45.50155" lon="6.61272">
        <ele>1911.24</ele>
        <time>2014-12-05T09:18:50Z</time>
      </trkpt>
      <trkpt lat="45.50152" lon="6.61276">
        <ele>1913.64</ele>
        <time>2014-12-05T09:19:01Z</time>
      </trkpt>
      <trkpt lat="45.50147" lon="6.61282">
        <ele>1914.12</ele>
        <time>2014-12-05T09:19:13Z</time>
      </trkpt>
      <trkpt lat="45.50143" lon="6.61289">
        <ele>1915.56</ele>
        <time>2014-12-05T09:19:28Z</time>
      </trkpt>
      <trkpt lat="45.50138" lon="6.61294">
        <ele>1918.45</ele>
        <time>2014-12-05T09:19:41Z</time>
      </trkpt>
      <trkpt lat="45.50137" lon="6.613">
        <ele>1919.89</ele>
        <time>2014-12-05T09:19:54Z</time>
      </trkpt>
      <trkpt lat="45.50132" lon="6.61308">
        <ele>1921.81</ele>
        <time>2014-12-05T09:20:08Z</time>
      </trkpt>
      <trkpt lat="45.50127" lon="6.61316">
        <ele>1923.25</ele>
        <time>2014-12-05T09:20:23Z</time>
      </trkpt>
      <trkpt lat="45.5012" lon="6.61325">
        <ele>1924.7</ele>
        <time>2014-12-05T09:20:38Z</time>
      </trkpt>
      <trkpt lat="45.50114" lon="6.6133">
        <ele>1926.62</ele>
        <time>2014-12-05T09:20:51Z</time>
      </trkpt>
      <trkpt lat="45.50107" lon="6.61336">
        <ele>1929.5</ele>
        <time>2014-12-05T09:21:04Z</time>
      </trkpt>
      <trkpt lat="45.50103" lon="6.61342">
        <ele>1931.91</ele>
        <time>2014-12-05T09:21:20Z</time>
      </trkpt>
      <trkpt lat="45.50097" lon="6.61351">
        <ele>1933.35</ele>
        <time>2014-12-05T09:21:34Z</time>
      </trkpt>
      <trkpt lat="45.50089" lon="6.61352">
        <ele>1934.31</ele>
        <time>2014-12-05T09:21:48Z</time>
      </trkpt>
      <trkpt lat="45.50083" lon="6.61351">
        <ele>1934.79</ele>
        <time>2014-12-05T09:22:02Z</time>
      </trkpt>
      <trkpt lat="45.50079" lon="6.61356">
        <ele>1936.71</ele>
        <time>2014-12-05T09:22:16Z</time>
      </trkpt>
      <trkpt lat="45.50072" lon="6.61361">
        <ele>1939.6</ele>
        <time>2014-12-05T09:22:32Z</time>
      </trkpt>
      <trkpt lat="45.50067" lon="6.61369">
        <ele>1940.56</ele>
        <time>2014-12-05T09:22:45Z</time>
      </trkpt>
      <trkpt lat="45.50061" lon="6.61378">
        <ele>1942</ele>
        <time>2014-12-05T09:22:59Z</time>
      </trkpt>
      <trkpt lat="45.50055" lon="6.61384">
        <ele>1944.4</ele>
        <time>2014-12-05T09:23:15Z</time>
      </trkpt>
      <trkpt lat="45.5005" lon="6.61393">
        <ele>1946.33</ele>
        <time>2014-12-05T09:23:30Z</time>
      </trkpt>
      <trkpt lat="45.50045" lon="6.61401">
        <ele>1948.25</ele>
        <time>2014-12-05T09:23:44Z</time>
      </trkpt>
      <trkpt lat="45.50039" lon="6.61408">
        <ele>1950.65</ele>
        <time>2014-12-05T09:23:59Z</time>
      </trkpt>
      <trkpt lat="45.50034" lon="6.61416">
        <ele>1953.06</ele>
        <time>2014-12-05T09:24:15Z</time>
      </trkpt>
      <trkpt lat="45.50032" lon="6.61424">
        <ele>1954.5</ele>
        <time>2014-12-05T09:24:28Z</time>
      </trkpt>
      <trkpt lat="45.50027" lon="6.61432">
        <ele>1956.9</ele>
        <time>2014-12-05T09:24:45Z</time>
      </trkpt>
      <trkpt lat="45.50023" lon="6.61438">
        <ele>1959.3</ele>
        <time>2014-12-05T09:25:00Z</time>
      </trkpt>
      <trkpt lat="45.50021" lon="6.61444">
        <ele>1961.71</ele>
        <time>2014-12-05T09:25:13Z</time>
      </trkpt>
      <trkpt lat="45.50016" lon="6.61452">
        <ele>1963.63</ele>
        <time>2014-12-05T09:25:28Z</time>
      </trkpt>
      <trkpt lat="45.50015" lon="6.61458">
        <ele>1965.07</ele>
        <time>2014-12-05T09:25:42Z</time>
      </trkpt>
      <trkpt lat="45.50011" lon="6.61463">
        <ele>1967.48</ele>
        <time>2014-12-05T09:25:55Z</time>
      </trkpt>
      <trkpt lat="45.50009" lon="6.61468">
        <ele>1969.88</ele>
        <time>2014-12-05T09:26:08Z</time>
      </trkpt>
      <trkpt lat="45.50006" lon="6.61472">
        <ele>1972.76</ele>
        <time>2014-12-05T09:26:21Z</time>
      </trkpt>
      <trkpt lat="45.50005" lon="6.61476">
        <ele>1974.2</ele>
        <time>2014-12-05T09:26:34Z</time>
      </trkpt>
      <trkpt lat="45.50001" lon="6.61483">
        <ele>1977.09</ele>
        <time>2014-12-05T09:26:46Z</time>
      </trkpt>
      <trkpt lat="45.49996" lon="6.61489">
        <ele>1979.97</ele>
        <time>2014-12-05T09:27:01Z</time>
      </trkpt>
      <trkpt lat="45.49992" lon="6.61496">
        <ele>1982.86</ele>
        <time>2014-12-05T09:27:13Z</time>
      </trkpt>
      <trkpt lat="45.49993" lon="6.61495">
        <ele>1982.38</ele>
        <time>2014-12-05T09:27:22Z</time>
      </trkpt>
      <trkpt lat="45.49992" lon="6.61494">
        <ele>1982.38</ele>
        <time>2014-12-05T09:27:32Z</time>
      </trkpt>
      <trkpt lat="45.49986" lon="6.61493">
        <ele>1982.38</ele>
        <time>2014-12-05T09:27:37Z</time>
      </trkpt>
      <trkpt lat="45.49982" lon="6.6149">
        <ele>1982.38</ele>
        <time>2014-12-05T09:27:41Z</time>
      </trkpt>
      <trkpt lat="45.49968" lon="6.61482">
        <ele>1981.41</ele>
        <time>2014-12-05T09:27:52Z</time>
      </trkpt>
      <trkpt lat="45.49964" lon="6.61482">
        <ele>1981.41</ele>
        <time>2014-12-05T09:28:03Z</time>
      </trkpt>
      <trkpt lat="45.49959" lon="6.61476">
        <ele>1980.93</ele>
        <time>2014-12-05T09:28:15Z</time>
      </trkpt>
      <trkpt lat="45.4996" lon="6.61476">
        <ele>1980.93</ele>
        <time>2014-12-05T09:28:16Z</time>
      </trkpt>
      <trkpt lat="45.49965" lon="6.6148">
        <ele>1981.9</ele>
        <time>2014-12-05T09:28:29Z</time>
      </trkpt>
      <trkpt lat="45.49965" lon="6.61481">
        <ele>1981.9</ele>
        <time>2014-12-05T09:28:46Z</time>
      </trkpt>
      <trkpt lat="45.49964" lon="6.61483">
        <ele>1981.9</ele>
        <time>2014-12-05T09:29:01Z</time>
      </trkpt>
      <trkpt lat="45.49963" lon="6.61482">
        <ele>1981.9</ele>
        <time>2014-12-05T09:29:10Z</time>
      </trkpt>
      <trkpt lat="45.49964" lon="6.61483">
        <ele>1976.61</ele>
        <time>2014-12-05T09:29:17Z</time>
      </trkpt>
      <trkpt lat="45.49964" lon="6.61483">
        <ele>1979.49</ele>
        <time>2014-12-05T09:29:18Z</time>
      </trkpt>
      <trkpt lat="45.49964" lon="6.61484">
        <ele>1980.45</ele>
        <time>2014-12-05T09:29:20Z</time>
      </trkpt>
      <trkpt lat="45.49964" lon="6.61485">
        <ele>1981.9</ele>
        <time>2014-12-05T09:29:49Z</time>
      </trkpt>
      <trkpt lat="45.49964" lon="6.61484">
        <ele>1980.45</ele>
        <time>2014-12-05T09:29:53Z</time>
      </trkpt>
      <trkpt lat="45.49965" lon="6.61483">
        <ele>1973.24</ele>
        <time>2014-12-05T09:30:07Z</time>
      </trkpt>
      <trkpt lat="45.49965" lon="6.61484">
        <ele>1983.34</ele>
        <time>2014-12-05T09:30:08Z</time>
      </trkpt>
      <trkpt lat="45.49965" lon="6.61483">
        <ele>1983.34</ele>
        <time>2014-12-05T09:30:09Z</time>
      </trkpt>
      <trkpt lat="45.49965" lon="6.61481">
        <ele>1980.45</ele>
        <time>2014-12-05T09:30:12Z</time>
      </trkpt>
      <trkpt lat="45.49967" lon="6.61484">
        <ele>1980.93</ele>
        <time>2014-12-05T09:30:45Z</time>
      </trkpt>
      <trkpt lat="45.49967" lon="6.61484">
        <ele>1980.93</ele>
        <time>2014-12-05T09:31:23Z</time>
      </trkpt>
      <trkpt lat="45.49966" lon="6.61484">
        <ele>1980.45</ele>
        <time>2014-12-05T09:31:58Z</time>
      </trkpt>
      <trkpt lat="45.49965" lon="6.61483">
        <ele>1980.45</ele>
        <time>2014-12-05T09:32:32Z</time>
      </trkpt>
      <trkpt lat="45.49966" lon="6.61483">
        <ele>1980.45</ele>
        <time>2014-12-05T09:33:15Z</time>
      </trkpt>
      <trkpt lat="45.49969" lon="6.61489">
        <ele>1980.45</ele>
        <time>2014-12-05T09:33:59Z</time>
      </trkpt>
      <trkpt lat="45.49968" lon="6.61488">
        <ele>1979.97</ele>
        <time>2014-12-05T09:34:32Z</time>
      </trkpt>
      <trkpt lat="45.49969" lon="6.61493">
        <ele>1979.97</ele>
        <time>2014-12-05T09:35:08Z</time>
      </trkpt>
      <trkpt lat="45.49968" lon="6.61492">
        <ele>1979.49</ele>
        <time>2014-12-05T09:35:46Z</time>
      </trkpt>
      <trkpt lat="45.49969" lon="6.6149">
        <ele>1979.49</ele>
        <time>2014-12-05T09:36:20Z</time>
      </trkpt>
      <trkpt lat="45.49968" lon="6.61489">
        <ele>1979.01</ele>
        <time>2014-12-05T09:36:56Z</time>
      </trkpt>
      <trkpt lat="45.49966" lon="6.6149">
        <ele>1979.01</ele>
        <time>2014-12-05T09:37:37Z</time>
      </trkpt>
      <trkpt lat="45.49968" lon="6.61485">
        <ele>1979.01</ele>
        <time>2014-12-05T09:38:17Z</time>
      </trkpt>
      <trkpt lat="45.49968" lon="6.61486">
        <ele>1979.01</ele>
        <time>2014-12-05T09:38:52Z</time>
      </trkpt>
      <trkpt lat="45.49965" lon="6.61482">
        <ele>1979.01</ele>
        <time>2014-12-05T09:39:28Z</time>
      </trkpt>
      <trkpt lat="45.49969" lon="6.61489">
        <ele>1979.01</ele>
        <time>2014-12-05T09:40:08Z</time>
      </trkpt>
      <trkpt lat="45.49963" lon="6.61484">
        <ele>1979.01</ele>
        <time>2014-12-05T09:40:43Z</time>
      </trkpt>
      <trkpt lat="45.49964" lon="6.61484">
        <ele>1979.01</ele>
        <time>2014-12-05T09:40:53Z</time>
      </trkpt>
      <trkpt lat="45.49966" lon="6.61484">
        <ele>1980.45</ele>
        <time>2014-12-05T09:40:55Z</time>
      </trkpt>
      <trkpt lat="45.49964" lon="6.61483">
        <ele>1980.45</ele>
        <time>2014-12-05T09:41:06Z</time>
      </trkpt>
      <trkpt lat="45.49964" lon="6.61482">
        <ele>1980.45</ele>
        <time>2014-12-05T09:41:20Z</time>
      </trkpt>
      <trkpt lat="45.49963" lon="6.61482">
        <ele>1979.49</ele>
        <time>2014-12-05T09:41:41Z</time>
      </trkpt>
      <trkpt lat="45.49963" lon="6.6148">
        <ele>1979.49</ele>
        <time>2014-12-05T09:41:54Z</time>
      </trkpt>
      <trkpt lat="45.49963" lon="6.6148">
        <ele>1979.49</ele>
        <time>2014-12-05T09:42:17Z</time>
      </trkpt>
      <trkpt lat="45.49964" lon="6.6148">
        <ele>1979.49</ele>
        <time>2014-12-05T09:42:36Z</time>
      </trkpt>
      <trkpt lat="45.49964" lon="6.61483">
        <ele>1979.49</ele>
        <time>2014-12-05T09:42:50Z</time>
      </trkpt>
      <trkpt lat="45.49965" lon="6.61484">
        <ele>1979.49</ele>
        <time>2014-12-05T09:43:02Z</time>
      </trkpt>
      <trkpt lat="45.49963" lon="6.61483">
        <ele>1979.49</ele>
        <time>2014-12-05T09:43:24Z</time>
      </trkpt>
      <trkpt lat="45.49964" lon="6.61483">
        <ele>1979.49</ele>
        <time>2014-12-05T09:43:35Z</time>
      </trkpt>
      <trkpt lat="45.49964" lon="6.61483">
        <ele>1979.49</ele>
        <time>2014-12-05T09:43:53Z</time>
      </trkpt>
      <trkpt lat="45.49963" lon="6.61482">
        <ele>1979.49</ele>
        <time>2014-12-05T09:44:15Z</time>
      </trkpt>
      <trkpt lat="45.49964" lon="6.61482">
        <ele>1979.49</ele>
        <time>2014-12-05T09:44:27Z</time>
      </trkpt>
      <trkpt lat="45.49962" lon="6.61482">
        <ele>1979.49</ele>
        <time>2014-12-05T09:44:51Z</time>
      </trkpt>
      <trkpt lat="45.49961" lon="6.61483">
        <ele>1979.49</ele>
        <time>2014-12-05T09:45:07Z</time>
      </trkpt>
      <trkpt lat="45.49961" lon="6.61483">
        <ele>1979.49</ele>
        <time>2014-12-05T09:45:27Z</time>
      </trkpt>
      <trkpt lat="45.49962" lon="6.61484">
        <ele>1979.49</ele>
        <time>2014-12-05T09:45:41Z</time>
      </trkpt>
      <trkpt lat="45.49963" lon="6.61485">
        <ele>1979.49</ele>
        <time>2014-12-05T09:46:12Z</time>
      </trkpt>
      <trkpt lat="45.49959" lon="6.61483">
        <ele>1979.49</ele>
        <time>2014-12-05T09:46:17Z</time>
      </trkpt>
      <trkpt lat="45.49948" lon="6.61487">
        <ele>1978.05</ele>
        <time>2014-12-05T09:46:29Z</time>
      </trkpt>
      <trkpt lat="45.49934" lon="6.61494">
        <ele>1976.61</ele>
        <time>2014-12-05T09:46:43Z</time>
      </trkpt>
      <trkpt lat="45.4993" lon="6.61495">
        <ele>1975.65</ele>
        <time>2014-12-05T09:46:47Z</time>
      </trkpt>
      <trkpt lat="45.49922" lon="6.61494">
        <ele>1974.69</ele>
        <time>2014-12-05T09:46:54Z</time>
      </trkpt>
      <trkpt lat="45.49905" lon="6.61492">
        <ele>1972.76</ele>
        <time>2014-12-05T09:47:09Z</time>
      </trkpt>
      <trkpt lat="45.49887" lon="6.61488">
        <ele>1971.32</ele>
        <time>2014-12-05T09:47:24Z</time>
      </trkpt>
      <trkpt lat="45.4987" lon="6.61485">
        <ele>1968.44</ele>
        <time>2014-12-05T09:47:38Z</time>
      </trkpt>
      <trkpt lat="45.49868" lon="6.61485">
        <ele>1968.44</ele>
        <time>2014-12-05T09:47:40Z</time>
      </trkpt>
      <trkpt lat="45.49863" lon="6.61482">
        <ele>1967.96</ele>
        <time>2014-12-05T09:47:44Z</time>
      </trkpt>
      <trkpt lat="45.49844" lon="6.6148">
        <ele>1964.59</ele>
        <time>2014-12-05T09:48:00Z</time>
      </trkpt>
      <trkpt lat="45.49823" lon="6.6147">
        <ele>1961.71</ele>
        <time>2014-12-05T09:48:17Z</time>
      </trkpt>
      <trkpt lat="45.4981" lon="6.61468">
        <ele>1960.75</ele>
        <time>2014-12-05T09:48:27Z</time>
      </trkpt>
      <trkpt lat="45.4979" lon="6.61465">
        <ele>1958.34</ele>
        <time>2014-12-05T09:48:43Z</time>
      </trkpt>
      <trkpt lat="45.49773" lon="6.61454">
        <ele>1955.94</ele>
        <time>2014-12-05T09:48:57Z</time>
      </trkpt>
      <trkpt lat="45.49768" lon="6.61451">
        <ele>1954.98</ele>
        <time>2014-12-05T09:49:01Z</time>
      </trkpt>
      <trkpt lat="45.4975" lon="6.61423">
        <ele>1953.54</ele>
        <time>2014-12-05T09:49:20Z</time>
      </trkpt>
      <trkpt lat="45.49735" lon="6.614">
        <ele>1950.65</ele>
        <time>2014-12-05T09:49:37Z</time>
      </trkpt>
      <trkpt lat="45.4972" lon="6.61386">
        <ele>1949.21</ele>
        <time>2014-12-05T09:49:50Z</time>
      </trkpt>
      <trkpt lat="45.49703" lon="6.61363">
        <ele>1948.25</ele>
        <time>2014-12-05T09:50:08Z</time>
      </trkpt>
      <trkpt lat="45.49695" lon="6.61353">
        <ele>1950.17</ele>
        <time>2014-12-05T09:50:18Z</time>
      </trkpt>
      <trkpt lat="45.49689" lon="6.61348">
        <ele>1951.13</ele>
        <time>2014-12-05T09:50:24Z</time>
      </trkpt>
      <trkpt lat="45.49686" lon="6.61346">
        <ele>1951.61</ele>
        <time>2014-12-05T09:50:27Z</time>
      </trkpt>
      <trkpt lat="45.49673" lon="6.61333">
        <ele>1953.54</ele>
        <time>2014-12-05T09:50:42Z</time>
      </trkpt>
      <trkpt lat="45.49661" lon="6.61324">
        <ele>1954.5</ele>
        <time>2014-12-05T09:50:55Z</time>
      </trkpt>
      <trkpt lat="45.49659" lon="6.61323">
        <ele>1954.98</ele>
        <time>2014-12-05T09:50:57Z</time>
      </trkpt>
      <trkpt lat="45.4965" lon="6.61319">
        <ele>1955.94</ele>
        <time>2014-12-05T09:51:06Z</time>
      </trkpt>
      <trkpt lat="45.49635" lon="6.61312">
        <ele>1957.38</ele>
        <time>2014-12-05T09:51:20Z</time>
      </trkpt>
      <trkpt lat="45.49621" lon="6.61309">
        <ele>1958.34</ele>
        <time>2014-12-05T09:51:32Z</time>
      </trkpt>
      <trkpt lat="45.4961" lon="6.6131">
        <ele>1959.78</ele>
        <time>2014-12-05T09:51:43Z</time>
      </trkpt>
      <trkpt lat="45.49608" lon="6.61311">
        <ele>1960.27</ele>
        <time>2014-12-05T09:51:45Z</time>
      </trkpt>
      <trkpt lat="45.49605" lon="6.6131">
        <ele>1960.75</ele>
        <time>2014-12-05T09:51:48Z</time>
      </trkpt>
      <trkpt lat="45.49595" lon="6.61309">
        <ele>1961.71</ele>
        <time>2014-12-05T09:51:58Z</time>
      </trkpt>
      <trkpt lat="45.49581" lon="6.61302">
        <ele>1963.63</ele>
        <time>2014-12-05T09:52:12Z</time>
      </trkpt>
      <trkpt lat="45.49568" lon="6.61296">
        <ele>1965.55</ele>
        <time>2014-12-05T09:52:25Z</time>
      </trkpt>
      <trkpt lat="45.49557" lon="6.61289">
        <ele>1967.48</ele>
        <time>2014-12-05T09:52:37Z</time>
      </trkpt>
      <trkpt lat="45.49543" lon="6.61288">
        <ele>1968.92</ele>
        <time>2014-12-05T09:52:50Z</time>
      </trkpt>
      <trkpt lat="45.49527" lon="6.61287">
        <ele>1970.84</ele>
        <time>2014-12-05T09:53:04Z</time>
      </trkpt>
      <trkpt lat="45.49522" lon="6.61281">
        <ele>1971.32</ele>
        <time>2014-12-05T09:53:15Z</time>
      </trkpt>
      <trkpt lat="45.49514" lon="6.61263">
        <ele>1973.72</ele>
        <time>2014-12-05T09:53:30Z</time>
      </trkpt>
      <trkpt lat="45.49505" lon="6.61246">
        <ele>1975.65</ele>
        <time>2014-12-05T09:53:44Z</time>
      </trkpt>
      <trkpt lat="45.49495" lon="6.61239">
        <ele>1977.09</ele>
        <time>2014-12-05T09:53:55Z</time>
      </trkpt>
      <trkpt lat="45.4948" lon="6.61236">
        <ele>1978.53</ele>
        <time>2014-12-05T09:54:09Z</time>
      </trkpt>
      <trkpt lat="45.49467" lon="6.61233">
        <ele>1980.45</ele>
        <time>2014-12-05T09:54:23Z</time>
      </trkpt>
      <trkpt lat="45.49452" lon="6.61228">
        <ele>1981.9</ele>
        <time>2014-12-05T09:54:36Z</time>
      </trkpt>
      <trkpt lat="45.49437" lon="6.6122">
        <ele>1983.34</ele>
        <time>2014-12-05T09:54:50Z</time>
      </trkpt>
      <trkpt lat="45.49437" lon="6.61219">
        <ele>1983.34</ele>
        <time>2014-12-05T09:54:51Z</time>
      </trkpt>
      <trkpt lat="45.49434" lon="6.61213">
        <ele>1984.3</ele>
        <time>2014-12-05T09:54:56Z</time>
      </trkpt>
      <trkpt lat="45.49431" lon="6.61205">
        <ele>1984.3</ele>
        <time>2014-12-05T09:55:01Z</time>
      </trkpt>
      <trkpt lat="45.49419" lon="6.61181">
        <ele>1984.78</ele>
        <time>2014-12-05T09:55:17Z</time>
      </trkpt>
      <trkpt lat="45.49407" lon="6.61164">
        <ele>1986.22</ele>
        <time>2014-12-05T09:55:32Z</time>
      </trkpt>
      <trkpt lat="45.49393" lon="6.61153">
        <ele>1987.66</ele>
        <time>2014-12-05T09:55:47Z</time>
      </trkpt>
      <trkpt lat="45.49392" lon="6.61153">
        <ele>1987.66</ele>
        <time>2014-12-05T09:55:48Z</time>
      </trkpt>
      <trkpt lat="45.49375" lon="6.61152">
        <ele>1989.1</ele>
        <time>2014-12-05T09:56:02Z</time>
      </trkpt>
      <trkpt lat="45.49362" lon="6.61149">
        <ele>1991.03</ele>
        <time>2014-12-05T09:56:16Z</time>
      </trkpt>
      <trkpt lat="45.49344" lon="6.61148">
        <ele>1992.95</ele>
        <time>2014-12-05T09:56:33Z</time>
      </trkpt>
      <trkpt lat="45.49329" lon="6.61145">
        <ele>1994.87</ele>
        <time>2014-12-05T09:56:48Z</time>
      </trkpt>
      <trkpt lat="45.49315" lon="6.61147">
        <ele>1996.8</ele>
        <time>2014-12-05T09:57:02Z</time>
      </trkpt>
      <trkpt lat="45.49313" lon="6.61144">
        <ele>1996.8</ele>
        <time>2014-12-05T09:57:05Z</time>
      </trkpt>
      <trkpt lat="45.493" lon="6.61126">
        <ele>1998.72</ele>
        <time>2014-12-05T09:57:21Z</time>
      </trkpt>
      <trkpt lat="45.49288" lon="6.61107">
        <ele>2000.64</ele>
        <time>2014-12-05T09:57:37Z</time>
      </trkpt>
      <trkpt lat="45.49275" lon="6.6109">
        <ele>2001.6</ele>
        <time>2014-12-05T09:57:52Z</time>
      </trkpt>
      <trkpt lat="45.49273" lon="6.61086">
        <ele>2002.08</ele>
        <time>2014-12-05T09:57:55Z</time>
      </trkpt>
      <trkpt lat="45.49271" lon="6.61082">
        <ele>2002.08</ele>
        <time>2014-12-05T09:58:04Z</time>
      </trkpt>
      <trkpt lat="45.49266" lon="6.61075">
        <ele>2002.56</ele>
        <time>2014-12-05T09:58:11Z</time>
      </trkpt>
      <trkpt lat="45.49262" lon="6.61068">
        <ele>2003.04</ele>
        <time>2014-12-05T09:58:17Z</time>
      </trkpt>
      <trkpt lat="45.49247" lon="6.61051">
        <ele>2004.97</ele>
        <time>2014-12-05T09:58:34Z</time>
      </trkpt>
      <trkpt lat="45.49232" lon="6.61033">
        <ele>2006.89</ele>
        <time>2014-12-05T09:58:50Z</time>
      </trkpt>
      <trkpt lat="45.49219" lon="6.61017">
        <ele>2007.85</ele>
        <time>2014-12-05T09:59:04Z</time>
      </trkpt>
      <trkpt lat="45.49206" lon="6.61001">
        <ele>2009.29</ele>
        <time>2014-12-05T09:59:19Z</time>
      </trkpt>
      <trkpt lat="45.49192" lon="6.6098">
        <ele>2011.22</ele>
        <time>2014-12-05T09:59:36Z</time>
      </trkpt>
      <trkpt lat="45.49187" lon="6.60974">
        <ele>2011.7</ele>
        <time>2014-12-05T09:59:42Z</time>
      </trkpt>
      <trkpt lat="45.49174" lon="6.60955">
        <ele>2013.62</ele>
        <time>2014-12-05T09:59:58Z</time>
      </trkpt>
      <trkpt lat="45.49161" lon="6.60941">
        <ele>2015.06</ele>
        <time>2014-12-05T10:00:13Z</time>
      </trkpt>
      <trkpt lat="45.49158" lon="6.60938">
        <ele>2015.54</ele>
        <time>2014-12-05T10:00:18Z</time>
      </trkpt>
      <trkpt lat="45.49157" lon="6.60936">
        <ele>2015.54</ele>
        <time>2014-12-05T10:00:20Z</time>
      </trkpt>
      <trkpt lat="45.49156" lon="6.6091">
        <ele>2017.46</ele>
        <time>2014-12-05T10:00:36Z</time>
      </trkpt>
      <trkpt lat="45.49157" lon="6.60907">
        <ele>2017.46</ele>
        <time>2014-12-05T10:00:39Z</time>
      </trkpt>
      <trkpt lat="45.49157" lon="6.60903">
        <ele>2017.94</ele>
        <time>2014-12-05T10:00:41Z</time>
      </trkpt>
      <trkpt lat="45.49159" lon="6.60882">
        <ele>2019.87</ele>
        <time>2014-12-05T10:00:55Z</time>
      </trkpt>
      <trkpt lat="45.49158" lon="6.60861">
        <ele>2021.31</ele>
        <time>2014-12-05T10:01:08Z</time>
      </trkpt>
      <trkpt lat="45.49156" lon="6.60836">
        <ele>2022.75</ele>
        <time>2014-12-05T10:01:24Z</time>
      </trkpt>
      <trkpt lat="45.49153" lon="6.60817">
        <ele>2024.19</ele>
        <time>2014-12-05T10:01:39Z</time>
      </trkpt>
      <trkpt lat="45.49153" lon="6.60806">
        <ele>2024.67</ele>
        <time>2014-12-05T10:01:50Z</time>
      </trkpt>
      <trkpt lat="45.49151" lon="6.60787">
        <ele>2026.12</ele>
        <time>2014-12-05T10:02:03Z</time>
      </trkpt>
      <trkpt lat="45.49153" lon="6.60779">
        <ele>2027.08</ele>
        <time>2014-12-05T10:02:15Z</time>
      </trkpt>
      <trkpt lat="45.49153" lon="6.60778">
        <ele>2027.08</ele>
        <time>2014-12-05T10:02:29Z</time>
      </trkpt>
      <trkpt lat="45.49153" lon="6.60778">
        <ele>2027.08</ele>
        <time>2014-12-05T10:02:45Z</time>
      </trkpt>
      <trkpt lat="45.49154" lon="6.60777">
        <ele>2027.08</ele>
        <time>2014-12-05T10:03:08Z</time>
      </trkpt>
      <trkpt lat="45.49154" lon="6.60778">
        <ele>2027.08</ele>
        <time>2014-12-05T10:03:22Z</time>
      </trkpt>
      <trkpt lat="45.49151" lon="6.60759">
        <ele>2028.52</ele>
        <time>2014-12-05T10:03:32Z</time>
      </trkpt>
      <trkpt lat="45.49149" lon="6.60749">
        <ele>2030.44</ele>
        <time>2014-12-05T10:03:41Z</time>
      </trkpt>
      <trkpt lat="45.49145" lon="6.6075">
        <ele>2032.36</ele>
        <time>2014-12-05T10:03:54Z</time>
      </trkpt>
      <trkpt lat="45.49144" lon="6.60753">
        <ele>2032.84</ele>
        <time>2014-12-05T10:04:06Z</time>
      </trkpt>
      <trkpt lat="45.4914" lon="6.60755">
        <ele>2033.81</ele>
        <time>2014-12-05T10:04:22Z</time>
      </trkpt>
      <trkpt lat="45.49131" lon="6.60752">
        <ele>2036.69</ele>
        <time>2014-12-05T10:04:35Z</time>
      </trkpt>
      <trkpt lat="45.49125" lon="6.60753">
        <ele>2039.57</ele>
        <time>2014-12-05T10:04:48Z</time>
      </trkpt>
      <trkpt lat="45.49118" lon="6.60753">
        <ele>2042.46</ele>
        <time>2014-12-05T10:05:00Z</time>
      </trkpt>
      <trkpt lat="45.49112" lon="6.60751">
        <ele>2044.86</ele>
        <time>2014-12-05T10:05:15Z</time>
      </trkpt>
      <trkpt lat="45.49108" lon="6.60751">
        <ele>2045.82</ele>
        <time>2014-12-05T10:05:21Z</time>
      </trkpt>
      <trkpt lat="45.491" lon="6.60746">
        <ele>2048.71</ele>
        <time>2014-12-05T10:05:34Z</time>
      </trkpt>
      <trkpt lat="45.49097" lon="6.60746">
        <ele>2049.19</ele>
        <time>2014-12-05T10:05:38Z</time>
      </trkpt>
      <trkpt lat="45.49093" lon="6.6075">
        <ele>2050.15</ele>
        <time>2014-12-05T10:05:43Z</time>
      </trkpt>
      <trkpt lat="45.4909" lon="6.60752">
        <ele>2050.15</ele>
        <time>2014-12-05T10:05:47Z</time>
      </trkpt>
      <trkpt lat="45.49087" lon="6.60753">
        <ele>2050.63</ele>
        <time>2014-12-05T10:05:59Z</time>
      </trkpt>
      <trkpt lat="45.49088" lon="6.60753">
        <ele>2050.63</ele>
        <time>2014-12-05T10:06:10Z</time>
      </trkpt>
      <trkpt lat="45.49087" lon="6.60753">
        <ele>2050.63</ele>
        <time>2014-12-05T10:06:31Z</time>
      </trkpt>
      <trkpt lat="45.49088" lon="6.60755">
        <ele>2050.63</ele>
        <time>2014-12-05T10:06:37Z</time>
      </trkpt>
      <trkpt lat="45.49088" lon="6.60753">
        <ele>2050.63</ele>
        <time>2014-12-05T10:06:53Z</time>
      </trkpt>
      <trkpt lat="45.49089" lon="6.60753">
        <ele>2050.63</ele>
        <time>2014-12-05T10:07:04Z</time>
      </trkpt>
      <trkpt lat="45.49091" lon="6.60755">
        <ele>2050.63</ele>
        <time>2014-12-05T10:07:15Z</time>
      </trkpt>
      <trkpt lat="45.49089" lon="6.60754">
        <ele>2050.63</ele>
        <time>2014-12-05T10:07:33Z</time>
      </trkpt>
      <trkpt lat="45.4909" lon="6.60754">
        <ele>2050.63</ele>
        <time>2014-12-05T10:08:07Z</time>
      </trkpt>
      <trkpt lat="45.49089" lon="6.60754">
        <ele>2050.63</ele>
        <time>2014-12-05T10:08:35Z</time>
      </trkpt>
      <trkpt lat="45.49089" lon="6.60754">
        <ele>2050.63</ele>
        <time>2014-12-05T10:08:50Z</time>
      </trkpt>
      <trkpt lat="45.49089" lon="6.60754">
        <ele>2050.63</ele>
        <time>2014-12-05T10:09:07Z</time>
      </trkpt>
      <trkpt lat="45.49088" lon="6.60755">
        <ele>2050.63</ele>
        <time>2014-12-05T10:09:27Z</time>
      </trkpt>
      <trkpt lat="45.49085" lon="6.60756">
        <ele>2051.59</ele>
        <time>2014-12-05T10:09:37Z</time>
      </trkpt>
      <trkpt lat="45.49078" lon="6.60757">
        <ele>2052.07</ele>
        <time>2014-12-05T10:09:45Z</time>
      </trkpt>
      <trkpt lat="45.49072" lon="6.60755">
        <ele>2053.03</ele>
        <time>2014-12-05T10:09:51Z</time>
      </trkpt>
      <trkpt lat="45.4906" lon="6.60763">
        <ele>2055.44</ele>
        <time>2014-12-05T10:10:04Z</time>
      </trkpt>
      <trkpt lat="45.49052" lon="6.60757">
        <ele>2057.84</ele>
        <time>2014-12-05T10:10:17Z</time>
      </trkpt>
      <trkpt lat="45.49051" lon="6.60763">
        <ele>2058.32</ele>
        <time>2014-12-05T10:10:22Z</time>
      </trkpt>
      <trkpt lat="45.49051" lon="6.60768">
        <ele>2058.8</ele>
        <time>2014-12-05T10:10:26Z</time>
      </trkpt>
      <trkpt lat="45.4905" lon="6.60774">
        <ele>2059.76</ele>
        <time>2014-12-05T10:10:39Z</time>
      </trkpt>
      <trkpt lat="45.4905" lon="6.60774">
        <ele>2059.76</ele>
        <time>2014-12-05T10:11:00Z</time>
      </trkpt>
      <trkpt lat="45.49049" lon="6.60773">
        <ele>2060.24</ele>
        <time>2014-12-05T10:11:04Z</time>
      </trkpt>
      <trkpt lat="45.49046" lon="6.60769">
        <ele>2061.2</ele>
        <time>2014-12-05T10:11:13Z</time>
      </trkpt>
      <trkpt lat="45.49043" lon="6.60776">
        <ele>2063.61</ele>
        <time>2014-12-05T10:11:24Z</time>
      </trkpt>
      <trkpt lat="45.49038" lon="6.60781">
        <ele>2065.53</ele>
        <time>2014-12-05T10:11:36Z</time>
      </trkpt>
      <trkpt lat="45.49034" lon="6.60781">
        <ele>2067.93</ele>
        <time>2014-12-05T10:11:46Z</time>
      </trkpt>
      <trkpt lat="45.49032" lon="6.60777">
        <ele>2068.41</ele>
        <time>2014-12-05T10:11:49Z</time>
      </trkpt>
      <trkpt lat="45.49029" lon="6.6077">
        <ele>2069.86</ele>
        <time>2014-12-05T10:11:57Z</time>
      </trkpt>
      <trkpt lat="45.49026" lon="6.6076">
        <ele>2071.78</ele>
        <time>2014-12-05T10:12:11Z</time>
      </trkpt>
      <trkpt lat="45.49021" lon="6.60748">
        <ele>2073.7</ele>
        <time>2014-12-05T10:12:25Z</time>
      </trkpt>
      <trkpt lat="45.49013" lon="6.60739">
        <ele>2076.59</ele>
        <time>2014-12-05T10:12:40Z</time>
      </trkpt>
      <trkpt lat="45.49008" lon="6.60738">
        <ele>2078.99</ele>
        <time>2014-12-05T10:12:53Z</time>
      </trkpt>
      <trkpt lat="45.49002" lon="6.60733">
        <ele>2080.43</ele>
        <time>2014-12-05T10:13:06Z</time>
      </trkpt>
      <trkpt lat="45.48996" lon="6.60732">
        <ele>2082.83</ele>
        <time>2014-12-05T10:13:20Z</time>
      </trkpt>
      <trkpt lat="45.48995" lon="6.60731">
        <ele>2082.83</ele>
        <time>2014-12-05T10:13:21Z</time>
      </trkpt>
      <trkpt lat="45.48986" lon="6.6073">
        <ele>2085.24</ele>
        <time>2014-12-05T10:13:34Z</time>
      </trkpt>
      <trkpt lat="45.4898" lon="6.60732">
        <ele>2087.64</ele>
        <time>2014-12-05T10:13:46Z</time>
      </trkpt>
      <trkpt lat="45.48972" lon="6.60736">
        <ele>2090.04</ele>
        <time>2014-12-05T10:14:00Z</time>
      </trkpt>
      <trkpt lat="45.48971" lon="6.60736">
        <ele>2090.04</ele>
        <time>2014-12-05T10:14:01Z</time>
      </trkpt>
      <trkpt lat="45.48967" lon="6.60741">
        <ele>2091.49</ele>
        <time>2014-12-05T10:14:11Z</time>
      </trkpt>
      <trkpt lat="45.48963" lon="6.6075">
        <ele>2093.89</ele>
        <time>2014-12-05T10:14:24Z</time>
      </trkpt>
      <trkpt lat="45.48956" lon="6.60758">
        <ele>2096.77</ele>
        <time>2014-12-05T10:14:38Z</time>
      </trkpt>
      <trkpt lat="45.48952" lon="6.60766">
        <ele>2098.7</ele>
        <time>2014-12-05T10:14:50Z</time>
      </trkpt>
      <trkpt lat="45.48949" lon="6.60771">
        <ele>2101.1</ele>
        <time>2014-12-05T10:15:02Z</time>
      </trkpt>
      <trkpt lat="45.48948" lon="6.60774">
        <ele>2101.58</ele>
        <time>2014-12-05T10:15:05Z</time>
      </trkpt>
      <trkpt lat="45.48946" lon="6.60786">
        <ele>2103.02</ele>
        <time>2014-12-05T10:15:18Z</time>
      </trkpt>
      <trkpt lat="45.48939" lon="6.60792">
        <ele>2104.94</ele>
        <time>2014-12-05T10:15:30Z</time>
      </trkpt>
      <trkpt lat="45.48934" lon="6.60801">
        <ele>2106.87</ele>
        <time>2014-12-05T10:15:45Z</time>
      </trkpt>
      <trkpt lat="45.48933" lon="6.60805">
        <ele>2108.31</ele>
        <time>2014-12-05T10:15:51Z</time>
      </trkpt>
      <trkpt lat="45.4893" lon="6.6081">
        <ele>2111.19</ele>
        <time>2014-12-05T10:16:05Z</time>
      </trkpt>
      <trkpt lat="45.48925" lon="6.60819">
        <ele>2114.08</ele>
        <time>2014-12-05T10:16:20Z</time>
      </trkpt>
      <trkpt lat="45.48923" lon="6.60822">
        <ele>2114.56</ele>
        <time>2014-12-05T10:16:23Z</time>
      </trkpt>
      <trkpt lat="45.48916" lon="6.6083">
        <ele>2116.48</ele>
        <time>2014-12-05T10:16:38Z</time>
      </trkpt>
      <trkpt lat="45.48909" lon="6.60841">
        <ele>2118.4</ele>
        <time>2014-12-05T10:16:52Z</time>
      </trkpt>
      <trkpt lat="45.48906" lon="6.60843">
        <ele>2119.84</ele>
        <time>2014-12-05T10:16:58Z</time>
      </trkpt>
      <trkpt lat="45.48901" lon="6.60851">
        <ele>2122.25</ele>
        <time>2014-12-05T10:17:11Z</time>
      </trkpt>
      <trkpt lat="45.489" lon="6.60854">
        <ele>2122.73</ele>
        <time>2014-12-05T10:17:14Z</time>
      </trkpt>
      <trkpt lat="45.48897" lon="6.60867">
        <ele>2124.65</ele>
        <time>2014-12-05T10:17:29Z</time>
      </trkpt>
      <trkpt lat="45.48892" lon="6.60879">
        <ele>2126.57</ele>
        <time>2014-12-05T10:17:44Z</time>
      </trkpt>
      <trkpt lat="45.48891" lon="6.60891">
        <ele>2128.02</ele>
        <time>2014-12-05T10:17:56Z</time>
      </trkpt>
      <trkpt lat="45.48887" lon="6.60902">
        <ele>2130.9</ele>
        <time>2014-12-05T10:18:10Z</time>
      </trkpt>
      <trkpt lat="45.48883" lon="6.6091">
        <ele>2131.38</ele>
        <time>2014-12-05T10:18:19Z</time>
      </trkpt>
      <trkpt lat="45.48874" lon="6.60917">
        <ele>2131.38</ele>
        <time>2014-12-05T10:18:32Z</time>
      </trkpt>
      <trkpt lat="45.4887" lon="6.60926">
        <ele>2134.26</ele>
        <time>2014-12-05T10:18:49Z</time>
      </trkpt>
      <trkpt lat="45.48868" lon="6.60937">
        <ele>2136.67</ele>
        <time>2014-12-05T10:19:03Z</time>
      </trkpt>
      <trkpt lat="45.48866" lon="6.60944">
        <ele>2138.59</ele>
        <time>2014-12-05T10:19:17Z</time>
      </trkpt>
      <trkpt lat="45.48863" lon="6.60938">
        <ele>2139.07</ele>
        <time>2014-12-05T10:19:29Z</time>
      </trkpt>
      <trkpt lat="45.48861" lon="6.60948">
        <ele>2137.63</ele>
        <time>2014-12-05T10:19:43Z</time>
      </trkpt>
      <trkpt lat="45.48861" lon="6.6095">
        <ele>2137.15</ele>
        <time>2014-12-05T10:19:45Z</time>
      </trkpt>
      <trkpt lat="45.48859" lon="6.60955">
        <ele>2136.19</ele>
        <time>2014-12-05T10:19:48Z</time>
      </trkpt>
      <trkpt lat="45.48857" lon="6.60961">
        <ele>2136.19</ele>
        <time>2014-12-05T10:19:52Z</time>
      </trkpt>
      <trkpt lat="45.4885" lon="6.60976">
        <ele>2135.71</ele>
        <time>2014-12-05T10:20:03Z</time>
      </trkpt>
      <trkpt lat="45.4884" lon="6.60987">
        <ele>2137.15</ele>
        <time>2014-12-05T10:20:17Z</time>
      </trkpt>
      <trkpt lat="45.48838" lon="6.6099">
        <ele>2137.63</ele>
        <time>2014-12-05T10:20:20Z</time>
      </trkpt>
      <trkpt lat="45.48829" lon="6.60995">
        <ele>2139.55</ele>
        <time>2014-12-05T10:20:33Z</time>
      </trkpt>
      <trkpt lat="45.4882" lon="6.60998">
        <ele>2140.51</ele>
        <time>2014-12-05T10:20:43Z</time>
      </trkpt>
      <trkpt lat="45.48809" lon="6.61">
        <ele>2142.92</ele>
        <time>2014-12-05T10:20:58Z</time>
      </trkpt>
      <trkpt lat="45.48798" lon="6.61004">
        <ele>2145.8</ele>
        <time>2014-12-05T10:21:14Z</time>
      </trkpt>
      <trkpt lat="45.48791" lon="6.61008">
        <ele>2147.24</ele>
        <time>2014-12-05T10:21:27Z</time>
      </trkpt>
      <trkpt lat="45.48786" lon="6.6101">
        <ele>2149.65</ele>
        <time>2014-12-05T10:21:40Z</time>
      </trkpt>
      <trkpt lat="45.48777" lon="6.61012">
        <ele>2151.09</ele>
        <time>2014-12-05T10:21:55Z</time>
      </trkpt>
      <trkpt lat="45.48771" lon="6.61015">
        <ele>2152.05</ele>
        <time>2014-12-05T10:22:06Z</time>
      </trkpt>
      <trkpt lat="45.48764" lon="6.61017">
        <ele>2154.45</ele>
        <time>2014-12-05T10:22:19Z</time>
      </trkpt>
      <trkpt lat="45.48755" lon="6.6102">
        <ele>2155.89</ele>
        <time>2014-12-05T10:22:32Z</time>
      </trkpt>
      <trkpt lat="45.48752" lon="6.61023">
        <ele>2157.82</ele>
        <time>2014-12-05T10:22:44Z</time>
      </trkpt>
      <trkpt lat="45.48752" lon="6.61024">
        <ele>2158.3</ele>
        <time>2014-12-05T10:22:45Z</time>
      </trkpt>
      <trkpt lat="45.48745" lon="6.61029">
        <ele>2160.22</ele>
        <time>2014-12-05T10:22:57Z</time>
      </trkpt>
      <trkpt lat="45.4874" lon="6.61031">
        <ele>2162.14</ele>
        <time>2014-12-05T10:23:07Z</time>
      </trkpt>
      <trkpt lat="45.48732" lon="6.61035">
        <ele>2164.06</ele>
        <time>2014-12-05T10:23:22Z</time>
      </trkpt>
      <trkpt lat="45.48724" lon="6.61039">
        <ele>2165.99</ele>
        <time>2014-12-05T10:23:35Z</time>
      </trkpt>
      <trkpt lat="45.48718" lon="6.61046">
        <ele>2168.39</ele>
        <time>2014-12-05T10:23:48Z</time>
      </trkpt>
      <trkpt lat="45.48711" lon="6.61053">
        <ele>2169.83</ele>
        <time>2014-12-05T10:24:02Z</time>
      </trkpt>
      <trkpt lat="45.48705" lon="6.61061">
        <ele>2171.76</ele>
        <time>2014-12-05T10:24:15Z</time>
      </trkpt>
      <trkpt lat="45.48707" lon="6.61068">
        <ele>2174.64</ele>
        <time>2014-12-05T10:24:28Z</time>
      </trkpt>
      <trkpt lat="45.48711" lon="6.61071">
        <ele>2177.52</ele>
        <time>2014-12-05T10:24:41Z</time>
      </trkpt>
      <trkpt lat="45.48711" lon="6.61078">
        <ele>2179.93</ele>
        <time>2014-12-05T10:24:56Z</time>
      </trkpt>
      <trkpt lat="45.48711" lon="6.6108">
        <ele>2180.41</ele>
        <time>2014-12-05T10:25:09Z</time>
      </trkpt>
      <trkpt lat="45.48712" lon="6.6108">
        <ele>2180.41</ele>
        <time>2014-12-05T10:25:29Z</time>
      </trkpt>
      <trkpt lat="45.4871" lon="6.6108">
        <ele>2180.41</ele>
        <time>2014-12-05T10:25:52Z</time>
      </trkpt>
      <trkpt lat="45.48711" lon="6.6108">
        <ele>2180.41</ele>
        <time>2014-12-05T10:26:09Z</time>
      </trkpt>
      <trkpt lat="45.4871" lon="6.61081">
        <ele>2180.89</ele>
        <time>2014-12-05T10:26:36Z</time>
      </trkpt>
      <trkpt lat="45.48711" lon="6.61081">
        <ele>2180.41</ele>
        <time>2014-12-05T10:26:47Z</time>
      </trkpt>
      <trkpt lat="45.48711" lon="6.61081">
        <ele>2180.89</ele>
        <time>2014-12-05T10:27:06Z</time>
      </trkpt>
      <trkpt lat="45.48711" lon="6.61086">
        <ele>2181.85</ele>
        <time>2014-12-05T10:27:28Z</time>
      </trkpt>
      <trkpt lat="45.48711" lon="6.61093">
        <ele>2184.73</ele>
        <time>2014-12-05T10:27:39Z</time>
      </trkpt>
      <trkpt lat="45.48714" lon="6.61102">
        <ele>2187.14</ele>
        <time>2014-12-05T10:27:53Z</time>
      </trkpt>
      <trkpt lat="45.48717" lon="6.61111">
        <ele>2189.54</ele>
        <time>2014-12-05T10:28:06Z</time>
      </trkpt>
      <trkpt lat="45.48719" lon="6.61114">
        <ele>2190.02</ele>
        <time>2014-12-05T10:28:11Z</time>
      </trkpt>
      <trkpt lat="45.48722" lon="6.6112">
        <ele>2192.9</ele>
        <time>2014-12-05T10:28:23Z</time>
      </trkpt>
      <trkpt lat="45.48728" lon="6.61129">
        <ele>2195.31</ele>
        <time>2014-12-05T10:28:37Z</time>
      </trkpt>
      <trkpt lat="45.48728" lon="6.61137">
        <ele>2197.71</ele>
        <time>2014-12-05T10:28:52Z</time>
      </trkpt>
      <trkpt lat="45.4873" lon="6.61147">
        <ele>2200.11</ele>
        <time>2014-12-05T10:29:05Z</time>
      </trkpt>
      <trkpt lat="45.48734" lon="6.61154">
        <ele>2202.04</ele>
        <time>2014-12-05T10:29:17Z</time>
      </trkpt>
      <trkpt lat="45.48734" lon="6.61163">
        <ele>2204.92</ele>
        <time>2014-12-05T10:29:33Z</time>
      </trkpt>
      <trkpt lat="45.48729" lon="6.61174">
        <ele>2207.81</ele>
        <time>2014-12-05T10:29:49Z</time>
      </trkpt>
      <trkpt lat="45.48729" lon="6.61185">
        <ele>2210.69</ele>
        <time>2014-12-05T10:30:04Z</time>
      </trkpt>
      <trkpt lat="45.48726" lon="6.61199">
        <ele>2212.61</ele>
        <time>2014-12-05T10:30:19Z</time>
      </trkpt>
      <trkpt lat="45.48724" lon="6.61204">
        <ele>2213.57</ele>
        <time>2014-12-05T10:30:26Z</time>
      </trkpt>
      <trkpt lat="45.48721" lon="6.61216">
        <ele>2215.01</ele>
        <time>2014-12-05T10:30:37Z</time>
      </trkpt>
      <trkpt lat="45.48724" lon="6.61231">
        <ele>2216.94</ele>
        <time>2014-12-05T10:30:53Z</time>
      </trkpt>
      <trkpt lat="45.48724" lon="6.61243">
        <ele>2217.9</ele>
        <time>2014-12-05T10:31:06Z</time>
      </trkpt>
      <trkpt lat="45.48726" lon="6.61256">
        <ele>2218.86</ele>
        <time>2014-12-05T10:31:18Z</time>
      </trkpt>
      <trkpt lat="45.48727" lon="6.61267">
        <ele>2219.82</ele>
        <time>2014-12-05T10:31:26Z</time>
      </trkpt>
      <trkpt lat="45.4873" lon="6.61287">
        <ele>2219.82</ele>
        <time>2014-12-05T10:31:40Z</time>
      </trkpt>
      <trkpt lat="45.48726" lon="6.61296">
        <ele>2219.82</ele>
        <time>2014-12-05T10:31:47Z</time>
      </trkpt>
      <trkpt lat="45.48724" lon="6.61307">
        <ele>2221.74</ele>
        <time>2014-12-05T10:31:59Z</time>
      </trkpt>
      <trkpt lat="45.48724" lon="6.61311">
        <ele>2222.22</ele>
        <time>2014-12-05T10:32:02Z</time>
      </trkpt>
      <trkpt lat="45.48724" lon="6.61315">
        <ele>2222.22</ele>
        <time>2014-12-05T10:32:05Z</time>
      </trkpt>
      <trkpt lat="45.48725" lon="6.61318">
        <ele>2222.22</ele>
        <time>2014-12-05T10:32:07Z</time>
      </trkpt>
      <trkpt lat="45.48724" lon="6.61322">
        <ele>2222.71</ele>
        <time>2014-12-05T10:32:10Z</time>
      </trkpt>
      <trkpt lat="45.48721" lon="6.61327">
        <ele>2222.71</ele>
        <time>2014-12-05T10:32:14Z</time>
      </trkpt>
      <trkpt lat="45.48717" lon="6.61333">
        <ele>2222.71</ele>
        <time>2014-12-05T10:32:20Z</time>
      </trkpt>
      <trkpt lat="45.48714" lon="6.61339">
        <ele>2222.71</ele>
        <time>2014-12-05T10:32:28Z</time>
      </trkpt>
      <trkpt lat="45.48706" lon="6.61357">
        <ele>2222.71</ele>
        <time>2014-12-05T10:32:43Z</time>
      </trkpt>
      <trkpt lat="45.487" lon="6.61369">
        <ele>2223.67</ele>
        <time>2014-12-05T10:32:55Z</time>
      </trkpt>
      <trkpt lat="45.48692" lon="6.61375">
        <ele>2225.59</ele>
        <time>2014-12-05T10:33:09Z</time>
      </trkpt>
      <trkpt lat="45.48684" lon="6.61384">
        <ele>2227.99</ele>
        <time>2014-12-05T10:33:24Z</time>
      </trkpt>
      <trkpt lat="45.48678" lon="6.61389">
        <ele>2230.4</ele>
        <time>2014-12-05T10:33:40Z</time>
      </trkpt>
      <trkpt lat="45.48676" lon="6.61391">
        <ele>2231.36</ele>
        <time>2014-12-05T10:33:45Z</time>
      </trkpt>
      <trkpt lat="45.48672" lon="6.61397">
        <ele>2234.24</ele>
        <time>2014-12-05T10:33:59Z</time>
      </trkpt>
      <trkpt lat="45.48666" lon="6.614">
        <ele>2236.16</ele>
        <time>2014-12-05T10:34:13Z</time>
      </trkpt>
      <trkpt lat="45.48664" lon="6.61403">
        <ele>2238.09</ele>
        <time>2014-12-05T10:34:24Z</time>
      </trkpt>
      <trkpt lat="45.48663" lon="6.61405">
        <ele>2239.53</ele>
        <time>2014-12-05T10:34:35Z</time>
      </trkpt>
      <trkpt lat="45.48661" lon="6.61409">
        <ele>2241.45</ele>
        <time>2014-12-05T10:34:47Z</time>
      </trkpt>
      <trkpt lat="45.48659" lon="6.61411">
        <ele>2243.37</ele>
        <time>2014-12-05T10:34:56Z</time>
      </trkpt>
      <trkpt lat="45.48658" lon="6.61418">
        <ele>2245.3</ele>
        <time>2014-12-05T10:35:08Z</time>
      </trkpt>
      <trkpt lat="45.48656" lon="6.61425">
        <ele>2247.7</ele>
        <time>2014-12-05T10:35:22Z</time>
      </trkpt>
      <trkpt lat="45.48658" lon="6.61433">
        <ele>2250.1</ele>
        <time>2014-12-05T10:35:36Z</time>
      </trkpt>
      <trkpt lat="45.48657" lon="6.61442">
        <ele>2252.03</ele>
        <time>2014-12-05T10:35:52Z</time>
      </trkpt>
      <trkpt lat="45.48656" lon="6.61454">
        <ele>2252.51</ele>
        <time>2014-12-05T10:36:03Z</time>
      </trkpt>
      <trkpt lat="45.48657" lon="6.61471">
        <ele>2252.51</ele>
        <time>2014-12-05T10:36:17Z</time>
      </trkpt>
      <trkpt lat="45.48657" lon="6.61474">
        <ele>2252.51</ele>
        <time>2014-12-05T10:36:20Z</time>
      </trkpt>
      <trkpt lat="45.48652" lon="6.61483">
        <ele>2254.43</ele>
        <time>2014-12-05T10:36:35Z</time>
      </trkpt>
      <trkpt lat="45.48647" lon="6.61485">
        <ele>2254.91</ele>
        <time>2014-12-05T10:36:44Z</time>
      </trkpt>
      <trkpt lat="45.4864" lon="6.61491">
        <ele>2256.35</ele>
        <time>2014-12-05T10:36:58Z</time>
      </trkpt>
      <trkpt lat="45.48634" lon="6.61499">
        <ele>2257.79</ele>
        <time>2014-12-05T10:37:14Z</time>
      </trkpt>
      <trkpt lat="45.48633" lon="6.61501">
        <ele>2258.27</ele>
        <time>2014-12-05T10:37:31Z</time>
      </trkpt>
      <trkpt lat="45.48632" lon="6.615">
        <ele>2258.27</ele>
        <time>2014-12-05T10:37:54Z</time>
      </trkpt>
      <trkpt lat="45.48632" lon="6.61501">
        <ele>2258.27</ele>
        <time>2014-12-05T10:38:15Z</time>
      </trkpt>
      <trkpt lat="45.48633" lon="6.61501">
        <ele>2258.27</ele>
        <time>2014-12-05T10:38:43Z</time>
      </trkpt>
      <trkpt lat="45.48632" lon="6.61508">
        <ele>2259.72</ele>
        <time>2014-12-05T10:39:01Z</time>
      </trkpt>
      <trkpt lat="45.48638" lon="6.61518">
        <ele>2261.64</ele>
        <time>2014-12-05T10:39:19Z</time>
      </trkpt>
      <trkpt lat="45.4864" lon="6.61521">
        <ele>2262.6</ele>
        <time>2014-12-05T10:39:25Z</time>
      </trkpt>
      <trkpt lat="45.48643" lon="6.61531">
        <ele>2265.48</ele>
        <time>2014-12-05T10:39:38Z</time>
      </trkpt>
      <trkpt lat="45.48644" lon="6.61536">
        <ele>2266.93</ele>
        <time>2014-12-05T10:39:49Z</time>
      </trkpt>
      <trkpt lat="45.48646" lon="6.6154">
        <ele>2269.33</ele>
        <time>2014-12-05T10:40:00Z</time>
      </trkpt>
      <trkpt lat="45.48648" lon="6.6155">
        <ele>2271.73</ele>
        <time>2014-12-05T10:40:19Z</time>
      </trkpt>
      <trkpt lat="45.48648" lon="6.61551">
        <ele>2272.21</ele>
        <time>2014-12-05T10:40:34Z</time>
      </trkpt>
      <trkpt lat="45.48645" lon="6.6156">
        <ele>2272.69</ele>
        <time>2014-12-05T10:40:50Z</time>
      </trkpt>
      <trkpt lat="45.4864" lon="6.61569">
        <ele>2275.58</ele>
        <time>2014-12-05T10:41:07Z</time>
      </trkpt>
      <trkpt lat="45.48637" lon="6.61578">
        <ele>2278.46</ele>
        <time>2014-12-05T10:41:23Z</time>
      </trkpt>
      <trkpt lat="45.48634" lon="6.61584">
        <ele>2280.87</ele>
        <time>2014-12-05T10:41:35Z</time>
      </trkpt>
      <trkpt lat="45.4863" lon="6.61598">
        <ele>2282.79</ele>
        <time>2014-12-05T10:41:50Z</time>
      </trkpt>
      <trkpt lat="45.48628" lon="6.61607">
        <ele>2285.19</ele>
        <time>2014-12-05T10:42:04Z</time>
      </trkpt>
      <trkpt lat="45.48625" lon="6.6162">
        <ele>2287.59</ele>
        <time>2014-12-05T10:42:22Z</time>
      </trkpt>
      <trkpt lat="45.4863" lon="6.61624">
        <ele>2290.96</ele>
        <time>2014-12-05T10:42:36Z</time>
      </trkpt>
      <trkpt lat="45.48637" lon="6.61626">
        <ele>2293.36</ele>
        <time>2014-12-05T10:42:50Z</time>
      </trkpt>
      <trkpt lat="45.48642" lon="6.61631">
        <ele>2296.73</ele>
        <time>2014-12-05T10:43:05Z</time>
      </trkpt>
      <trkpt lat="45.48639" lon="6.61641">
        <ele>2300.09</ele>
        <time>2014-12-05T10:43:20Z</time>
      </trkpt>
      <trkpt lat="45.48641" lon="6.61648">
        <ele>2300.57</ele>
        <time>2014-12-05T10:43:28Z</time>
      </trkpt>
      <trkpt lat="45.48638" lon="6.61656">
        <ele>2302.49</ele>
        <time>2014-12-05T10:43:42Z</time>
      </trkpt>
      <trkpt lat="45.48634" lon="6.61668">
        <ele>2305.38</ele>
        <time>2014-12-05T10:43:58Z</time>
      </trkpt>
      <trkpt lat="45.48637" lon="6.61672">
        <ele>2307.3</ele>
        <time>2014-12-05T10:44:12Z</time>
      </trkpt>
      <trkpt lat="45.48636" lon="6.61676">
        <ele>2308.74</ele>
        <time>2014-12-05T10:44:24Z</time>
      </trkpt>
      <trkpt lat="45.48634" lon="6.61682">
        <ele>2311.15</ele>
        <time>2014-12-05T10:44:36Z</time>
      </trkpt>
      <trkpt lat="45.4863" lon="6.61686">
        <ele>2313.55</ele>
        <time>2014-12-05T10:44:51Z</time>
      </trkpt>
      <trkpt lat="45.48624" lon="6.6169">
        <ele>2314.03</ele>
        <time>2014-12-05T10:45:05Z</time>
      </trkpt>
      <trkpt lat="45.48619" lon="6.61694">
        <ele>2316.43</ele>
        <time>2014-12-05T10:45:19Z</time>
      </trkpt>
      <trkpt lat="45.48618" lon="6.61698">
        <ele>2317.88</ele>
        <time>2014-12-05T10:45:33Z</time>
      </trkpt>
      <trkpt lat="45.48623" lon="6.61701">
        <ele>2321.24</ele>
        <time>2014-12-05T10:45:45Z</time>
      </trkpt>
      <trkpt lat="45.48628" lon="6.61705">
        <ele>2323.16</ele>
        <time>2014-12-05T10:45:57Z</time>
      </trkpt>
      <trkpt lat="45.48631" lon="6.6171">
        <ele>2326.53</ele>
        <time>2014-12-05T10:46:12Z</time>
      </trkpt>
      <trkpt lat="45.48629" lon="6.61716">
        <ele>2327.97</ele>
        <time>2014-12-05T10:46:25Z</time>
      </trkpt>
      <trkpt lat="45.48629" lon="6.61725">
        <ele>2330.85</ele>
        <time>2014-12-05T10:46:38Z</time>
      </trkpt>
      <trkpt lat="45.48631" lon="6.61725">
        <ele>2332.78</ele>
        <time>2014-12-05T10:46:50Z</time>
      </trkpt>
      <trkpt lat="45.48635" lon="6.61729">
        <ele>2334.7</ele>
        <time>2014-12-05T10:47:06Z</time>
      </trkpt>
      <trkpt lat="45.48634" lon="6.61737">
        <ele>2337.58</ele>
        <time>2014-12-05T10:47:20Z</time>
      </trkpt>
      <trkpt lat="45.48633" lon="6.61739">
        <ele>2338.06</ele>
        <time>2014-12-05T10:47:23Z</time>
      </trkpt>
      <trkpt lat="45.48634" lon="6.61744">
        <ele>2339.99</ele>
        <time>2014-12-05T10:47:36Z</time>
      </trkpt>
      <trkpt lat="45.48638" lon="6.61747">
        <ele>2341.91</ele>
        <time>2014-12-05T10:47:48Z</time>
      </trkpt>
      <trkpt lat="45.48647" lon="6.61749">
        <ele>2344.79</ele>
        <time>2014-12-05T10:48:07Z</time>
      </trkpt>
      <trkpt lat="45.48651" lon="6.61752">
        <ele>2346.23</ele>
        <time>2014-12-05T10:48:21Z</time>
      </trkpt>
      <trkpt lat="45.48655" lon="6.61756">
        <ele>2348.64</ele>
        <time>2014-12-05T10:48:34Z</time>
      </trkpt>
      <trkpt lat="45.48661" lon="6.61759">
        <ele>2351.04</ele>
        <time>2014-12-05T10:48:47Z</time>
      </trkpt>
      <trkpt lat="45.48665" lon="6.61763">
        <ele>2352.96</ele>
        <time>2014-12-05T10:49:00Z</time>
      </trkpt>
      <trkpt lat="45.48669" lon="6.61768">
        <ele>2355.37</ele>
        <time>2014-12-05T10:49:13Z</time>
      </trkpt>
      <trkpt lat="45.48673" lon="6.61772">
        <ele>2357.29</ele>
        <time>2014-12-05T10:49:28Z</time>
      </trkpt>
      <trkpt lat="45.48678" lon="6.61775">
        <ele>2360.17</ele>
        <time>2014-12-05T10:49:42Z</time>
      </trkpt>
      <trkpt lat="45.48683" lon="6.61778">
        <ele>2362.1</ele>
        <time>2014-12-05T10:49:55Z</time>
      </trkpt>
      <trkpt lat="45.4869" lon="6.61783">
        <ele>2364.5</ele>
        <time>2014-12-05T10:50:11Z</time>
      </trkpt>
      <trkpt lat="45.48694" lon="6.61788">
        <ele>2366.42</ele>
        <time>2014-12-05T10:50:25Z</time>
      </trkpt>
      <trkpt lat="45.48696" lon="6.61793">
        <ele>2368.35</ele>
        <time>2014-12-05T10:50:41Z</time>
      </trkpt>
      <trkpt lat="45.48699" lon="6.61799">
        <ele>2370.27</ele>
        <time>2014-12-05T10:50:54Z</time>
      </trkpt>
      <trkpt lat="45.48699" lon="6.61806">
        <ele>2373.15</ele>
        <time>2014-12-05T10:51:10Z</time>
      </trkpt>
      <trkpt lat="45.48704" lon="6.6181">
        <ele>2374.59</ele>
        <time>2014-12-05T10:51:23Z</time>
      </trkpt>
      <trkpt lat="45.48707" lon="6.61816">
        <ele>2377.48</ele>
        <time>2014-12-05T10:51:37Z</time>
      </trkpt>
      <trkpt lat="45.4871" lon="6.61824">
        <ele>2379.4</ele>
        <time>2014-12-05T10:51:54Z</time>
      </trkpt>
      <trkpt lat="45.4871" lon="6.6183">
        <ele>2381.32</ele>
        <time>2014-12-05T10:52:09Z</time>
      </trkpt>
      <trkpt lat="45.48711" lon="6.61829">
        <ele>2381.8</ele>
        <time>2014-12-05T10:52:34Z</time>
      </trkpt>
      <trkpt lat="45.48712" lon="6.61832">
        <ele>2381.8</ele>
        <time>2014-12-05T10:52:56Z</time>
      </trkpt>
      <trkpt lat="45.48711" lon="6.61832">
        <ele>2382.28</ele>
        <time>2014-12-05T10:53:19Z</time>
      </trkpt>
      <trkpt lat="45.48711" lon="6.61832">
        <ele>2382.28</ele>
        <time>2014-12-05T10:53:35Z</time>
      </trkpt>
      <trkpt lat="45.48711" lon="6.61831">
        <ele>2382.28</ele>
        <time>2014-12-05T10:54:03Z</time>
      </trkpt>
      <trkpt lat="45.4871" lon="6.61841">
        <ele>2383.73</ele>
        <time>2014-12-05T10:54:20Z</time>
      </trkpt>
      <trkpt lat="45.48714" lon="6.61844">
        <ele>2386.13</ele>
        <time>2014-12-05T10:54:33Z</time>
      </trkpt>
      <trkpt lat="45.48717" lon="6.61851">
        <ele>2389.01</ele>
        <time>2014-12-05T10:54:48Z</time>
      </trkpt>
      <trkpt lat="45.48721" lon="6.61859">
        <ele>2391.9</ele>
        <time>2014-12-05T10:55:02Z</time>
      </trkpt>
      <trkpt lat="45.48725" lon="6.61868">
        <ele>2394.78</ele>
        <time>2014-12-05T10:55:19Z</time>
      </trkpt>
      <trkpt lat="45.48729" lon="6.61874">
        <ele>2397.67</ele>
        <time>2014-12-05T10:55:35Z</time>
      </trkpt>
      <trkpt lat="45.48733" lon="6.61882">
        <ele>2400.55</ele>
        <time>2014-12-05T10:55:52Z</time>
      </trkpt>
      <trkpt lat="45.48735" lon="6.61888">
        <ele>2402.95</ele>
        <time>2014-12-05T10:56:04Z</time>
      </trkpt>
      <trkpt lat="45.4874" lon="6.61893">
        <ele>2404.88</ele>
        <time>2014-12-05T10:56:17Z</time>
      </trkpt>
      <trkpt lat="45.48744" lon="6.61901">
        <ele>2407.28</ele>
        <time>2014-12-05T10:56:34Z</time>
      </trkpt>
      <trkpt lat="45.48746" lon="6.61908">
        <ele>2409.2</ele>
        <time>2014-12-05T10:56:48Z</time>
      </trkpt>
      <trkpt lat="45.48749" lon="6.61915">
        <ele>2411.12</ele>
        <time>2014-12-05T10:57:05Z</time>
      </trkpt>
      <trkpt lat="45.48752" lon="6.61923">
        <ele>2414.01</ele>
        <time>2014-12-05T10:57:18Z</time>
      </trkpt>
      <trkpt lat="45.48754" lon="6.6193">
        <ele>2415.93</ele>
        <time>2014-12-05T10:57:30Z</time>
      </trkpt>
      <trkpt lat="45.48758" lon="6.61937">
        <ele>2417.85</ele>
        <time>2014-12-05T10:57:44Z</time>
      </trkpt>
      <trkpt lat="45.48761" lon="6.61945">
        <ele>2421.22</ele>
        <time>2014-12-05T10:58:00Z</time>
      </trkpt>
      <trkpt lat="45.48766" lon="6.61954">
        <ele>2424.1</ele>
        <time>2014-12-05T10:58:17Z</time>
      </trkpt>
      <trkpt lat="45.48767" lon="6.61961">
        <ele>2426.02</ele>
        <time>2014-12-05T10:58:31Z</time>
      </trkpt>
      <trkpt lat="45.48773" lon="6.61971">
        <ele>2428.91</ele>
        <time>2014-12-05T10:58:47Z</time>
      </trkpt>
      <trkpt lat="45.48777" lon="6.61982">
        <ele>2431.79</ele>
        <time>2014-12-05T10:59:03Z</time>
      </trkpt>
      <trkpt lat="45.48783" lon="6.61991">
        <ele>2435.16</ele>
        <time>2014-12-05T10:59:18Z</time>
      </trkpt>
      <trkpt lat="45.4879" lon="6.61998">
        <ele>2436.6</ele>
        <time>2014-12-05T10:59:33Z</time>
      </trkpt>
      <trkpt lat="45.48796" lon="6.62001">
        <ele>2437.08</ele>
        <time>2014-12-05T10:59:47Z</time>
      </trkpt>
      <trkpt lat="45.48801" lon="6.6201">
        <ele>2439</ele>
        <time>2014-12-05T11:00:03Z</time>
      </trkpt>
      <trkpt lat="45.48808" lon="6.62015">
        <ele>2439.48</ele>
        <time>2014-12-05T11:00:19Z</time>
      </trkpt>
      <trkpt lat="45.48812" lon="6.6201">
        <ele>2441.89</ele>
        <time>2014-12-05T11:00:33Z</time>
      </trkpt>
      <trkpt lat="45.48819" lon="6.62015">
        <ele>2444.77</ele>
        <time>2014-12-05T11:00:48Z</time>
      </trkpt>
      <trkpt lat="45.48824" lon="6.62016">
        <ele>2447.65</ele>
        <time>2014-12-05T11:01:03Z</time>
      </trkpt>
      <trkpt lat="45.48826" lon="6.62018">
        <ele>2448.62</ele>
        <time>2014-12-05T11:01:18Z</time>
      </trkpt>
      <trkpt lat="45.48829" lon="6.62023">
        <ele>2448.62</ele>
        <time>2014-12-05T11:01:32Z</time>
      </trkpt>
      <trkpt lat="45.48833" lon="6.62027">
        <ele>2449.58</ele>
        <time>2014-12-05T11:01:47Z</time>
      </trkpt>
      <trkpt lat="45.48832" lon="6.62026">
        <ele>2449.58</ele>
        <time>2014-12-05T11:02:04Z</time>
      </trkpt>
      <trkpt lat="45.48832" lon="6.62028">
        <ele>2449.1</ele>
        <time>2014-12-05T11:02:29Z</time>
      </trkpt>
      <trkpt lat="45.48832" lon="6.62027">
        <ele>2449.1</ele>
        <time>2014-12-05T11:02:46Z</time>
      </trkpt>
      <trkpt lat="45.48833" lon="6.62027">
        <ele>2449.1</ele>
        <time>2014-12-05T11:03:10Z</time>
      </trkpt>
      <trkpt lat="45.48836" lon="6.62027">
        <ele>2449.58</ele>
        <time>2014-12-05T11:03:32Z</time>
      </trkpt>
      <trkpt lat="45.48838" lon="6.62033">
        <ele>2450.06</ele>
        <time>2014-12-05T11:03:54Z</time>
      </trkpt>
      <trkpt lat="45.48847" lon="6.62038">
        <ele>2450.54</ele>
        <time>2014-12-05T11:04:12Z</time>
      </trkpt>
      <trkpt lat="45.48847" lon="6.62041">
        <ele>2450.54</ele>
        <time>2014-12-05T11:04:24Z</time>
      </trkpt>
      <trkpt lat="45.48844" lon="6.62039">
        <ele>2450.06</ele>
        <time>2014-12-05T11:04:48Z</time>
      </trkpt>
      <trkpt lat="45.48849" lon="6.62039">
        <ele>2450.06</ele>
        <time>2014-12-05T11:05:00Z</time>
      </trkpt>
      <trkpt lat="45.4885" lon="6.6204">
        <ele>2449.1</ele>
        <time>2014-12-05T11:05:03Z</time>
      </trkpt>
      <trkpt lat="45.48857" lon="6.62042">
        <ele>2447.65</ele>
        <time>2014-12-05T11:05:14Z</time>
      </trkpt>
      <trkpt lat="45.48858" lon="6.62042">
        <ele>2447.65</ele>
        <time>2014-12-05T11:05:36Z</time>
      </trkpt>
      <trkpt lat="45.48868" lon="6.62048">
        <ele>2447.65</ele>
        <time>2014-12-05T11:05:53Z</time>
      </trkpt>
      <trkpt lat="45.48878" lon="6.62052">
        <ele>2449.1</ele>
        <time>2014-12-05T11:06:08Z</time>
      </trkpt>
      <trkpt lat="45.48881" lon="6.62055">
        <ele>2449.58</ele>
        <time>2014-12-05T11:06:20Z</time>
      </trkpt>
      <trkpt lat="45.48885" lon="6.62057">
        <ele>2448.13</ele>
        <time>2014-12-05T11:06:27Z</time>
      </trkpt>
      <trkpt lat="45.48892" lon="6.62059">
        <ele>2449.1</ele>
        <time>2014-12-05T11:06:41Z</time>
      </trkpt>
      <trkpt lat="45.48893" lon="6.62059">
        <ele>2449.1</ele>
        <time>2014-12-05T11:06:42Z</time>
      </trkpt>
      <trkpt lat="45.48895" lon="6.6206">
        <ele>2449.58</ele>
        <time>2014-12-05T11:06:46Z</time>
      </trkpt>
      <trkpt lat="45.48899" lon="6.62062">
        <ele>2450.06</ele>
        <time>2014-12-05T11:07:00Z</time>
      </trkpt>
      <trkpt lat="45.48902" lon="6.62063">
        <ele>2448.62</ele>
        <time>2014-12-05T11:07:04Z</time>
      </trkpt>
      <trkpt lat="45.4891" lon="6.62068">
        <ele>2447.65</ele>
        <time>2014-12-05T11:07:18Z</time>
      </trkpt>
      <trkpt lat="45.48914" lon="6.62074">
        <ele>2450.54</ele>
        <time>2014-12-05T11:07:31Z</time>
      </trkpt>
      <trkpt lat="45.48914" lon="6.62073">
        <ele>2450.54</ele>
        <time>2014-12-05T11:07:46Z</time>
      </trkpt>
      <trkpt lat="45.48913" lon="6.62072">
        <ele>2450.54</ele>
        <time>2014-12-05T11:08:06Z</time>
      </trkpt>
      <trkpt lat="45.48914" lon="6.6207">
        <ele>2450.54</ele>
        <time>2014-12-05T11:08:31Z</time>
      </trkpt>
      <trkpt lat="45.48913" lon="6.62072">
        <ele>2450.54</ele>
        <time>2014-12-05T11:09:01Z</time>
      </trkpt>
      <trkpt lat="45.48914" lon="6.6208">
        <ele>2450.54</ele>
        <time>2014-12-05T11:09:14Z</time>
      </trkpt>
      <trkpt lat="45.48918" lon="6.62083">
        <ele>2450.54</ele>
        <time>2014-12-05T11:09:27Z</time>
      </trkpt>
      <trkpt lat="45.48919" lon="6.62083">
        <ele>2450.54</ele>
        <time>2014-12-05T11:09:51Z</time>
      </trkpt>
      <trkpt lat="45.48918" lon="6.62085">
        <ele>2450.54</ele>
        <time>2014-12-05T11:10:15Z</time>
      </trkpt>
      <trkpt lat="45.48919" lon="6.62083">
        <ele>2450.54</ele>
        <time>2014-12-05T11:10:34Z</time>
      </trkpt>
      <trkpt lat="45.48918" lon="6.62083">
        <ele>2450.54</ele>
        <time>2014-12-05T11:11:00Z</time>
      </trkpt>
      <trkpt lat="45.48919" lon="6.62084">
        <ele>2450.54</ele>
        <time>2014-12-05T11:11:19Z</time>
      </trkpt>
      <trkpt lat="45.48919" lon="6.62085">
        <ele>2450.54</ele>
        <time>2014-12-05T11:11:39Z</time>
      </trkpt>
      <trkpt lat="45.4892" lon="6.62088">
        <ele>2449.58</ele>
        <time>2014-12-05T11:11:53Z</time>
      </trkpt>
      <trkpt lat="45.48923" lon="6.62089">
        <ele>2448.62</ele>
        <time>2014-12-05T11:12:08Z</time>
      </trkpt>
      <trkpt lat="45.48923" lon="6.62092">
        <ele>2448.62</ele>
        <time>2014-12-05T11:12:23Z</time>
      </trkpt>
      <trkpt lat="45.48928" lon="6.62099">
        <ele>2447.17</ele>
        <time>2014-12-05T11:12:36Z</time>
      </trkpt>
      <trkpt lat="45.48929" lon="6.62109">
        <ele>2444.29</ele>
        <time>2014-12-05T11:12:48Z</time>
      </trkpt>
      <trkpt lat="45.48929" lon="6.62116">
        <ele>2442.85</ele>
        <time>2014-12-05T11:12:54Z</time>
      </trkpt>
      <trkpt lat="45.48936" lon="6.62137">
        <ele>2441.89</ele>
        <time>2014-12-05T11:13:09Z</time>
      </trkpt>
      <trkpt lat="45.48941" lon="6.62157">
        <ele>2441.41</ele>
        <time>2014-12-05T11:13:24Z</time>
      </trkpt>
      <trkpt lat="45.48941" lon="6.6216">
        <ele>2442.85</ele>
        <time>2014-12-05T11:13:26Z</time>
      </trkpt>
      <trkpt lat="45.4895" lon="6.62175">
        <ele>2443.33</ele>
        <time>2014-12-05T11:13:41Z</time>
      </trkpt>
      <trkpt lat="45.48953" lon="6.62183">
        <ele>2444.29</ele>
        <time>2014-12-05T11:13:49Z</time>
      </trkpt>
      <trkpt lat="45.48957" lon="6.62199">
        <ele>2446.21</ele>
        <time>2014-12-05T11:14:04Z</time>
      </trkpt>
      <trkpt lat="45.48962" lon="6.62209">
        <ele>2448.62</ele>
        <time>2014-12-05T11:14:18Z</time>
      </trkpt>
      <trkpt lat="45.48968" lon="6.62226">
        <ele>2449.58</ele>
        <time>2014-12-05T11:14:34Z</time>
      </trkpt>
      <trkpt lat="45.48971" lon="6.62238">
        <ele>2450.54</ele>
        <time>2014-12-05T11:14:49Z</time>
      </trkpt>
      <trkpt lat="45.48973" lon="6.62251">
        <ele>2451.98</ele>
        <time>2014-12-05T11:15:01Z</time>
      </trkpt>
      <trkpt lat="45.48977" lon="6.62261">
        <ele>2454.38</ele>
        <time>2014-12-05T11:15:18Z</time>
      </trkpt>
      <trkpt lat="45.48981" lon="6.62267">
        <ele>2456.31</ele>
        <time>2014-12-05T11:15:32Z</time>
      </trkpt>
      <trkpt lat="45.48986" lon="6.62276">
        <ele>2458.71</ele>
        <time>2014-12-05T11:15:45Z</time>
      </trkpt>
      <trkpt lat="45.48991" lon="6.62294">
        <ele>2459.67</ele>
        <time>2014-12-05T11:16:00Z</time>
      </trkpt>
      <trkpt lat="45.48992" lon="6.62297">
        <ele>2460.15</ele>
        <time>2014-12-05T11:16:15Z</time>
      </trkpt>
      <trkpt lat="45.48992" lon="6.623">
        <ele>2460.15</ele>
        <time>2014-12-05T11:16:20Z</time>
      </trkpt>
      <trkpt lat="45.48995" lon="6.62314">
        <ele>2458.71</ele>
        <time>2014-12-05T11:16:33Z</time>
      </trkpt>
      <trkpt lat="45.48997" lon="6.62321">
        <ele>2460.15</ele>
        <time>2014-12-05T11:16:41Z</time>
      </trkpt>
      <trkpt lat="45.48998" lon="6.62328">
        <ele>2461.59</ele>
        <time>2014-12-05T11:16:50Z</time>
      </trkpt>
      <trkpt lat="45.48999" lon="6.62336">
        <ele>2461.59</ele>
        <time>2014-12-05T11:17:03Z</time>
      </trkpt>
      <trkpt lat="45.49001" lon="6.62349">
        <ele>2463.04</ele>
        <time>2014-12-05T11:17:17Z</time>
      </trkpt>
      <trkpt lat="45.49005" lon="6.62362">
        <ele>2466.4</ele>
        <time>2014-12-05T11:17:32Z</time>
      </trkpt>
      <trkpt lat="45.49011" lon="6.62377">
        <ele>2468.8</ele>
        <time>2014-12-05T11:17:49Z</time>
      </trkpt>
      <trkpt lat="45.49015" lon="6.62393">
        <ele>2471.21</ele>
        <time>2014-12-05T11:18:06Z</time>
      </trkpt>
      <trkpt lat="45.49019" lon="6.62405">
        <ele>2473.13</ele>
        <time>2014-12-05T11:18:22Z</time>
      </trkpt>
      <trkpt lat="45.49021" lon="6.62419">
        <ele>2476.01</ele>
        <time>2014-12-05T11:18:40Z</time>
      </trkpt>
      <trkpt lat="45.49019" lon="6.62431">
        <ele>2477.45</ele>
        <time>2014-12-05T11:18:56Z</time>
      </trkpt>
      <trkpt lat="45.49026" lon="6.62444">
        <ele>2479.38</ele>
        <time>2014-12-05T11:19:13Z</time>
      </trkpt>
      <trkpt lat="45.49029" lon="6.62457">
        <ele>2480.82</ele>
        <time>2014-12-05T11:19:29Z</time>
      </trkpt>
      <trkpt lat="45.49035" lon="6.62471">
        <ele>2483.22</ele>
        <time>2014-12-05T11:19:47Z</time>
      </trkpt>
      <trkpt lat="45.49037" lon="6.62477">
        <ele>2486.59</ele>
        <time>2014-12-05T11:19:59Z</time>
      </trkpt>
      <trkpt lat="45.49042" lon="6.62492">
        <ele>2487.55</ele>
        <time>2014-12-05T11:20:15Z</time>
      </trkpt>
      <trkpt lat="45.49046" lon="6.62502">
        <ele>2489.47</ele>
        <time>2014-12-05T11:20:31Z</time>
      </trkpt>
      <trkpt lat="45.49051" lon="6.62513">
        <ele>2489.95</ele>
        <time>2014-12-05T11:20:43Z</time>
      </trkpt>
      <trkpt lat="45.49057" lon="6.62527">
        <ele>2489.95</ele>
        <time>2014-12-05T11:20:58Z</time>
      </trkpt>
      <trkpt lat="45.49062" lon="6.62537">
        <ele>2490.43</ele>
        <time>2014-12-05T11:21:12Z</time>
      </trkpt>
      <trkpt lat="45.49062" lon="6.62538">
        <ele>2490.43</ele>
        <time>2014-12-05T11:21:28Z</time>
      </trkpt>
      <trkpt lat="45.49061" lon="6.62535">
        <ele>2490.43</ele>
        <time>2014-12-05T11:21:42Z</time>
      </trkpt>
      <trkpt lat="45.49061" lon="6.62536">
        <ele>2490.43</ele>
        <time>2014-12-05T11:22:05Z</time>
      </trkpt>
      <trkpt lat="45.49062" lon="6.62535">
        <ele>2490.43</ele>
        <time>2014-12-05T11:22:30Z</time>
      </trkpt>
      <trkpt lat="45.49062" lon="6.62534">
        <ele>2490.43</ele>
        <time>2014-12-05T11:23:00Z</time>
      </trkpt>
      <trkpt lat="45.49062" lon="6.62535">
        <ele>2490.91</ele>
        <time>2014-12-05T11:23:22Z</time>
      </trkpt>
      <trkpt lat="45.49061" lon="6.62533">
        <ele>2490.91</ele>
        <time>2014-12-05T11:23:41Z</time>
      </trkpt>
      <trkpt lat="45.49059" lon="6.62532">
        <ele>2490.91</ele>
        <time>2014-12-05T11:24:13Z</time>
      </trkpt>
      <trkpt lat="45.4906" lon="6.62534">
        <ele>2490.91</ele>
        <time>2014-12-05T11:24:43Z</time>
      </trkpt>
      <trkpt lat="45.4906" lon="6.62533">
        <ele>2490.43</ele>
        <time>2014-12-05T11:25:22Z</time>
      </trkpt>
      <trkpt lat="45.49061" lon="6.62533">
        <ele>2490.43</ele>
        <time>2014-12-05T11:25:58Z</time>
      </trkpt>
      <trkpt lat="45.4906" lon="6.62534">
        <ele>2490.43</ele>
        <time>2014-12-05T11:26:25Z</time>
      </trkpt>
      <trkpt lat="45.49061" lon="6.62533">
        <ele>2490.43</ele>
        <time>2014-12-05T11:26:50Z</time>
      </trkpt>
      <trkpt lat="45.4906" lon="6.62533">
        <ele>2490.43</ele>
        <time>2014-12-05T11:27:13Z</time>
      </trkpt>
      <trkpt lat="45.49059" lon="6.62533">
        <ele>2490.43</ele>
        <time>2014-12-05T11:27:43Z</time>
      </trkpt>
      <trkpt lat="45.49059" lon="6.62533">
        <ele>2490.43</ele>
        <time>2014-12-05T11:28:06Z</time>
      </trkpt>
      <trkpt lat="45.49054" lon="6.62524">
        <ele>2490.43</ele>
        <time>2014-12-05T11:28:17Z</time>
      </trkpt>
      <trkpt lat="45.49053" lon="6.62521">
        <ele>2490.43</ele>
        <time>2014-12-05T11:28:36Z</time>
      </trkpt>
      <trkpt lat="45.49055" lon="6.62523">
        <ele>2490.43</ele>
        <time>2014-12-05T11:29:04Z</time>
      </trkpt>
      <trkpt lat="45.4906" lon="6.62533">
        <ele>2490.43</ele>
        <time>2014-12-05T11:29:17Z</time>
      </trkpt>
      <trkpt lat="45.49058" lon="6.62534">
        <ele>2489.47</ele>
        <time>2014-12-05T11:29:33Z</time>
      </trkpt>
      <trkpt lat="45.49058" lon="6.62534">
        <ele>2489.47</ele>
        <time>2014-12-05T11:29:34Z</time>
      </trkpt>
      <trkpt lat="45.49058" lon="6.62535">
        <ele>2484.18</ele>
        <time>2014-12-05T11:29:38Z</time>
      </trkpt>
      <trkpt lat="45.49058" lon="6.62534">
        <ele>2479.86</ele>
        <time>2014-12-05T11:29:39Z</time>
      </trkpt>
      <trkpt lat="45.49058" lon="6.62534">
        <ele>2487.55</ele>
        <time>2014-12-05T11:29:40Z</time>
      </trkpt>
      <trkpt lat="45.49058" lon="6.62534">
        <ele>2488.99</ele>
        <time>2014-12-05T11:29:42Z</time>
      </trkpt>
      <trkpt lat="45.49059" lon="6.62534">
        <ele>2489.47</ele>
        <time>2014-12-05T11:30:32Z</time>
      </trkpt>
      <trkpt lat="45.49059" lon="6.62535">
        <ele>2489.47</ele>
        <time>2014-12-05T11:31:27Z</time>
      </trkpt>
      <trkpt lat="45.49059" lon="6.62535">
        <ele>2487.55</ele>
        <time>2014-12-05T11:32:08Z</time>
      </trkpt>
      <trkpt lat="45.49058" lon="6.62534">
        <ele>2490.91</ele>
        <time>2014-12-05T11:32:10Z</time>
      </trkpt>
      <trkpt lat="45.49058" lon="6.62534">
        <ele>2490.91</ele>
        <time>2014-12-05T11:32:11Z</time>
      </trkpt>
      <trkpt lat="45.49057" lon="6.62536">
        <ele>2490.43</ele>
        <time>2014-12-05T11:32:19Z</time>
      </trkpt>
      <trkpt lat="45.49059" lon="6.62535">
        <ele>2490.43</ele>
        <time>2014-12-05T11:32:40Z</time>
      </trkpt>
      <trkpt lat="45.49062" lon="6.62536">
        <ele>2490.43</ele>
        <time>2014-12-05T11:32:58Z</time>
      </trkpt>
      <trkpt lat="45.49062" lon="6.62539">
        <ele>2490.43</ele>
        <time>2014-12-05T11:33:09Z</time>
      </trkpt>
      <trkpt lat="45.49061" lon="6.62539">
        <ele>2491.39</ele>
        <time>2014-12-05T11:33:14Z</time>
      </trkpt>
      <trkpt lat="45.4906" lon="6.62537">
        <ele>2491.39</ele>
        <time>2014-12-05T11:33:33Z</time>
      </trkpt>
      <trkpt lat="45.49057" lon="6.62532">
        <ele>2489.95</ele>
        <time>2014-12-05T11:33:43Z</time>
      </trkpt>
      <trkpt lat="45.49051" lon="6.62519">
        <ele>2489.95</ele>
        <time>2014-12-05T11:33:55Z</time>
      </trkpt>
      <trkpt lat="45.49049" lon="6.6251">
        <ele>2489.95</ele>
        <time>2014-12-05T11:34:02Z</time>
      </trkpt>
      <trkpt lat="45.4904" lon="6.62495">
        <ele>2488.51</ele>
        <time>2014-12-05T11:34:17Z</time>
      </trkpt>
      <trkpt lat="45.49038" lon="6.6249">
        <ele>2488.03</ele>
        <time>2014-12-05T11:34:22Z</time>
      </trkpt>
      <trkpt lat="45.49034" lon="6.62476">
        <ele>2485.63</ele>
        <time>2014-12-05T11:34:36Z</time>
      </trkpt>
      <trkpt lat="45.49028" lon="6.62465">
        <ele>2482.74</ele>
        <time>2014-12-05T11:34:49Z</time>
      </trkpt>
      <trkpt lat="45.49027" lon="6.62462">
        <ele>2482.26</ele>
        <time>2014-12-05T11:34:52Z</time>
      </trkpt>
      <trkpt lat="45.49025" lon="6.62453">
        <ele>2481.3</ele>
        <time>2014-12-05T11:35:00Z</time>
      </trkpt>
      <trkpt lat="45.49024" lon="6.62453">
        <ele>2481.3</ele>
        <time>2014-12-05T11:35:02Z</time>
      </trkpt>
      <trkpt lat="45.49023" lon="6.62444">
        <ele>2479.86</ele>
        <time>2014-12-05T11:35:09Z</time>
      </trkpt>
      <trkpt lat="45.4902" lon="6.62434">
        <ele>2478.42</ele>
        <time>2014-12-05T11:35:17Z</time>
      </trkpt>
      <trkpt lat="45.49017" lon="6.62425">
        <ele>2476.97</ele>
        <time>2014-12-05T11:35:25Z</time>
      </trkpt>
      <trkpt lat="45.4902" lon="6.62417">
        <ele>2475.53</ele>
        <time>2014-12-05T11:35:33Z</time>
      </trkpt>
      <trkpt lat="45.49016" lon="6.62401">
        <ele>2472.17</ele>
        <time>2014-12-05T11:35:47Z</time>
      </trkpt>
      <trkpt lat="45.49011" lon="6.62385">
        <ele>2470.24</ele>
        <time>2014-12-05T11:36:02Z</time>
      </trkpt>
      <trkpt lat="45.49007" lon="6.62371">
        <ele>2467.36</ele>
        <time>2014-12-05T11:36:16Z</time>
      </trkpt>
      <trkpt lat="45.49002" lon="6.62354">
        <ele>2464.48</ele>
        <time>2014-12-05T11:36:31Z</time>
      </trkpt>
      <trkpt lat="45.48999" lon="6.62349">
        <ele>2463.04</ele>
        <time>2014-12-05T11:36:37Z</time>
      </trkpt>
      <trkpt lat="45.48999" lon="6.62346">
        <ele>2462.55</ele>
        <time>2014-12-05T11:36:39Z</time>
      </trkpt>
      <trkpt lat="45.48996" lon="6.62327">
        <ele>2461.11</ele>
        <time>2014-12-05T11:36:53Z</time>
      </trkpt>
      <trkpt lat="45.48995" lon="6.62317">
        <ele>2459.67</ele>
        <time>2014-12-05T11:37:05Z</time>
      </trkpt>
      <trkpt lat="45.48992" lon="6.62308">
        <ele>2459.19</ele>
        <time>2014-12-05T11:37:13Z</time>
      </trkpt>
      <trkpt lat="45.48988" lon="6.62295">
        <ele>2458.23</ele>
        <time>2014-12-05T11:37:28Z</time>
      </trkpt>
      <trkpt lat="45.48986" lon="6.62289">
        <ele>2457.75</ele>
        <time>2014-12-05T11:37:33Z</time>
      </trkpt>
      <trkpt lat="45.48985" lon="6.62285">
        <ele>2457.75</ele>
        <time>2014-12-05T11:37:36Z</time>
      </trkpt>
      <trkpt lat="45.48981" lon="6.62272">
        <ele>2456.79</ele>
        <time>2014-12-05T11:37:47Z</time>
      </trkpt>
      <trkpt lat="45.48983" lon="6.62265">
        <ele>2456.79</ele>
        <time>2014-12-05T11:37:54Z</time>
      </trkpt>
      <trkpt lat="45.48981" lon="6.6226">
        <ele>2455.82</ele>
        <time>2014-12-05T11:37:58Z</time>
      </trkpt>
      <trkpt lat="45.48978" lon="6.62242">
        <ele>2455.82</ele>
        <time>2014-12-05T11:38:12Z</time>
      </trkpt>
      <trkpt lat="45.48978" lon="6.62232">
        <ele>2455.82</ele>
        <time>2014-12-05T11:38:26Z</time>
      </trkpt>
      <trkpt lat="45.48977" lon="6.62231">
        <ele>2455.82</ele>
        <time>2014-12-05T11:38:28Z</time>
      </trkpt>
      <trkpt lat="45.48977" lon="6.62227">
        <ele>2455.34</ele>
        <time>2014-12-05T11:38:32Z</time>
      </trkpt>
      <trkpt lat="45.48976" lon="6.62223">
        <ele>2455.34</ele>
        <time>2014-12-05T11:38:35Z</time>
      </trkpt>
      <trkpt lat="45.48976" lon="6.62208">
        <ele>2455.34</ele>
        <time>2014-12-05T11:38:49Z</time>
      </trkpt>
      <trkpt lat="45.48975" lon="6.62204">
        <ele>2455.34</ele>
        <time>2014-12-05T11:38:54Z</time>
      </trkpt>
      <trkpt lat="45.48966" lon="6.62185">
        <ele>2452.94</ele>
        <time>2014-12-05T11:39:10Z</time>
      </trkpt>
      <trkpt lat="45.48963" lon="6.62177">
        <ele>2451.5</ele>
        <time>2014-12-05T11:39:16Z</time>
      </trkpt>
      <trkpt lat="45.48953" lon="6.62165">
        <ele>2448.62</ele>
        <time>2014-12-05T11:39:30Z</time>
      </trkpt>
      <trkpt lat="45.48945" lon="6.62146">
        <ele>2446.69</ele>
        <time>2014-12-05T11:39:46Z</time>
      </trkpt>
      <trkpt lat="45.48939" lon="6.62133">
        <ele>2444.77</ele>
        <time>2014-12-05T11:40:01Z</time>
      </trkpt>
      <trkpt lat="45.48931" lon="6.62122">
        <ele>2441.89</ele>
        <time>2014-12-05T11:40:13Z</time>
      </trkpt>
      <trkpt lat="45.48927" lon="6.62112">
        <ele>2442.85</ele>
        <time>2014-12-05T11:40:23Z</time>
      </trkpt>
      <trkpt lat="45.48916" lon="6.62099">
        <ele>2442.85</ele>
        <time>2014-12-05T11:40:37Z</time>
      </trkpt>
      <trkpt lat="45.48909" lon="6.62092">
        <ele>2443.81</ele>
        <time>2014-12-05T11:40:50Z</time>
      </trkpt>
      <trkpt lat="45.48906" lon="6.62086">
        <ele>2444.77</ele>
        <time>2014-12-05T11:40:57Z</time>
      </trkpt>
      <trkpt lat="45.48899" lon="6.62071">
        <ele>2445.73</ele>
        <time>2014-12-05T11:41:13Z</time>
      </trkpt>
      <trkpt lat="45.48896" lon="6.62069">
        <ele>2446.21</ele>
        <time>2014-12-05T11:41:18Z</time>
      </trkpt>
      <trkpt lat="45.48887" lon="6.62059">
        <ele>2446.69</ele>
        <time>2014-12-05T11:41:36Z</time>
      </trkpt>
      <trkpt lat="45.48877" lon="6.62052">
        <ele>2447.17</ele>
        <time>2014-12-05T11:41:52Z</time>
      </trkpt>
      <trkpt lat="45.48869" lon="6.62049">
        <ele>2447.65</ele>
        <time>2014-12-05T11:42:03Z</time>
      </trkpt>
      <trkpt lat="45.48859" lon="6.62044">
        <ele>2446.21</ele>
        <time>2014-12-05T11:42:18Z</time>
      </trkpt>
      <trkpt lat="45.48858" lon="6.62047">
        <ele>2445.73</ele>
        <time>2014-12-05T11:42:34Z</time>
      </trkpt>
      <trkpt lat="45.48852" lon="6.62039">
        <ele>2445.73</ele>
        <time>2014-12-05T11:42:53Z</time>
      </trkpt>
      <trkpt lat="45.48846" lon="6.62039">
        <ele>2448.62</ele>
        <time>2014-12-05T11:43:07Z</time>
      </trkpt>
      <trkpt lat="45.48844" lon="6.62036">
        <ele>2448.62</ele>
        <time>2014-12-05T11:43:18Z</time>
      </trkpt>
      <trkpt lat="45.48834" lon="6.62031">
        <ele>2447.17</ele>
        <time>2014-12-05T11:43:33Z</time>
      </trkpt>
      <trkpt lat="45.48824" lon="6.62023">
        <ele>2445.25</ele>
        <time>2014-12-05T11:43:47Z</time>
      </trkpt>
      <trkpt lat="45.4882" lon="6.62012">
        <ele>2445.25</ele>
        <time>2014-12-05T11:43:59Z</time>
      </trkpt>
      <trkpt lat="45.48818" lon="6.62015">
        <ele>2444.29</ele>
        <time>2014-12-05T11:44:17Z</time>
      </trkpt>
      <trkpt lat="45.48813" lon="6.62012">
        <ele>2440.92</ele>
        <time>2014-12-05T11:44:27Z</time>
      </trkpt>
      <trkpt lat="45.48807" lon="6.62006">
        <ele>2437.56</ele>
        <time>2014-12-05T11:44:38Z</time>
      </trkpt>
      <trkpt lat="45.48801" lon="6.61999">
        <ele>2435.64</ele>
        <time>2014-12-05T11:44:48Z</time>
      </trkpt>
      <trkpt lat="45.48786" lon="6.61992">
        <ele>2433.23</ele>
        <time>2014-12-05T11:45:03Z</time>
      </trkpt>
      <trkpt lat="45.48778" lon="6.61983">
        <ele>2430.35</ele>
        <time>2014-12-05T11:45:16Z</time>
      </trkpt>
      <trkpt lat="45.48775" lon="6.61976">
        <ele>2427.47</ele>
        <time>2014-12-05T11:45:31Z</time>
      </trkpt>
      <trkpt lat="45.48769" lon="6.61964">
        <ele>2424.1</ele>
        <time>2014-12-05T11:45:43Z</time>
      </trkpt>
      <trkpt lat="45.48764" lon="6.61952">
        <ele>2420.74</ele>
        <time>2014-12-05T11:45:55Z</time>
      </trkpt>
      <trkpt lat="45.48758" lon="6.61941">
        <ele>2417.37</ele>
        <time>2014-12-05T11:46:07Z</time>
      </trkpt>
      <trkpt lat="45.48753" lon="6.61931">
        <ele>2413.53</ele>
        <time>2014-12-05T11:46:19Z</time>
      </trkpt>
      <trkpt lat="45.48749" lon="6.61919">
        <ele>2410.16</ele>
        <time>2014-12-05T11:46:31Z</time>
      </trkpt>
      <trkpt lat="45.48744" lon="6.61909">
        <ele>2406.8</ele>
        <time>2014-12-05T11:46:44Z</time>
      </trkpt>
      <trkpt lat="45.48741" lon="6.61898">
        <ele>2403.91</ele>
        <time>2014-12-05T11:46:54Z</time>
      </trkpt>
      <trkpt lat="45.48736" lon="6.61887">
        <ele>2400.55</ele>
        <time>2014-12-05T11:47:05Z</time>
      </trkpt>
      <trkpt lat="45.48731" lon="6.61878">
        <ele>2397.67</ele>
        <time>2014-12-05T11:47:19Z</time>
      </trkpt>
      <trkpt lat="45.48729" lon="6.61871">
        <ele>2394.3</ele>
        <time>2014-12-05T11:47:31Z</time>
      </trkpt>
      <trkpt lat="45.48724" lon="6.61863">
        <ele>2390.94</ele>
        <time>2014-12-05T11:47:44Z</time>
      </trkpt>
      <trkpt lat="45.48718" lon="6.61854">
        <ele>2387.57</ele>
        <time>2014-12-05T11:47:57Z</time>
      </trkpt>
      <trkpt lat="45.48717" lon="6.61844">
        <ele>2384.21</ele>
        <time>2014-12-05T11:48:09Z</time>
      </trkpt>
      <trkpt lat="45.48717" lon="6.61836">
        <ele>2381.32</ele>
        <time>2014-12-05T11:48:21Z</time>
      </trkpt>
      <trkpt lat="45.48713" lon="6.61827">
        <ele>2378.44</ele>
        <time>2014-12-05T11:48:33Z</time>
      </trkpt>
      <trkpt lat="45.48706" lon="6.6182">
        <ele>2375.07</ele>
        <time>2014-12-05T11:48:47Z</time>
      </trkpt>
      <trkpt lat="45.48702" lon="6.6181">
        <ele>2371.71</ele>
        <time>2014-12-05T11:48:59Z</time>
      </trkpt>
      <trkpt lat="45.48702" lon="6.61798">
        <ele>2368.35</ele>
        <time>2014-12-05T11:49:12Z</time>
      </trkpt>
      <trkpt lat="45.48699" lon="6.61788">
        <ele>2365.46</ele>
        <time>2014-12-05T11:49:23Z</time>
      </trkpt>
      <trkpt lat="45.48695" lon="6.61782">
        <ele>2363.06</ele>
        <time>2014-12-05T11:49:33Z</time>
      </trkpt>
      <trkpt lat="45.48685" lon="6.61779">
        <ele>2359.69</ele>
        <time>2014-12-05T11:49:48Z</time>
      </trkpt>
      <trkpt lat="45.48678" lon="6.61773">
        <ele>2356.81</ele>
        <time>2014-12-05T11:50:01Z</time>
      </trkpt>
      <trkpt lat="45.48674" lon="6.61768">
        <ele>2353.44</ele>
        <time>2014-12-05T11:50:11Z</time>
      </trkpt>
      <trkpt lat="45.48667" lon="6.61764">
        <ele>2350.56</ele>
        <time>2014-12-05T11:50:22Z</time>
      </trkpt>
      <trkpt lat="45.48661" lon="6.6176">
        <ele>2347.68</ele>
        <time>2014-12-05T11:50:32Z</time>
      </trkpt>
      <trkpt lat="45.48655" lon="6.61754">
        <ele>2344.31</ele>
        <time>2014-12-05T11:50:43Z</time>
      </trkpt>
      <trkpt lat="45.48651" lon="6.61748">
        <ele>2341.91</ele>
        <time>2014-12-05T11:50:55Z</time>
      </trkpt>
      <trkpt lat="45.48647" lon="6.61745">
        <ele>2339.99</ele>
        <time>2014-12-05T11:51:12Z</time>
      </trkpt>
      <trkpt lat="45.4864" lon="6.6174">
        <ele>2336.62</ele>
        <time>2014-12-05T11:51:24Z</time>
      </trkpt>
      <trkpt lat="45.48636" lon="6.61735">
        <ele>2333.74</ele>
        <time>2014-12-05T11:51:36Z</time>
      </trkpt>
      <trkpt lat="45.48635" lon="6.61728">
        <ele>2330.85</ele>
        <time>2014-12-05T11:51:48Z</time>
      </trkpt>
      <trkpt lat="45.48635" lon="6.61723">
        <ele>2328.45</ele>
        <time>2014-12-05T11:52:00Z</time>
      </trkpt>
      <trkpt lat="45.48633" lon="6.61718">
        <ele>2326.05</ele>
        <time>2014-12-05T11:52:10Z</time>
      </trkpt>
      <trkpt lat="45.48632" lon="6.61714">
        <ele>2323.64</ele>
        <time>2014-12-05T11:52:21Z</time>
      </trkpt>
      <trkpt lat="45.48625" lon="6.61712">
        <ele>2320.76</ele>
        <time>2014-12-05T11:52:33Z</time>
      </trkpt>
      <trkpt lat="45.48621" lon="6.61708">
        <ele>2317.88</ele>
        <time>2014-12-05T11:52:45Z</time>
      </trkpt>
      <trkpt lat="45.48621" lon="6.617">
        <ele>2315.47</ele>
        <time>2014-12-05T11:52:56Z</time>
      </trkpt>
      <trkpt lat="45.48616" lon="6.61696">
        <ele>2312.11</ele>
        <time>2014-12-05T11:53:08Z</time>
      </trkpt>
      <trkpt lat="45.48616" lon="6.61695">
        <ele>2311.15</ele>
        <time>2014-12-05T11:53:21Z</time>
      </trkpt>
      <trkpt lat="45.48621" lon="6.61692">
        <ele>2310.67</ele>
        <time>2014-12-05T11:53:35Z</time>
      </trkpt>
      <trkpt lat="45.48626" lon="6.61689">
        <ele>2310.19</ele>
        <time>2014-12-05T11:53:44Z</time>
      </trkpt>
      <trkpt lat="45.48633" lon="6.61688">
        <ele>2309.7</ele>
        <time>2014-12-05T11:53:57Z</time>
      </trkpt>
      <trkpt lat="45.48637" lon="6.61683">
        <ele>2307.78</ele>
        <time>2014-12-05T11:54:11Z</time>
      </trkpt>
      <trkpt lat="45.4864" lon="6.61675">
        <ele>2304.42</ele>
        <time>2014-12-05T11:54:23Z</time>
      </trkpt>
      <trkpt lat="45.48642" lon="6.61666">
        <ele>2301.53</ele>
        <time>2014-12-05T11:54:34Z</time>
      </trkpt>
      <trkpt lat="45.48645" lon="6.61658">
        <ele>2299.61</ele>
        <time>2014-12-05T11:54:42Z</time>
      </trkpt>
      <trkpt lat="45.4865" lon="6.61645">
        <ele>2297.69</ele>
        <time>2014-12-05T11:54:54Z</time>
      </trkpt>
      <trkpt lat="45.48653" lon="6.61634">
        <ele>2294.8</ele>
        <time>2014-12-05T11:55:06Z</time>
      </trkpt>
      <trkpt lat="45.48651" lon="6.61628">
        <ele>2292.88</ele>
        <time>2014-12-05T11:55:13Z</time>
      </trkpt>
      <trkpt lat="45.48654" lon="6.61621">
        <ele>2290.96</ele>
        <time>2014-12-05T11:55:24Z</time>
      </trkpt>
      <trkpt lat="45.48653" lon="6.61613">
        <ele>2288.08</ele>
        <time>2014-12-05T11:55:39Z</time>
      </trkpt>
      <trkpt lat="45.48652" lon="6.6161">
        <ele>2286.63</ele>
        <time>2014-12-05T11:55:42Z</time>
      </trkpt>
      <trkpt lat="45.48651" lon="6.61603">
        <ele>2283.27</ele>
        <time>2014-12-05T11:55:54Z</time>
      </trkpt>
      <trkpt lat="45.48653" lon="6.616">
        <ele>2281.83</ele>
        <time>2014-12-05T11:56:05Z</time>
      </trkpt>
      <trkpt lat="45.48657" lon="6.61596">
        <ele>2278.94</ele>
        <time>2014-12-05T11:56:18Z</time>
      </trkpt>
      <trkpt lat="45.48658" lon="6.61594">
        <ele>2277.98</ele>
        <time>2014-12-05T11:56:20Z</time>
      </trkpt>
      <trkpt lat="45.4866" lon="6.61585">
        <ele>2275.1</ele>
        <time>2014-12-05T11:56:33Z</time>
      </trkpt>
      <trkpt lat="45.4866" lon="6.61579">
        <ele>2273.66</ele>
        <time>2014-12-05T11:56:48Z</time>
      </trkpt>
      <trkpt lat="45.48657" lon="6.6157">
        <ele>2271.25</ele>
        <time>2014-12-05T11:56:58Z</time>
      </trkpt>
      <trkpt lat="45.48653" lon="6.61554">
        <ele>2268.37</ele>
        <time>2014-12-05T11:57:12Z</time>
      </trkpt>
      <trkpt lat="45.48655" lon="6.61545">
        <ele>2265.48</ele>
        <time>2014-12-05T11:57:22Z</time>
      </trkpt>
      <trkpt lat="45.48658" lon="6.61528">
        <ele>2263.08</ele>
        <time>2014-12-05T11:57:35Z</time>
      </trkpt>
      <trkpt lat="45.48659" lon="6.61518">
        <ele>2259.72</ele>
        <time>2014-12-05T11:57:47Z</time>
      </trkpt>
      <trkpt lat="45.48658" lon="6.6151">
        <ele>2257.31</ele>
        <time>2014-12-05T11:57:58Z</time>
      </trkpt>
      <trkpt lat="45.48657" lon="6.61502">
        <ele>2254.91</ele>
        <time>2014-12-05T11:58:09Z</time>
      </trkpt>
      <trkpt lat="45.48661" lon="6.61501">
        <ele>2253.95</ele>
        <time>2014-12-05T11:58:24Z</time>
      </trkpt>
      <trkpt lat="45.48664" lon="6.61499">
        <ele>2252.51</ele>
        <time>2014-12-05T11:58:30Z</time>
      </trkpt>
      <trkpt lat="45.48665" lon="6.61492">
        <ele>2250.58</ele>
        <time>2014-12-05T11:58:41Z</time>
      </trkpt>
      <trkpt lat="45.48665" lon="6.6149">
        <ele>2250.1</ele>
        <time>2014-12-05T11:58:43Z</time>
      </trkpt>
      <trkpt lat="45.48665" lon="6.61479">
        <ele>2247.22</ele>
        <time>2014-12-05T11:58:56Z</time>
      </trkpt>
      <trkpt lat="45.48671" lon="6.61475">
        <ele>2244.33</ele>
        <time>2014-12-05T11:59:12Z</time>
      </trkpt>
      <trkpt lat="45.48675" lon="6.61478">
        <ele>2243.37</ele>
        <time>2014-12-05T11:59:25Z</time>
      </trkpt>
      <trkpt lat="45.48678" lon="6.61483">
        <ele>2242.41</ele>
        <time>2014-12-05T11:59:41Z</time>
      </trkpt>
      <trkpt lat="45.48683" lon="6.61492">
        <ele>2241.45</ele>
        <time>2014-12-05T11:59:59Z</time>
      </trkpt>
      <trkpt lat="45.48689" lon="6.61502">
        <ele>2240.49</ele>
        <time>2014-12-05T12:00:19Z</time>
      </trkpt>
      <trkpt lat="45.48695" lon="6.61517">
        <ele>2240.01</ele>
        <time>2014-12-05T12:00:40Z</time>
      </trkpt>
      <trkpt lat="45.487" lon="6.61525">
        <ele>2239.53</ele>
        <time>2014-12-05T12:00:56Z</time>
      </trkpt>
      <trkpt lat="45.487" lon="6.61525">
        <ele>2240.97</ele>
        <time>2014-12-05T12:00:59Z</time>
      </trkpt>
      <trkpt lat="45.48701" lon="6.61523">
        <ele>2239.53</ele>
        <time>2014-12-05T12:01:04Z</time>
      </trkpt>
      <trkpt lat="45.48706" lon="6.61528">
        <ele>2237.61</ele>
        <time>2014-12-05T12:01:18Z</time>
      </trkpt>
      <trkpt lat="45.48712" lon="6.61527">
        <ele>2235.2</ele>
        <time>2014-12-05T12:01:32Z</time>
      </trkpt>
      <trkpt lat="45.48717" lon="6.61525">
        <ele>2232.32</ele>
        <time>2014-12-05T12:01:45Z</time>
      </trkpt>
      <trkpt lat="45.48721" lon="6.61521">
        <ele>2228.95</ele>
        <time>2014-12-05T12:01:53Z</time>
      </trkpt>
      <trkpt lat="45.48724" lon="6.61518">
        <ele>2227.03</ele>
        <time>2014-12-05T12:01:57Z</time>
      </trkpt>
      <trkpt lat="45.48728" lon="6.61512">
        <ele>2224.15</ele>
        <time>2014-12-05T12:02:04Z</time>
      </trkpt>
      <trkpt lat="45.48731" lon="6.61506">
        <ele>2220.78</ele>
        <time>2014-12-05T12:02:11Z</time>
      </trkpt>
      <trkpt lat="45.48736" lon="6.61501">
        <ele>2218.38</ele>
        <time>2014-12-05T12:02:16Z</time>
      </trkpt>
      <trkpt lat="45.48737" lon="6.615">
        <ele>2217.42</ele>
        <time>2014-12-05T12:02:17Z</time>
      </trkpt>
      <trkpt lat="45.48742" lon="6.61491">
        <ele>2213.57</ele>
        <time>2014-12-05T12:02:23Z</time>
      </trkpt>
      <trkpt lat="45.48743" lon="6.61489">
        <ele>2211.65</ele>
        <time>2014-12-05T12:02:25Z</time>
      </trkpt>
      <trkpt lat="45.48745" lon="6.61486">
        <ele>2210.21</ele>
        <time>2014-12-05T12:02:40Z</time>
      </trkpt>
      <trkpt lat="45.48746" lon="6.61487">
        <ele>2210.21</ele>
        <time>2014-12-05T12:03:00Z</time>
      </trkpt>
      <trkpt lat="45.4875" lon="6.61481">
        <ele>2207.81</ele>
        <time>2014-12-05T12:03:21Z</time>
      </trkpt>
      <trkpt lat="45.48751" lon="6.6148">
        <ele>2206.84</ele>
        <time>2014-12-05T12:03:23Z</time>
      </trkpt>
      <trkpt lat="45.48756" lon="6.61476">
        <ele>2203.48</ele>
        <time>2014-12-05T12:03:31Z</time>
      </trkpt>
      <trkpt lat="45.48761" lon="6.61469">
        <ele>2200.11</ele>
        <time>2014-12-05T12:03:40Z</time>
      </trkpt>
      <trkpt lat="45.48764" lon="6.61468">
        <ele>2199.15</ele>
        <time>2014-12-05T12:03:44Z</time>
      </trkpt>
      <trkpt lat="45.48772" lon="6.61462">
        <ele>2195.79</ele>
        <time>2014-12-05T12:03:57Z</time>
      </trkpt>
      <trkpt lat="45.48778" lon="6.61456">
        <ele>2192.9</ele>
        <time>2014-12-05T12:04:06Z</time>
      </trkpt>
      <trkpt lat="45.4878" lon="6.61455">
        <ele>2191.46</ele>
        <time>2014-12-05T12:04:09Z</time>
      </trkpt>
      <trkpt lat="45.48787" lon="6.61449">
        <ele>2188.58</ele>
        <time>2014-12-05T12:04:18Z</time>
      </trkpt>
      <trkpt lat="45.4879" lon="6.61442">
        <ele>2187.62</ele>
        <time>2014-12-05T12:04:32Z</time>
      </trkpt>
      <trkpt lat="45.48797" lon="6.61431">
        <ele>2186.66</ele>
        <time>2014-12-05T12:04:43Z</time>
      </trkpt>
      <trkpt lat="45.48802" lon="6.61424">
        <ele>2186.18</ele>
        <time>2014-12-05T12:04:49Z</time>
      </trkpt>
      <trkpt lat="45.48809" lon="6.61418">
        <ele>2185.21</ele>
        <time>2014-12-05T12:05:03Z</time>
      </trkpt>
      <trkpt lat="45.48814" lon="6.61413">
        <ele>2183.29</ele>
        <time>2014-12-05T12:05:16Z</time>
      </trkpt>
      <trkpt lat="45.48815" lon="6.61413">
        <ele>2182.81</ele>
        <time>2014-12-05T12:05:18Z</time>
      </trkpt>
      <trkpt lat="45.48824" lon="6.61408">
        <ele>2180.89</ele>
        <time>2014-12-05T12:05:31Z</time>
      </trkpt>
      <trkpt lat="45.48827" lon="6.61408">
        <ele>2180.89</ele>
        <time>2014-12-05T12:05:41Z</time>
      </trkpt>
      <trkpt lat="45.48836" lon="6.61402">
        <ele>2179.45</ele>
        <time>2014-12-05T12:05:54Z</time>
      </trkpt>
      <trkpt lat="45.4884" lon="6.61401">
        <ele>2178.48</ele>
        <time>2014-12-05T12:06:05Z</time>
      </trkpt>
      <trkpt lat="45.48843" lon="6.61398">
        <ele>2177.04</ele>
        <time>2014-12-05T12:06:18Z</time>
      </trkpt>
      <trkpt lat="45.48845" lon="6.61397">
        <ele>2176.56</ele>
        <time>2014-12-05T12:06:22Z</time>
      </trkpt>
      <trkpt lat="45.48854" lon="6.61396">
        <ele>2175.6</ele>
        <time>2014-12-05T12:06:36Z</time>
      </trkpt>
      <trkpt lat="45.48858" lon="6.61393">
        <ele>2174.16</ele>
        <time>2014-12-05T12:06:50Z</time>
      </trkpt>
      <trkpt lat="45.48863" lon="6.61391">
        <ele>2172.24</ele>
        <time>2014-12-05T12:07:03Z</time>
      </trkpt>
      <trkpt lat="45.48868" lon="6.6139">
        <ele>2171.27</ele>
        <time>2014-12-05T12:07:19Z</time>
      </trkpt>
      <trkpt lat="45.4887" lon="6.6139">
        <ele>2169.35</ele>
        <time>2014-12-05T12:07:30Z</time>
      </trkpt>
      <trkpt lat="45.48872" lon="6.61387">
        <ele>2167.43</ele>
        <time>2014-12-05T12:07:41Z</time>
      </trkpt>
      <trkpt lat="45.48875" lon="6.61384">
        <ele>2165.51</ele>
        <time>2014-12-05T12:07:54Z</time>
      </trkpt>
      <trkpt lat="45.48874" lon="6.6138">
        <ele>2164.06</ele>
        <time>2014-12-05T12:08:00Z</time>
      </trkpt>
      <trkpt lat="45.48881" lon="6.61375">
        <ele>2161.18</ele>
        <time>2014-12-05T12:08:14Z</time>
      </trkpt>
      <trkpt lat="45.48888" lon="6.61367">
        <ele>2159.26</ele>
        <time>2014-12-05T12:08:27Z</time>
      </trkpt>
      <trkpt lat="45.48886" lon="6.61361">
        <ele>2157.82</ele>
        <time>2014-12-05T12:08:37Z</time>
      </trkpt>
      <trkpt lat="45.48885" lon="6.61361">
        <ele>2156.86</ele>
        <time>2014-12-05T12:08:50Z</time>
      </trkpt>
      <trkpt lat="45.48885" lon="6.61359">
        <ele>2155.89</ele>
        <time>2014-12-05T12:09:06Z</time>
      </trkpt>
      <trkpt lat="45.48881" lon="6.61355">
        <ele>2154.45</ele>
        <time>2014-12-05T12:09:14Z</time>
      </trkpt>
      <trkpt lat="45.48878" lon="6.61352">
        <ele>2153.49</ele>
        <time>2014-12-05T12:09:25Z</time>
      </trkpt>
      <trkpt lat="45.48877" lon="6.61344">
        <ele>2150.61</ele>
        <time>2014-12-05T12:09:38Z</time>
      </trkpt>
      <trkpt lat="45.48871" lon="6.6134">
        <ele>2149.16</ele>
        <time>2014-12-05T12:09:50Z</time>
      </trkpt>
      <trkpt lat="45.4887" lon="6.61338">
        <ele>2147.72</ele>
        <time>2014-12-05T12:09:59Z</time>
      </trkpt>
      <trkpt lat="45.48872" lon="6.6133">
        <ele>2144.84</ele>
        <time>2014-12-05T12:10:13Z</time>
      </trkpt>
      <trkpt lat="45.48869" lon="6.61326">
        <ele>2143.4</ele>
        <time>2014-12-05T12:10:25Z</time>
      </trkpt>
      <trkpt lat="45.48871" lon="6.61321">
        <ele>2141.47</ele>
        <time>2014-12-05T12:10:37Z</time>
      </trkpt>
      <trkpt lat="45.48871" lon="6.61318">
        <ele>2140.99</ele>
        <time>2014-12-05T12:10:59Z</time>
      </trkpt>
      <trkpt lat="45.48871" lon="6.61313">
        <ele>2138.11</ele>
        <time>2014-12-05T12:11:12Z</time>
      </trkpt>
      <trkpt lat="45.48877" lon="6.6131">
        <ele>2136.67</ele>
        <time>2014-12-05T12:11:23Z</time>
      </trkpt>
      <trkpt lat="45.4888" lon="6.61303">
        <ele>2133.3</ele>
        <time>2014-12-05T12:11:34Z</time>
      </trkpt>
      <trkpt lat="45.48883" lon="6.61295">
        <ele>2130.42</ele>
        <time>2014-12-05T12:11:45Z</time>
      </trkpt>
      <trkpt lat="45.48883" lon="6.61288">
        <ele>2128.02</ele>
        <time>2014-12-05T12:11:59Z</time>
      </trkpt>
      <trkpt lat="45.48882" lon="6.61283">
        <ele>2127.05</ele>
        <time>2014-12-05T12:12:08Z</time>
      </trkpt>
      <trkpt lat="45.48883" lon="6.61265">
        <ele>2124.17</ele>
        <time>2014-12-05T12:12:23Z</time>
      </trkpt>
      <trkpt lat="45.48885" lon="6.61253">
        <ele>2122.25</ele>
        <time>2014-12-05T12:12:30Z</time>
      </trkpt>
      <trkpt lat="45.48886" lon="6.6125">
        <ele>2120.81</ele>
        <time>2014-12-05T12:12:44Z</time>
      </trkpt>
      <trkpt lat="45.48892" lon="6.61235">
        <ele>2117.92</ele>
        <time>2014-12-05T12:12:59Z</time>
      </trkpt>
      <trkpt lat="45.48893" lon="6.61225">
        <ele>2116</ele>
        <time>2014-12-05T12:13:08Z</time>
      </trkpt>
      <trkpt lat="45.4889" lon="6.61219">
        <ele>2114.08</ele>
        <time>2014-12-05T12:13:22Z</time>
      </trkpt>
      <trkpt lat="45.48891" lon="6.61216">
        <ele>2113.6</ele>
        <time>2014-12-05T12:13:25Z</time>
      </trkpt>
      <trkpt lat="45.48885" lon="6.61209">
        <ele>2110.71</ele>
        <time>2014-12-05T12:13:37Z</time>
      </trkpt>
      <trkpt lat="45.48886" lon="6.61204">
        <ele>2109.27</ele>
        <time>2014-12-05T12:13:41Z</time>
      </trkpt>
      <trkpt lat="45.48892" lon="6.61193">
        <ele>2105.91</ele>
        <time>2014-12-05T12:13:54Z</time>
      </trkpt>
      <trkpt lat="45.48893" lon="6.61189">
        <ele>2105.42</ele>
        <time>2014-12-05T12:13:57Z</time>
      </trkpt>
      <trkpt lat="45.48896" lon="6.61187">
        <ele>2104.46</ele>
        <time>2014-12-05T12:14:00Z</time>
      </trkpt>
      <trkpt lat="45.48902" lon="6.61173">
        <ele>2101.58</ele>
        <time>2014-12-05T12:14:10Z</time>
      </trkpt>
      <trkpt lat="45.48907" lon="6.61167">
        <ele>2099.18</ele>
        <time>2014-12-05T12:14:21Z</time>
      </trkpt>
      <trkpt lat="45.48907" lon="6.61161">
        <ele>2098.21</ele>
        <time>2014-12-05T12:14:26Z</time>
      </trkpt>
      <trkpt lat="45.48908" lon="6.61153">
        <ele>2096.77</ele>
        <time>2014-12-05T12:14:38Z</time>
      </trkpt>
      <trkpt lat="45.48912" lon="6.61156">
        <ele>2096.29</ele>
        <time>2014-12-05T12:15:01Z</time>
      </trkpt>
      <trkpt lat="45.48913" lon="6.61148">
        <ele>2093.89</ele>
        <time>2014-12-05T12:15:12Z</time>
      </trkpt>
      <trkpt lat="45.48916" lon="6.61132">
        <ele>2091.97</ele>
        <time>2014-12-05T12:15:25Z</time>
      </trkpt>
      <trkpt lat="45.48917" lon="6.61121">
        <ele>2090.52</ele>
        <time>2014-12-05T12:15:41Z</time>
      </trkpt>
      <trkpt lat="45.48921" lon="6.61111">
        <ele>2089.56</ele>
        <time>2014-12-05T12:15:54Z</time>
      </trkpt>
      <trkpt lat="45.48929" lon="6.61092">
        <ele>2087.16</ele>
        <time>2014-12-05T12:16:07Z</time>
      </trkpt>
      <trkpt lat="45.48933" lon="6.61091">
        <ele>2087.16</ele>
        <time>2014-12-05T12:16:26Z</time>
      </trkpt>
      <trkpt lat="45.48939" lon="6.61078">
        <ele>2085.72</ele>
        <time>2014-12-05T12:16:33Z</time>
      </trkpt>
      <trkpt lat="45.48944" lon="6.61063">
        <ele>2084.28</ele>
        <time>2014-12-05T12:16:41Z</time>
      </trkpt>
      <trkpt lat="45.48945" lon="6.6106">
        <ele>2084.28</ele>
        <time>2014-12-05T12:16:43Z</time>
      </trkpt>
      <trkpt lat="45.48949" lon="6.61054">
        <ele>2083.31</ele>
        <time>2014-12-05T12:16:49Z</time>
      </trkpt>
      <trkpt lat="45.48953" lon="6.6105">
        <ele>2082.35</ele>
        <time>2014-12-05T12:16:54Z</time>
      </trkpt>
      <trkpt lat="45.48956" lon="6.61047">
        <ele>2082.35</ele>
        <time>2014-12-05T12:16:57Z</time>
      </trkpt>
      <trkpt lat="45.4896" lon="6.61043">
        <ele>2081.87</ele>
        <time>2014-12-05T12:17:01Z</time>
      </trkpt>
      <trkpt lat="45.48962" lon="6.61039">
        <ele>2081.39</ele>
        <time>2014-12-05T12:17:05Z</time>
      </trkpt>
      <trkpt lat="45.48972" lon="6.61018">
        <ele>2079.47</ele>
        <time>2014-12-05T12:17:18Z</time>
      </trkpt>
      <trkpt lat="45.4898" lon="6.61008">
        <ele>2078.03</ele>
        <time>2014-12-05T12:17:26Z</time>
      </trkpt>
      <trkpt lat="45.48982" lon="6.61006">
        <ele>2078.03</ele>
        <time>2014-12-05T12:17:29Z</time>
      </trkpt>
      <trkpt lat="45.48988" lon="6.60993">
        <ele>2076.59</ele>
        <time>2014-12-05T12:17:38Z</time>
      </trkpt>
      <trkpt lat="45.48995" lon="6.60983">
        <ele>2074.66</ele>
        <time>2014-12-05T12:17:53Z</time>
      </trkpt>
      <trkpt lat="45.48997" lon="6.60975">
        <ele>2074.18</ele>
        <time>2014-12-05T12:18:15Z</time>
      </trkpt>
      <trkpt lat="45.49004" lon="6.60946">
        <ele>2071.3</ele>
        <time>2014-12-05T12:18:31Z</time>
      </trkpt>
      <trkpt lat="45.49005" lon="6.60944">
        <ele>2070.82</ele>
        <time>2014-12-05T12:18:33Z</time>
      </trkpt>
      <trkpt lat="45.4901" lon="6.60922">
        <ele>2068.41</ele>
        <time>2014-12-05T12:18:49Z</time>
      </trkpt>
      <trkpt lat="45.49021" lon="6.60894">
        <ele>2066.01</ele>
        <time>2014-12-05T12:19:07Z</time>
      </trkpt>
      <trkpt lat="45.49023" lon="6.60889">
        <ele>2065.05</ele>
        <time>2014-12-05T12:19:11Z</time>
      </trkpt>
      <trkpt lat="45.49033" lon="6.60873">
        <ele>2063.61</ele>
        <time>2014-12-05T12:19:23Z</time>
      </trkpt>
      <trkpt lat="45.49037" lon="6.60862">
        <ele>2062.65</ele>
        <time>2014-12-05T12:19:30Z</time>
      </trkpt>
      <trkpt lat="45.49045" lon="6.60832">
        <ele>2061.2</ele>
        <time>2014-12-05T12:19:47Z</time>
      </trkpt>
      <trkpt lat="45.49047" lon="6.60809">
        <ele>2059.28</ele>
        <time>2014-12-05T12:20:01Z</time>
      </trkpt>
      <trkpt lat="45.49052" lon="6.60785">
        <ele>2056.88</ele>
        <time>2014-12-05T12:20:14Z</time>
      </trkpt>
      <trkpt lat="45.49052" lon="6.60778">
        <ele>2055.92</ele>
        <time>2014-12-05T12:20:19Z</time>
      </trkpt>
      <trkpt lat="45.49051" lon="6.60776">
        <ele>2055.44</ele>
        <time>2014-12-05T12:20:31Z</time>
      </trkpt>
      <trkpt lat="45.4905" lon="6.60778">
        <ele>2055.44</ele>
        <time>2014-12-05T12:21:08Z</time>
      </trkpt>
      <trkpt lat="45.4905" lon="6.60777">
        <ele>2055.44</ele>
        <time>2014-12-05T12:21:39Z</time>
      </trkpt>
      <trkpt lat="45.4905" lon="6.60777">
        <ele>2055.44</ele>
        <time>2014-12-05T12:22:18Z</time>
      </trkpt>
      <trkpt lat="45.49051" lon="6.60778">
        <ele>2054.96</ele>
        <time>2014-12-05T12:22:49Z</time>
      </trkpt>
      <trkpt lat="45.49056" lon="6.60776">
        <ele>2053.99</ele>
        <time>2014-12-05T12:23:07Z</time>
      </trkpt>
      <trkpt lat="45.49061" lon="6.60767">
        <ele>2052.07</ele>
        <time>2014-12-05T12:23:15Z</time>
      </trkpt>
      <trkpt lat="45.49063" lon="6.60764">
        <ele>2051.59</ele>
        <time>2014-12-05T12:23:18Z</time>
      </trkpt>
      <trkpt lat="45.49066" lon="6.60761">
        <ele>2050.63</ele>
        <time>2014-12-05T12:23:21Z</time>
      </trkpt>
      <trkpt lat="45.49075" lon="6.60758">
        <ele>2048.23</ele>
        <time>2014-12-05T12:23:35Z</time>
      </trkpt>
      <trkpt lat="45.49085" lon="6.60756">
        <ele>2047.75</ele>
        <time>2014-12-05T12:23:49Z</time>
      </trkpt>
      <trkpt lat="45.49089" lon="6.60751">
        <ele>2047.26</ele>
        <time>2014-12-05T12:23:56Z</time>
      </trkpt>
      <trkpt lat="45.49095" lon="6.60748">
        <ele>2045.82</ele>
        <time>2014-12-05T12:24:01Z</time>
      </trkpt>
      <trkpt lat="45.49112" lon="6.6073">
        <ele>2044.38</ele>
        <time>2014-12-05T12:24:16Z</time>
      </trkpt>
      <trkpt lat="45.49123" lon="6.60714">
        <ele>2042.46</ele>
        <time>2014-12-05T12:24:31Z</time>
      </trkpt>
      <trkpt lat="45.49127" lon="6.60709">
        <ele>2041.02</ele>
        <time>2014-12-05T12:24:43Z</time>
      </trkpt>
      <trkpt lat="45.49131" lon="6.60708">
        <ele>2039.57</ele>
        <time>2014-12-05T12:25:00Z</time>
      </trkpt>
      <trkpt lat="45.49138" lon="6.60705">
        <ele>2036.69</ele>
        <time>2014-12-05T12:25:12Z</time>
      </trkpt>
      <trkpt lat="45.49143" lon="6.60699">
        <ele>2034.29</ele>
        <time>2014-12-05T12:25:25Z</time>
      </trkpt>
      <trkpt lat="45.49146" lon="6.60705">
        <ele>2032.36</ele>
        <time>2014-12-05T12:25:36Z</time>
      </trkpt>
      <trkpt lat="45.49149" lon="6.60705">
        <ele>2030.44</ele>
        <time>2014-12-05T12:25:47Z</time>
      </trkpt>
      <trkpt lat="45.49149" lon="6.60705">
        <ele>2030.44</ele>
        <time>2014-12-05T12:25:48Z</time>
      </trkpt>
      <trkpt lat="45.49153" lon="6.60703">
        <ele>2029.96</ele>
        <time>2014-12-05T12:26:00Z</time>
      </trkpt>
      <trkpt lat="45.49153" lon="6.60704">
        <ele>2029.96</ele>
        <time>2014-12-05T12:26:07Z</time>
      </trkpt>
      <trkpt lat="45.49152" lon="6.60713">
        <ele>2029.48</ele>
        <time>2014-12-05T12:26:12Z</time>
      </trkpt>
      <trkpt lat="45.49153" lon="6.60743">
        <ele>2027.08</ele>
        <time>2014-12-05T12:26:28Z</time>
      </trkpt>
      <trkpt lat="45.49155" lon="6.60759">
        <ele>2025.64</ele>
        <time>2014-12-05T12:26:37Z</time>
      </trkpt>
      <trkpt lat="45.49154" lon="6.60776">
        <ele>2024.19</ele>
        <time>2014-12-05T12:26:47Z</time>
      </trkpt>
      <trkpt lat="45.49152" lon="6.60788">
        <ele>2023.23</ele>
        <time>2014-12-05T12:26:54Z</time>
      </trkpt>
      <trkpt lat="45.49155" lon="6.60822">
        <ele>2020.83</ele>
        <time>2014-12-05T12:27:12Z</time>
      </trkpt>
      <trkpt lat="45.49159" lon="6.60851">
        <ele>2018.43</ele>
        <time>2014-12-05T12:27:27Z</time>
      </trkpt>
      <trkpt lat="45.49162" lon="6.60881">
        <ele>2016.5</ele>
        <time>2014-12-05T12:27:43Z</time>
      </trkpt>
      <trkpt lat="45.49162" lon="6.60887">
        <ele>2015.54</ele>
        <time>2014-12-05T12:27:58Z</time>
      </trkpt>
      <trkpt lat="45.4916" lon="6.60904">
        <ele>2014.58</ele>
        <time>2014-12-05T12:28:10Z</time>
      </trkpt>
      <trkpt lat="45.49157" lon="6.6092">
        <ele>2013.14</ele>
        <time>2014-12-05T12:28:20Z</time>
      </trkpt>
      <trkpt lat="45.49157" lon="6.60934">
        <ele>2011.7</ele>
        <time>2014-12-05T12:28:29Z</time>
      </trkpt>
      <trkpt lat="45.4916" lon="6.60941">
        <ele>2011.7</ele>
        <time>2014-12-05T12:28:33Z</time>
      </trkpt>
      <trkpt lat="45.49179" lon="6.60962">
        <ele>2009.29</ele>
        <time>2014-12-05T12:28:50Z</time>
      </trkpt>
      <trkpt lat="45.4919" lon="6.60977">
        <ele>2007.37</ele>
        <time>2014-12-05T12:29:01Z</time>
      </trkpt>
      <trkpt lat="45.49194" lon="6.60985">
        <ele>2006.89</ele>
        <time>2014-12-05T12:29:13Z</time>
      </trkpt>
      <trkpt lat="45.49195" lon="6.60986">
        <ele>2006.89</ele>
        <time>2014-12-05T12:29:31Z</time>
      </trkpt>
      <trkpt lat="45.49195" lon="6.60985">
        <ele>2006.89</ele>
        <time>2014-12-05T12:29:58Z</time>
      </trkpt>
      <trkpt lat="45.49196" lon="6.60985">
        <ele>2006.89</ele>
        <time>2014-12-05T12:30:30Z</time>
      </trkpt>
      <trkpt lat="45.49197" lon="6.60984">
        <ele>2006.89</ele>
        <time>2014-12-05T12:30:43Z</time>
      </trkpt>
      <trkpt lat="45.49199" lon="6.60981">
        <ele>2005.45</ele>
        <time>2014-12-05T12:30:47Z</time>
      </trkpt>
      <trkpt lat="45.49208" lon="6.60968">
        <ele>2002.08</ele>
        <time>2014-12-05T12:31:00Z</time>
      </trkpt>
      <trkpt lat="45.4921" lon="6.60966">
        <ele>2001.12</ele>
        <time>2014-12-05T12:31:03Z</time>
      </trkpt>
      <trkpt lat="45.49217" lon="6.60956">
        <ele>1997.76</ele>
        <time>2014-12-05T12:31:17Z</time>
      </trkpt>
      <trkpt lat="45.4922" lon="6.60952">
        <ele>1996.32</ele>
        <time>2014-12-05T12:31:22Z</time>
      </trkpt>
      <trkpt lat="45.49229" lon="6.60946">
        <ele>1992.47</ele>
        <time>2014-12-05T12:31:34Z</time>
      </trkpt>
      <trkpt lat="45.49236" lon="6.60941">
        <ele>1989.1</ele>
        <time>2014-12-05T12:31:45Z</time>
      </trkpt>
      <trkpt lat="45.49237" lon="6.6093">
        <ele>1986.7</ele>
        <time>2014-12-05T12:31:56Z</time>
      </trkpt>
      <trkpt lat="45.4924" lon="6.60922">
        <ele>1983.82</ele>
        <time>2014-12-05T12:32:06Z</time>
      </trkpt>
      <trkpt lat="45.49246" lon="6.60916">
        <ele>1981.41</ele>
        <time>2014-12-05T12:32:18Z</time>
      </trkpt>
      <trkpt lat="45.49245" lon="6.60912">
        <ele>1980.93</ele>
        <time>2014-12-05T12:32:28Z</time>
      </trkpt>
      <trkpt lat="45.49249" lon="6.60907">
        <ele>1980.45</ele>
        <time>2014-12-05T12:32:42Z</time>
      </trkpt>
      <trkpt lat="45.49253" lon="6.60897">
        <ele>1979.97</ele>
        <time>2014-12-05T12:32:54Z</time>
      </trkpt>
      <trkpt lat="45.49255" lon="6.60892">
        <ele>1981.41</ele>
        <time>2014-12-05T12:33:06Z</time>
      </trkpt>
      <trkpt lat="45.49257" lon="6.60884">
        <ele>1981.41</ele>
        <time>2014-12-05T12:33:27Z</time>
      </trkpt>
      <trkpt lat="45.49256" lon="6.60882">
        <ele>1981.9</ele>
        <time>2014-12-05T12:33:34Z</time>
      </trkpt>
      <trkpt lat="45.49255" lon="6.60875">
        <ele>1981.9</ele>
        <time>2014-12-05T12:33:39Z</time>
      </trkpt>
      <trkpt lat="45.49256" lon="6.60868">
        <ele>1981.9</ele>
        <time>2014-12-05T12:33:45Z</time>
      </trkpt>
      <trkpt lat="45.49257" lon="6.60857">
        <ele>1980.45</ele>
        <time>2014-12-05T12:33:55Z</time>
      </trkpt>
      <trkpt lat="45.49261" lon="6.60844">
        <ele>1977.57</ele>
        <time>2014-12-05T12:34:08Z</time>
      </trkpt>
      <trkpt lat="45.49265" lon="6.60841">
        <ele>1975.17</ele>
        <time>2014-12-05T12:34:19Z</time>
      </trkpt>
      <trkpt lat="45.49268" lon="6.60843">
        <ele>1974.2</ele>
        <time>2014-12-05T12:34:30Z</time>
      </trkpt>
      <trkpt lat="45.49268" lon="6.60843">
        <ele>1974.2</ele>
        <time>2014-12-05T12:34:59Z</time>
      </trkpt>
      <trkpt lat="45.49273" lon="6.60839">
        <ele>1972.28</ele>
        <time>2014-12-05T12:35:16Z</time>
      </trkpt>
      <trkpt lat="45.4928" lon="6.60834">
        <ele>1969.4</ele>
        <time>2014-12-05T12:35:27Z</time>
      </trkpt>
      <trkpt lat="45.49281" lon="6.60834">
        <ele>1968.44</ele>
        <time>2014-12-05T12:35:29Z</time>
      </trkpt>
      <trkpt lat="45.49288" lon="6.60833">
        <ele>1965.07</ele>
        <time>2014-12-05T12:35:40Z</time>
      </trkpt>
      <trkpt lat="45.49294" lon="6.60825">
        <ele>1962.19</ele>
        <time>2014-12-05T12:35:53Z</time>
      </trkpt>
      <trkpt lat="45.49295" lon="6.60821">
        <ele>1960.75</ele>
        <time>2014-12-05T12:36:05Z</time>
      </trkpt>
      <trkpt lat="45.49297" lon="6.60815">
        <ele>1959.78</ele>
        <time>2014-12-05T12:36:22Z</time>
      </trkpt>
      <trkpt lat="45.49299" lon="6.60811">
        <ele>1958.82</ele>
        <time>2014-12-05T12:36:37Z</time>
      </trkpt>
      <trkpt lat="45.49301" lon="6.60805">
        <ele>1955.94</ele>
        <time>2014-12-05T12:36:48Z</time>
      </trkpt>
      <trkpt lat="45.49305" lon="6.60797">
        <ele>1954.98</ele>
        <time>2014-12-05T12:37:00Z</time>
      </trkpt>
      <trkpt lat="45.49305" lon="6.60796">
        <ele>1955.94</ele>
        <time>2014-12-05T12:37:02Z</time>
      </trkpt>
      <trkpt lat="45.49306" lon="6.60789">
        <ele>1954.98</ele>
        <time>2014-12-05T12:37:14Z</time>
      </trkpt>
      <trkpt lat="45.49306" lon="6.60789">
        <ele>1954.98</ele>
        <time>2014-12-05T12:37:15Z</time>
      </trkpt>
      <trkpt lat="45.49308" lon="6.60786">
        <ele>1953.06</ele>
        <time>2014-12-05T12:37:19Z</time>
      </trkpt>
      <trkpt lat="45.49313" lon="6.60781">
        <ele>1949.69</ele>
        <time>2014-12-05T12:37:27Z</time>
      </trkpt>
      <trkpt lat="45.49319" lon="6.60774">
        <ele>1947.29</ele>
        <time>2014-12-05T12:37:40Z</time>
      </trkpt>
      <trkpt lat="45.49324" lon="6.60769">
        <ele>1944.4</ele>
        <time>2014-12-05T12:37:48Z</time>
      </trkpt>
      <trkpt lat="45.4933" lon="6.60757">
        <ele>1941.04</ele>
        <time>2014-12-05T12:37:59Z</time>
      </trkpt>
      <trkpt lat="45.49331" lon="6.60741">
        <ele>1940.56</ele>
        <time>2014-12-05T12:38:12Z</time>
      </trkpt>
      <trkpt lat="45.4933" lon="6.6074">
        <ele>1940.08</ele>
        <time>2014-12-05T12:38:15Z</time>
      </trkpt>
      <trkpt lat="45.49332" lon="6.60729">
        <ele>1939.12</ele>
        <time>2014-12-05T12:38:26Z</time>
      </trkpt>
      <trkpt lat="45.49334" lon="6.60714">
        <ele>1938.16</ele>
        <time>2014-12-05T12:38:40Z</time>
      </trkpt>
      <trkpt lat="45.49335" lon="6.60698">
        <ele>1938.16</ele>
        <time>2014-12-05T12:38:52Z</time>
      </trkpt>
      <trkpt lat="45.49335" lon="6.60691">
        <ele>1936.71</ele>
        <time>2014-12-05T12:39:05Z</time>
      </trkpt>
      <trkpt lat="45.49336" lon="6.60694">
        <ele>1936.71</ele>
        <time>2014-12-05T12:39:42Z</time>
      </trkpt>
      <trkpt lat="45.49335" lon="6.60693">
        <ele>1936.71</ele>
        <time>2014-12-05T12:40:11Z</time>
      </trkpt>
      <trkpt lat="45.49337" lon="6.60689">
        <ele>1936.71</ele>
        <time>2014-12-05T12:40:24Z</time>
      </trkpt>
      <trkpt lat="45.4934" lon="6.60683">
        <ele>1935.75</ele>
        <time>2014-12-05T12:40:42Z</time>
      </trkpt>
      <trkpt lat="45.49346" lon="6.60682">
        <ele>1932.39</ele>
        <time>2014-12-05T12:40:54Z</time>
      </trkpt>
      <trkpt lat="45.49351" lon="6.6068">
        <ele>1929.98</ele>
        <time>2014-12-05T12:41:06Z</time>
      </trkpt>
      <trkpt lat="45.49355" lon="6.60678">
        <ele>1928.54</ele>
        <time>2014-12-05T12:41:15Z</time>
      </trkpt>
      <trkpt lat="45.49363" lon="6.60677">
        <ele>1926.14</ele>
        <time>2014-12-05T12:41:27Z</time>
      </trkpt>
      <trkpt lat="45.49368" lon="6.60671">
        <ele>1924.7</ele>
        <time>2014-12-05T12:41:41Z</time>
      </trkpt>
      <trkpt lat="45.49371" lon="6.60664">
        <ele>1922.77</ele>
        <time>2014-12-05T12:41:48Z</time>
      </trkpt>
      <trkpt lat="45.49377" lon="6.60647">
        <ele>1919.89</ele>
        <time>2014-12-05T12:42:03Z</time>
      </trkpt>
      <trkpt lat="45.49381" lon="6.60642">
        <ele>1918.45</ele>
        <time>2014-12-05T12:42:17Z</time>
      </trkpt>
      <trkpt lat="45.49385" lon="6.60636">
        <ele>1917.49</ele>
        <time>2014-12-05T12:42:26Z</time>
      </trkpt>
      <trkpt lat="45.4939" lon="6.60632">
        <ele>1914.6</ele>
        <time>2014-12-05T12:42:38Z</time>
      </trkpt>
      <trkpt lat="45.49394" lon="6.60627">
        <ele>1912.68</ele>
        <time>2014-12-05T12:42:49Z</time>
      </trkpt>
      <trkpt lat="45.49405" lon="6.60627">
        <ele>1910.28</ele>
        <time>2014-12-05T12:43:02Z</time>
      </trkpt>
      <trkpt lat="45.49407" lon="6.60628">
        <ele>1909.8</ele>
        <time>2014-12-05T12:43:05Z</time>
      </trkpt>
      <trkpt lat="45.49414" lon="6.60625">
        <ele>1908.35</ele>
        <time>2014-12-05T12:43:15Z</time>
      </trkpt>
      <trkpt lat="45.49428" lon="6.60621">
        <ele>1905.47</ele>
        <time>2014-12-05T12:43:29Z</time>
      </trkpt>
      <trkpt lat="45.49439" lon="6.60616">
        <ele>1903.07</ele>
        <time>2014-12-05T12:43:43Z</time>
      </trkpt>
      <trkpt lat="45.49444" lon="6.60615">
        <ele>1901.63</ele>
        <time>2014-12-05T12:43:47Z</time>
      </trkpt>
      <trkpt lat="45.49461" lon="6.60609">
        <ele>1898.74</ele>
        <time>2014-12-05T12:44:02Z</time>
      </trkpt>
      <trkpt lat="45.49466" lon="6.60609">
        <ele>1898.26</ele>
        <time>2014-12-05T12:44:06Z</time>
      </trkpt>
      <trkpt lat="45.49468" lon="6.60609">
        <ele>1897.78</ele>
        <time>2014-12-05T12:44:08Z</time>
      </trkpt>
      <trkpt lat="45.49475" lon="6.60606">
        <ele>1895.86</ele>
        <time>2014-12-05T12:44:21Z</time>
      </trkpt>
      <trkpt lat="45.49475" lon="6.60606">
        <ele>1895.86</ele>
        <time>2014-12-05T12:44:35Z</time>
      </trkpt>
      <trkpt lat="45.49476" lon="6.60606">
        <ele>1895.86</ele>
        <time>2014-12-05T12:44:54Z</time>
      </trkpt>
      <trkpt lat="45.49474" lon="6.60607">
        <ele>1895.86</ele>
        <time>2014-12-05T12:45:19Z</time>
      </trkpt>
      <trkpt lat="45.49476" lon="6.60606">
        <ele>1895.86</ele>
        <time>2014-12-05T12:45:39Z</time>
      </trkpt>
      <trkpt lat="45.49476" lon="6.60608">
        <ele>1895.86</ele>
        <time>2014-12-05T12:45:54Z</time>
      </trkpt>
      <trkpt lat="45.49481" lon="6.60604">
        <ele>1894.9</ele>
        <time>2014-12-05T12:46:05Z</time>
      </trkpt>
      <trkpt lat="45.49483" lon="6.60603">
        <ele>1894.42</ele>
        <time>2014-12-05T12:46:07Z</time>
      </trkpt>
      <trkpt lat="45.49492" lon="6.60603">
        <ele>1891.05</ele>
        <time>2014-12-05T12:46:20Z</time>
      </trkpt>
      <trkpt lat="45.49495" lon="6.60602">
        <ele>1890.09</ele>
        <time>2014-12-05T12:46:24Z</time>
      </trkpt>
      <trkpt lat="45.49501" lon="6.6059">
        <ele>1887.21</ele>
        <time>2014-12-05T12:46:37Z</time>
      </trkpt>
      <trkpt lat="45.49511" lon="6.60583">
        <ele>1883.84</ele>
        <time>2014-12-05T12:46:49Z</time>
      </trkpt>
      <trkpt lat="45.49518" lon="6.60577">
        <ele>1880</ele>
        <time>2014-12-05T12:47:00Z</time>
      </trkpt>
      <trkpt lat="45.49518" lon="6.60575">
        <ele>1879.51</ele>
        <time>2014-12-05T12:47:02Z</time>
      </trkpt>
      <trkpt lat="45.49523" lon="6.60561">
        <ele>1876.63</ele>
        <time>2014-12-05T12:47:12Z</time>
      </trkpt>
      <trkpt lat="45.49527" lon="6.60555">
        <ele>1875.67</ele>
        <time>2014-12-05T12:47:16Z</time>
      </trkpt>
      <trkpt lat="45.49529" lon="6.6055">
        <ele>1874.71</ele>
        <time>2014-12-05T12:47:20Z</time>
      </trkpt>
      <trkpt lat="45.49532" lon="6.60545">
        <ele>1873.27</ele>
        <time>2014-12-05T12:47:24Z</time>
      </trkpt>
      <trkpt lat="45.49543" lon="6.60534">
        <ele>1869.9</ele>
        <time>2014-12-05T12:47:37Z</time>
      </trkpt>
      <trkpt lat="45.49544" lon="6.60529">
        <ele>1869.42</ele>
        <time>2014-12-05T12:47:40Z</time>
      </trkpt>
      <trkpt lat="45.49548" lon="6.60521">
        <ele>1867.5</ele>
        <time>2014-12-05T12:47:48Z</time>
      </trkpt>
      <trkpt lat="45.49552" lon="6.60513">
        <ele>1865.09</ele>
        <time>2014-12-05T12:47:55Z</time>
      </trkpt>
      <trkpt lat="45.49558" lon="6.60497">
        <ele>1861.73</ele>
        <time>2014-12-05T12:48:06Z</time>
      </trkpt>
      <trkpt lat="45.49558" lon="6.60478">
        <ele>1861.25</ele>
        <time>2014-12-05T12:48:17Z</time>
      </trkpt>
      <trkpt lat="45.49559" lon="6.60471">
        <ele>1859.81</ele>
        <time>2014-12-05T12:48:22Z</time>
      </trkpt>
      <trkpt lat="45.4956" lon="6.60449">
        <ele>1858.37</ele>
        <time>2014-12-05T12:48:34Z</time>
      </trkpt>
      <trkpt lat="45.4956" lon="6.60428">
        <ele>1858.37</ele>
        <time>2014-12-05T12:48:46Z</time>
      </trkpt>
      <trkpt lat="45.49563" lon="6.60417">
        <ele>1858.37</ele>
        <time>2014-12-05T12:48:56Z</time>
      </trkpt>
      <trkpt lat="45.49563" lon="6.60418">
        <ele>1858.37</ele>
        <time>2014-12-05T12:49:11Z</time>
      </trkpt>
      <trkpt lat="45.49562" lon="6.60408">
        <ele>1858.37</ele>
        <time>2014-12-05T12:49:19Z</time>
      </trkpt>
      <trkpt lat="45.49564" lon="6.60404">
        <ele>1857.89</ele>
        <time>2014-12-05T12:49:23Z</time>
      </trkpt>
      <trkpt lat="45.49568" lon="6.60398">
        <ele>1856.92</ele>
        <time>2014-12-05T12:49:35Z</time>
      </trkpt>
      <trkpt lat="45.49568" lon="6.60397">
        <ele>1856.92</ele>
        <time>2014-12-05T12:49:50Z</time>
      </trkpt>
      <trkpt lat="45.49569" lon="6.60396">
        <ele>1856.92</ele>
        <time>2014-12-05T12:50:03Z</time>
      </trkpt>
      <trkpt lat="45.49568" lon="6.60394">
        <ele>1856.44</ele>
        <time>2014-12-05T12:50:20Z</time>
      </trkpt>
      <trkpt lat="45.49569" lon="6.60392">
        <ele>1856.44</ele>
        <time>2014-12-05T12:50:22Z</time>
      </trkpt>
      <trkpt lat="45.49569" lon="6.60387">
        <ele>1856.44</ele>
        <time>2014-12-05T12:50:26Z</time>
      </trkpt>
      <trkpt lat="45.49569" lon="6.60375">
        <ele>1854.52</ele>
        <time>2014-12-05T12:50:37Z</time>
      </trkpt>
      <trkpt lat="45.4957" lon="6.60369">
        <ele>1854.04</ele>
        <time>2014-12-05T12:50:49Z</time>
      </trkpt>
      <trkpt lat="45.4957" lon="6.60365">
        <ele>1853.56</ele>
        <time>2014-12-05T12:51:01Z</time>
      </trkpt>
      <trkpt lat="45.49571" lon="6.60358">
        <ele>1851.64</ele>
        <time>2014-12-05T12:51:06Z</time>
      </trkpt>
      <trkpt lat="45.49571" lon="6.60344">
        <ele>1848.75</ele>
        <time>2014-12-05T12:51:18Z</time>
      </trkpt>
      <trkpt lat="45.49571" lon="6.60341">
        <ele>1848.75</ele>
        <time>2014-12-05T12:51:28Z</time>
      </trkpt>
      <trkpt lat="45.49572" lon="6.60342">
        <ele>1848.75</ele>
        <time>2014-12-05T12:51:52Z</time>
      </trkpt>
      <trkpt lat="45.49571" lon="6.60343">
        <ele>1848.27</ele>
        <time>2014-12-05T12:52:21Z</time>
      </trkpt>
      <trkpt lat="45.49573" lon="6.60343">
        <ele>1848.27</ele>
        <time>2014-12-05T12:52:45Z</time>
      </trkpt>
      <trkpt lat="45.49571" lon="6.60343">
        <ele>1848.27</ele>
        <time>2014-12-05T12:53:14Z</time>
      </trkpt>
      <trkpt lat="45.49571" lon="6.60343">
        <ele>1848.27</ele>
        <time>2014-12-05T12:53:33Z</time>
      </trkpt>
      <trkpt lat="45.4957" lon="6.60344">
        <ele>1848.27</ele>
        <time>2014-12-05T12:54:02Z</time>
      </trkpt>
      <trkpt lat="45.49572" lon="6.60344">
        <ele>1847.79</ele>
        <time>2014-12-05T12:54:12Z</time>
      </trkpt>
      <trkpt lat="45.49573" lon="6.60345">
        <ele>1847.79</ele>
        <time>2014-12-05T12:54:35Z</time>
      </trkpt>
      <trkpt lat="45.49571" lon="6.60344">
        <ele>1847.79</ele>
        <time>2014-12-05T12:54:54Z</time>
      </trkpt>
      <trkpt lat="45.49573" lon="6.60343">
        <ele>1847.79</ele>
        <time>2014-12-05T12:55:26Z</time>
      </trkpt>
      <trkpt lat="45.49572" lon="6.60341">
        <ele>1847.79</ele>
        <time>2014-12-05T12:55:59Z</time>
      </trkpt>
      <trkpt lat="45.4957" lon="6.60344">
        <ele>1847.31</ele>
        <time>2014-12-05T12:56:21Z</time>
      </trkpt>
      <trkpt lat="45.49573" lon="6.60342">
        <ele>1847.31</ele>
        <time>2014-12-05T12:56:38Z</time>
      </trkpt>
      <trkpt lat="45.49572" lon="6.60343">
        <ele>1847.31</ele>
        <time>2014-12-05T12:57:02Z</time>
      </trkpt>
      <trkpt lat="45.49572" lon="6.60341">
        <ele>1847.31</ele>
        <time>2014-12-05T12:57:25Z</time>
      </trkpt>
      <trkpt lat="45.49571" lon="6.60341">
        <ele>1847.31</ele>
        <time>2014-12-05T12:57:49Z</time>
      </trkpt>
      <trkpt lat="45.49572" lon="6.60343">
        <ele>1847.31</ele>
        <time>2014-12-05T12:58:10Z</time>
      </trkpt>
      <trkpt lat="45.49571" lon="6.60343">
        <ele>1847.31</ele>
        <time>2014-12-05T12:58:33Z</time>
      </trkpt>
      <trkpt lat="45.49571" lon="6.60344">
        <ele>1847.31</ele>
        <time>2014-12-05T12:58:51Z</time>
      </trkpt>
      <trkpt lat="45.49572" lon="6.60342">
        <ele>1846.83</ele>
        <time>2014-12-05T12:59:21Z</time>
      </trkpt>
      <trkpt lat="45.49572" lon="6.6034">
        <ele>1846.83</ele>
        <time>2014-12-05T12:59:44Z</time>
      </trkpt>
      <trkpt lat="45.49573" lon="6.60342">
        <ele>1846.83</ele>
        <time>2014-12-05T13:00:13Z</time>
      </trkpt>
      <trkpt lat="45.49572" lon="6.60341">
        <ele>1846.83</ele>
        <time>2014-12-05T13:00:38Z</time>
      </trkpt>
      <trkpt lat="45.49573" lon="6.6034">
        <ele>1846.83</ele>
        <time>2014-12-05T13:00:56Z</time>
      </trkpt>
      <trkpt lat="45.49571" lon="6.60342">
        <ele>1846.83</ele>
        <time>2014-12-05T13:01:19Z</time>
      </trkpt>
      <trkpt lat="45.49573" lon="6.6034">
        <ele>1846.35</ele>
        <time>2014-12-05T13:01:50Z</time>
      </trkpt>
      <trkpt lat="45.49573" lon="6.60339">
        <ele>1846.35</ele>
        <time>2014-12-05T13:02:08Z</time>
      </trkpt>
      <trkpt lat="45.49574" lon="6.60341">
        <ele>1846.35</ele>
        <time>2014-12-05T13:02:35Z</time>
      </trkpt>
      <trkpt lat="45.49573" lon="6.60341">
        <ele>1846.35</ele>
        <time>2014-12-05T13:03:04Z</time>
      </trkpt>
      <trkpt lat="45.49573" lon="6.60338">
        <ele>1846.35</ele>
        <time>2014-12-05T13:03:25Z</time>
      </trkpt>
      <trkpt lat="45.49572" lon="6.60338">
        <ele>1846.35</ele>
        <time>2014-12-05T13:03:40Z</time>
      </trkpt>
      <trkpt lat="45.49573" lon="6.60342">
        <ele>1846.35</ele>
        <time>2014-12-05T13:03:58Z</time>
      </trkpt>
      <trkpt lat="45.49572" lon="6.60342">
        <ele>1846.35</ele>
        <time>2014-12-05T13:04:21Z</time>
      </trkpt>
      <trkpt lat="45.49573" lon="6.60342">
        <ele>1847.31</ele>
        <time>2014-12-05T13:04:56Z</time>
      </trkpt>
      <trkpt lat="45.49573" lon="6.60339">
        <ele>1847.31</ele>
        <time>2014-12-05T13:05:35Z</time>
      </trkpt>
      <trkpt lat="45.49572" lon="6.60343">
        <ele>1847.31</ele>
        <time>2014-12-05T13:06:01Z</time>
      </trkpt>
      <trkpt lat="45.49572" lon="6.60343">
        <ele>1846.83</ele>
        <time>2014-12-05T13:06:24Z</time>
      </trkpt>
      <trkpt lat="45.49573" lon="6.60342">
        <ele>1846.83</ele>
        <time>2014-12-05T13:06:41Z</time>
      </trkpt>
      <trkpt lat="45.49572" lon="6.60337">
        <ele>1845.87</ele>
        <time>2014-12-05T13:06:54Z</time>
      </trkpt>
      <trkpt lat="45.4957" lon="6.60334">
        <ele>1844.91</ele>
        <time>2014-12-05T13:06:58Z</time>
      </trkpt>
      <trkpt lat="45.49566" lon="6.60333">
        <ele>1844.43</ele>
        <time>2014-12-05T13:07:13Z</time>
      </trkpt>
      <trkpt lat="45.49568" lon="6.60336">
        <ele>1844.43</ele>
        <time>2014-12-05T13:07:28Z</time>
      </trkpt>
      <trkpt lat="45.49567" lon="6.60337">
        <ele>1845.39</ele>
        <time>2014-12-05T13:07:38Z</time>
      </trkpt>
      <trkpt lat="45.49568" lon="6.60336">
        <ele>1845.39</ele>
        <time>2014-12-05T13:07:57Z</time>
      </trkpt>
      <trkpt lat="45.4957" lon="6.60335">
        <ele>1845.39</ele>
        <time>2014-12-05T13:08:16Z</time>
      </trkpt>
      <trkpt lat="45.49572" lon="6.6034">
        <ele>1846.35</ele>
        <time>2014-12-05T13:08:29Z</time>
      </trkpt>
      <trkpt lat="45.49572" lon="6.60341">
        <ele>1846.35</ele>
        <time>2014-12-05T13:08:42Z</time>
      </trkpt>
      <trkpt lat="45.49572" lon="6.60344">
        <ele>1846.83</ele>
        <time>2014-12-05T13:09:04Z</time>
      </trkpt>
      <trkpt lat="45.49572" lon="6.60342">
        <ele>1846.83</ele>
        <time>2014-12-05T13:09:23Z</time>
      </trkpt>
      <trkpt lat="45.49571" lon="6.60343">
        <ele>1846.83</ele>
        <time>2014-12-05T13:09:49Z</time>
      </trkpt>
      <trkpt lat="45.49571" lon="6.60333">
        <ele>1844.43</ele>
        <time>2014-12-05T13:10:04Z</time>
      </trkpt>
      <trkpt lat="45.4957" lon="6.60321">
        <ele>1841.06</ele>
        <time>2014-12-05T13:10:15Z</time>
      </trkpt>
      <trkpt lat="45.49568" lon="6.60316">
        <ele>1839.62</ele>
        <time>2014-12-05T13:10:19Z</time>
      </trkpt>
      <trkpt lat="45.49564" lon="6.60307">
        <ele>1838.66</ele>
        <time>2014-12-05T13:10:26Z</time>
      </trkpt>
      <trkpt lat="45.49561" lon="6.60291">
        <ele>1837.22</ele>
        <time>2014-12-05T13:10:39Z</time>
      </trkpt>
      <trkpt lat="45.4956" lon="6.60288">
        <ele>1836.74</ele>
        <time>2014-12-05T13:10:51Z</time>
      </trkpt>
      <trkpt lat="45.49555" lon="6.60276">
        <ele>1836.74</ele>
        <time>2014-12-05T13:11:01Z</time>
      </trkpt>
      <trkpt lat="45.49554" lon="6.60266">
        <ele>1836.74</ele>
        <time>2014-12-05T13:11:07Z</time>
      </trkpt>
      <trkpt lat="45.49555" lon="6.60255">
        <ele>1839.62</ele>
        <time>2014-12-05T13:11:19Z</time>
      </trkpt>
      <trkpt lat="45.49556" lon="6.6025">
        <ele>1840.1</ele>
        <time>2014-12-05T13:11:24Z</time>
      </trkpt>
      <trkpt lat="45.49558" lon="6.60242">
        <ele>1838.66</ele>
        <time>2014-12-05T13:11:33Z</time>
      </trkpt>
      <trkpt lat="45.49559" lon="6.6024">
        <ele>1838.18</ele>
        <time>2014-12-05T13:11:35Z</time>
      </trkpt>
      <trkpt lat="45.49559" lon="6.60232">
        <ele>1837.22</ele>
        <time>2014-12-05T13:11:51Z</time>
      </trkpt>
      <trkpt lat="45.49559" lon="6.60233">
        <ele>1836.74</ele>
        <time>2014-12-05T13:12:10Z</time>
      </trkpt>
      <trkpt lat="45.49558" lon="6.60223">
        <ele>1834.81</ele>
        <time>2014-12-05T13:12:31Z</time>
      </trkpt>
      <trkpt lat="45.49561" lon="6.60208">
        <ele>1833.85</ele>
        <time>2014-12-05T13:12:40Z</time>
      </trkpt>
      <trkpt lat="45.49561" lon="6.60201">
        <ele>1834.33</ele>
        <time>2014-12-05T13:12:53Z</time>
      </trkpt>
      <trkpt lat="45.49562" lon="6.60199">
        <ele>1834.33</ele>
        <time>2014-12-05T13:13:12Z</time>
      </trkpt>
      <trkpt lat="45.49561" lon="6.60197">
        <ele>1834.33</ele>
        <time>2014-12-05T13:13:19Z</time>
      </trkpt>
      <trkpt lat="45.49561" lon="6.60193">
        <ele>1833.85</ele>
        <time>2014-12-05T13:13:23Z</time>
      </trkpt>
      <trkpt lat="45.49562" lon="6.60176">
        <ele>1831.93</ele>
        <time>2014-12-05T13:13:36Z</time>
      </trkpt>
      <trkpt lat="45.49562" lon="6.6017">
        <ele>1830.97</ele>
        <time>2014-12-05T13:13:40Z</time>
      </trkpt>
      <trkpt lat="45.49562" lon="6.60155">
        <ele>1829.05</ele>
        <time>2014-12-05T13:13:48Z</time>
      </trkpt>
      <trkpt lat="45.49562" lon="6.60152">
        <ele>1829.05</ele>
        <time>2014-12-05T13:13:50Z</time>
      </trkpt>
      <trkpt lat="45.49562" lon="6.60137">
        <ele>1826.16</ele>
        <time>2014-12-05T13:14:00Z</time>
      </trkpt>
      <trkpt lat="45.49564" lon="6.60122">
        <ele>1823.28</ele>
        <time>2014-12-05T13:14:12Z</time>
      </trkpt>
      <trkpt lat="45.49563" lon="6.60113">
        <ele>1819.91</ele>
        <time>2014-12-05T13:14:21Z</time>
      </trkpt>
      <trkpt lat="45.49567" lon="6.60109">
        <ele>1820.39</ele>
        <time>2014-12-05T13:14:31Z</time>
      </trkpt>
      <trkpt lat="45.49567" lon="6.6011">
        <ele>1818.95</ele>
        <time>2014-12-05T13:14:44Z</time>
      </trkpt>
      <trkpt lat="45.49569" lon="6.6011">
        <ele>1819.43</ele>
        <time>2014-12-05T13:14:59Z</time>
      </trkpt>
      <trkpt lat="45.49581" lon="6.60101">
        <ele>1815.11</ele>
        <time>2014-12-05T13:15:12Z</time>
      </trkpt>
      <trkpt lat="45.49588" lon="6.60093">
        <ele>1812.22</ele>
        <time>2014-12-05T13:15:23Z</time>
      </trkpt>
      <trkpt lat="45.49594" lon="6.60092">
        <ele>1809.82</ele>
        <time>2014-12-05T13:15:31Z</time>
      </trkpt>
      <trkpt lat="45.49596" lon="6.60079">
        <ele>1807.42</ele>
        <time>2014-12-05T13:15:40Z</time>
      </trkpt>
      <trkpt lat="45.49595" lon="6.60057">
        <ele>1804.53</ele>
        <time>2014-12-05T13:15:52Z</time>
      </trkpt>
      <trkpt lat="45.49594" lon="6.60052">
        <ele>1804.05</ele>
        <time>2014-12-05T13:15:56Z</time>
      </trkpt>
      <trkpt lat="45.49592" lon="6.6005">
        <ele>1803.57</ele>
        <time>2014-12-05T13:15:58Z</time>
      </trkpt>
      <trkpt lat="45.49591" lon="6.60042">
        <ele>1801.65</ele>
        <time>2014-12-05T13:16:03Z</time>
      </trkpt>
      <trkpt lat="45.49589" lon="6.6004">
        <ele>1801.65</ele>
        <time>2014-12-05T13:16:05Z</time>
      </trkpt>
      <trkpt lat="45.49588" lon="6.60032">
        <ele>1800.21</ele>
        <time>2014-12-05T13:16:09Z</time>
      </trkpt>
      <trkpt lat="45.4958" lon="6.60008">
        <ele>1797.32</ele>
        <time>2014-12-05T13:16:23Z</time>
      </trkpt>
      <trkpt lat="45.49571" lon="6.59996">
        <ele>1794.92</ele>
        <time>2014-12-05T13:16:37Z</time>
      </trkpt>
      <trkpt lat="45.49568" lon="6.59991">
        <ele>1794.44</ele>
        <time>2014-12-05T13:16:41Z</time>
      </trkpt>
      <trkpt lat="45.49557" lon="6.59979">
        <ele>1793.48</ele>
        <time>2014-12-05T13:16:55Z</time>
      </trkpt>
      <trkpt lat="45.49552" lon="6.59975">
        <ele>1794.92</ele>
        <time>2014-12-05T13:17:10Z</time>
      </trkpt>
      <trkpt lat="45.49551" lon="6.59974">
        <ele>1794.92</ele>
        <time>2014-12-05T13:17:13Z</time>
      </trkpt>
      <trkpt lat="45.49545" lon="6.5997">
        <ele>1795.88</ele>
        <time>2014-12-05T13:17:25Z</time>
      </trkpt>
      <trkpt lat="45.49546" lon="6.59961">
        <ele>1795.88</ele>
        <time>2014-12-05T13:17:40Z</time>
      </trkpt>
      <trkpt lat="45.4955" lon="6.59962">
        <ele>1795.88</ele>
        <time>2014-12-05T13:17:55Z</time>
      </trkpt>
      <trkpt lat="45.49552" lon="6.59959">
        <ele>1794.92</ele>
        <time>2014-12-05T13:18:15Z</time>
      </trkpt>
      <trkpt lat="45.49552" lon="6.59959">
        <ele>1794.92</ele>
        <time>2014-12-05T13:18:18Z</time>
      </trkpt>
      <trkpt lat="45.49553" lon="6.59967">
        <ele>1794.92</ele>
        <time>2014-12-05T13:18:36Z</time>
      </trkpt>
      <trkpt lat="45.49556" lon="6.5996">
        <ele>1794.92</ele>
        <time>2014-12-05T13:18:51Z</time>
      </trkpt>
      <trkpt lat="45.49556" lon="6.59958">
        <ele>1794.92</ele>
        <time>2014-12-05T13:19:13Z</time>
      </trkpt>
      <trkpt lat="45.49546" lon="6.59961">
        <ele>1794.92</ele>
        <time>2014-12-05T13:19:23Z</time>
      </trkpt>
      <trkpt lat="45.49544" lon="6.59963">
        <ele>1794.92</ele>
        <time>2014-12-05T13:19:46Z</time>
      </trkpt>
      <trkpt lat="45.49547" lon="6.59965">
        <ele>1794.92</ele>
        <time>2014-12-05T13:20:01Z</time>
      </trkpt>
      <trkpt lat="45.49549" lon="6.59963">
        <ele>1794.92</ele>
        <time>2014-12-05T13:20:11Z</time>
      </trkpt>
      <trkpt lat="45.49551" lon="6.59967">
        <ele>1794.92</ele>
        <time>2014-12-05T13:20:25Z</time>
      </trkpt>
      <trkpt lat="45.49554" lon="6.59966">
        <ele>1794.92</ele>
        <time>2014-12-05T13:20:41Z</time>
      </trkpt>
      <trkpt lat="45.49552" lon="6.59967">
        <ele>1794.92</ele>
        <time>2014-12-05T13:21:03Z</time>
      </trkpt>
      <trkpt lat="45.49553" lon="6.59968">
        <ele>1794.92</ele>
        <time>2014-12-05T13:21:17Z</time>
      </trkpt>
      <trkpt lat="45.49556" lon="6.5997">
        <ele>1793.96</ele>
        <time>2014-12-05T13:21:24Z</time>
      </trkpt>
      <trkpt lat="45.49568" lon="6.59974">
        <ele>1791.07</ele>
        <time>2014-12-05T13:21:36Z</time>
      </trkpt>
      <trkpt lat="45.49585" lon="6.59973">
        <ele>1787.71</ele>
        <time>2014-12-05T13:21:50Z</time>
      </trkpt>
      <trkpt lat="45.49601" lon="6.59979">
        <ele>1783.86</ele>
        <time>2014-12-05T13:22:02Z</time>
      </trkpt>
      <trkpt lat="45.49608" lon="6.59982">
        <ele>1782.9</ele>
        <time>2014-12-05T13:22:07Z</time>
      </trkpt>
      <trkpt lat="45.49628" lon="6.5999">
        <ele>1779.06</ele>
        <time>2014-12-05T13:22:21Z</time>
      </trkpt>
      <trkpt lat="45.4963" lon="6.59989">
        <ele>1779.06</ele>
        <time>2014-12-05T13:22:23Z</time>
      </trkpt>
      <trkpt lat="45.49627" lon="6.59978">
        <ele>1776.65</ele>
        <time>2014-12-05T13:22:36Z</time>
      </trkpt>
      <trkpt lat="45.49622" lon="6.59967">
        <ele>1775.69</ele>
        <time>2014-12-05T13:22:45Z</time>
      </trkpt>
      <trkpt lat="45.49618" lon="6.59958">
        <ele>1774.25</ele>
        <time>2014-12-05T13:22:51Z</time>
      </trkpt>
      <trkpt lat="45.49613" lon="6.59938">
        <ele>1770.41</ele>
        <time>2014-12-05T13:23:03Z</time>
      </trkpt>
      <trkpt lat="45.49609" lon="6.59912">
        <ele>1768</ele>
        <time>2014-12-05T13:23:14Z</time>
      </trkpt>
      <trkpt lat="45.49606" lon="6.59904">
        <ele>1767.04</ele>
        <time>2014-12-05T13:23:18Z</time>
      </trkpt>
      <trkpt lat="45.49599" lon="6.59888">
        <ele>1763.68</ele>
        <time>2014-12-05T13:23:28Z</time>
      </trkpt>
      <trkpt lat="45.49581" lon="6.59875">
        <ele>1760.79</ele>
        <time>2014-12-05T13:23:42Z</time>
      </trkpt>
      <trkpt lat="45.49561" lon="6.5986">
        <ele>1757.91</ele>
        <time>2014-12-05T13:23:57Z</time>
      </trkpt>
      <trkpt lat="45.49539" lon="6.59844">
        <ele>1754.54</ele>
        <time>2014-12-05T13:24:12Z</time>
      </trkpt>
      <trkpt lat="45.49522" lon="6.59826">
        <ele>1751.66</ele>
        <time>2014-12-05T13:24:26Z</time>
      </trkpt>
      <trkpt lat="45.49513" lon="6.59809">
        <ele>1748.78</ele>
        <time>2014-12-05T13:24:38Z</time>
      </trkpt>
      <trkpt lat="45.49512" lon="6.59807">
        <ele>1748.78</ele>
        <time>2014-12-05T13:24:51Z</time>
      </trkpt>
      <trkpt lat="45.4951" lon="6.59811">
        <ele>1748.78</ele>
        <time>2014-12-05T13:25:15Z</time>
      </trkpt>
      <trkpt lat="45.4951" lon="6.59808">
        <ele>1748.78</ele>
        <time>2014-12-05T13:25:33Z</time>
      </trkpt>
      <trkpt lat="45.49511" lon="6.59807">
        <ele>1748.78</ele>
        <time>2014-12-05T13:25:48Z</time>
      </trkpt>
      <trkpt lat="45.49511" lon="6.59809">
        <ele>1748.78</ele>
        <time>2014-12-05T13:26:08Z</time>
      </trkpt>
      <trkpt lat="45.4951" lon="6.5981">
        <ele>1748.78</ele>
        <time>2014-12-05T13:26:24Z</time>
      </trkpt>
      <trkpt lat="45.49508" lon="6.59814">
        <ele>1748.78</ele>
        <time>2014-12-05T13:26:53Z</time>
      </trkpt>
      <trkpt lat="45.49509" lon="6.59809">
        <ele>1748.78</ele>
        <time>2014-12-05T13:27:13Z</time>
      </trkpt>
      <trkpt lat="45.49511" lon="6.59809">
        <ele>1748.78</ele>
        <time>2014-12-05T13:27:23Z</time>
      </trkpt>
      <trkpt lat="45.49511" lon="6.5981">
        <ele>1748.78</ele>
        <time>2014-12-05T13:27:40Z</time>
      </trkpt>
      <trkpt lat="45.49512" lon="6.59798">
        <ele>1745.89</ele>
        <time>2014-12-05T13:27:53Z</time>
      </trkpt>
      <trkpt lat="45.49506" lon="6.59789">
        <ele>1742.53</ele>
        <time>2014-12-05T13:28:04Z</time>
      </trkpt>
      <trkpt lat="45.49506" lon="6.59786">
        <ele>1742.05</ele>
        <time>2014-12-05T13:28:07Z</time>
      </trkpt>
      <trkpt lat="45.49502" lon="6.59777">
        <ele>1739.16</ele>
        <time>2014-12-05T13:28:14Z</time>
      </trkpt>
      <trkpt lat="45.49502" lon="6.5977">
        <ele>1737.24</ele>
        <time>2014-12-05T13:28:19Z</time>
      </trkpt>
      <trkpt lat="45.49499" lon="6.59758">
        <ele>1734.36</ele>
        <time>2014-12-05T13:28:27Z</time>
      </trkpt>
      <trkpt lat="45.49499" lon="6.59752">
        <ele>1732.43</ele>
        <time>2014-12-05T13:28:31Z</time>
      </trkpt>
      <trkpt lat="45.49497" lon="6.59739">
        <ele>1729.07</ele>
        <time>2014-12-05T13:28:40Z</time>
      </trkpt>
      <trkpt lat="45.49496" lon="6.59732">
        <ele>1727.63</ele>
        <time>2014-12-05T13:28:44Z</time>
      </trkpt>
      <trkpt lat="45.49495" lon="6.59719">
        <ele>1724.26</ele>
        <time>2014-12-05T13:28:52Z</time>
      </trkpt>
      <trkpt lat="45.49495" lon="6.59707">
        <ele>1720.9</ele>
        <time>2014-12-05T13:29:00Z</time>
      </trkpt>
      <trkpt lat="45.49493" lon="6.59693">
        <ele>1717.53</ele>
        <time>2014-12-05T13:29:08Z</time>
      </trkpt>
      <trkpt lat="45.49492" lon="6.5969">
        <ele>1717.05</ele>
        <time>2014-12-05T13:29:10Z</time>
      </trkpt>
      <trkpt lat="45.49489" lon="6.59686">
        <ele>1715.61</ele>
        <time>2014-12-05T13:29:14Z</time>
      </trkpt>
      <trkpt lat="45.49484" lon="6.59674">
        <ele>1711.76</ele>
        <time>2014-12-05T13:29:25Z</time>
      </trkpt>
      <trkpt lat="45.49479" lon="6.59664">
        <ele>1708.4</ele>
        <time>2014-12-05T13:29:36Z</time>
      </trkpt>
      <trkpt lat="45.49476" lon="6.59654">
        <ele>1704.55</ele>
        <time>2014-12-05T13:29:49Z</time>
      </trkpt>
      <trkpt lat="45.49476" lon="6.59652">
        <ele>1704.07</ele>
        <time>2014-12-05T13:29:51Z</time>
      </trkpt>
      <trkpt lat="45.49471" lon="6.59645">
        <ele>1700.71</ele>
        <time>2014-12-05T13:29:59Z</time>
      </trkpt>
      <trkpt lat="45.49467" lon="6.59639">
        <ele>1697.34</ele>
        <time>2014-12-05T13:30:08Z</time>
      </trkpt>
      <trkpt lat="45.49465" lon="6.59636">
        <ele>1695.9</ele>
        <time>2014-12-05T13:30:18Z</time>
      </trkpt>
      <trkpt lat="45.49466" lon="6.59633">
        <ele>1695.9</ele>
        <time>2014-12-05T13:30:38Z</time>
      </trkpt>
      <trkpt lat="45.49466" lon="6.59633">
        <ele>1695.42</ele>
        <time>2014-12-05T13:30:55Z</time>
      </trkpt>
      <trkpt lat="45.49462" lon="6.59627">
        <ele>1692.06</ele>
        <time>2014-12-05T13:31:06Z</time>
      </trkpt>
      <trkpt lat="45.49456" lon="6.59622">
        <ele>1688.69</ele>
        <time>2014-12-05T13:31:17Z</time>
      </trkpt>
      <trkpt lat="45.49454" lon="6.59614">
        <ele>1685.33</ele>
        <time>2014-12-05T13:31:26Z</time>
      </trkpt>
      <trkpt lat="45.49453" lon="6.59606">
        <ele>1682.44</ele>
        <time>2014-12-05T13:31:34Z</time>
      </trkpt>
      <trkpt lat="45.49453" lon="6.59596">
        <ele>1679.08</ele>
        <time>2014-12-05T13:31:43Z</time>
      </trkpt>
      <trkpt lat="45.49451" lon="6.59585">
        <ele>1676.2</ele>
        <time>2014-12-05T13:31:51Z</time>
      </trkpt>
      <trkpt lat="45.49451" lon="6.59583">
        <ele>1675.72</ele>
        <time>2014-12-05T13:31:53Z</time>
      </trkpt>
      <trkpt lat="45.49454" lon="6.59576">
        <ele>1674.27</ele>
        <time>2014-12-05T13:31:59Z</time>
      </trkpt>
      <trkpt lat="45.49447" lon="6.59569">
        <ele>1671.87</ele>
        <time>2014-12-05T13:32:10Z</time>
      </trkpt>
      <trkpt lat="45.49445" lon="6.59567">
        <ele>1670.43</ele>
        <time>2014-12-05T13:32:13Z</time>
      </trkpt>
      <trkpt lat="45.49439" lon="6.59564">
        <ele>1668.51</ele>
        <time>2014-12-05T13:32:19Z</time>
      </trkpt>
      <trkpt lat="45.49438" lon="6.59558">
        <ele>1666.58</ele>
        <time>2014-12-05T13:32:24Z</time>
      </trkpt>
      <trkpt lat="45.49436" lon="6.59548">
        <ele>1663.22</ele>
        <time>2014-12-05T13:32:34Z</time>
      </trkpt>
      <trkpt lat="45.49434" lon="6.59537">
        <ele>1660.33</ele>
        <time>2014-12-05T13:32:43Z</time>
      </trkpt>
      <trkpt lat="45.49433" lon="6.59533">
        <ele>1658.89</ele>
        <time>2014-12-05T13:32:46Z</time>
      </trkpt>
      <trkpt lat="45.49431" lon="6.59526">
        <ele>1657.45</ele>
        <time>2014-12-05T13:32:51Z</time>
      </trkpt>
      <trkpt lat="45.49425" lon="6.59523">
        <ele>1655.05</ele>
        <time>2014-12-05T13:32:59Z</time>
      </trkpt>
      <trkpt lat="45.49425" lon="6.5951">
        <ele>1651.68</ele>
        <time>2014-12-05T13:33:10Z</time>
      </trkpt>
      <trkpt lat="45.49421" lon="6.59504">
        <ele>1648.32</ele>
        <time>2014-12-05T13:33:20Z</time>
      </trkpt>
      <trkpt lat="45.4942" lon="6.59499">
        <ele>1647.36</ele>
        <time>2014-12-05T13:33:24Z</time>
      </trkpt>
      <trkpt lat="45.49415" lon="6.59496">
        <ele>1645.43</ele>
        <time>2014-12-05T13:33:30Z</time>
      </trkpt>
      <trkpt lat="45.4941" lon="6.5949">
        <ele>1642.55</ele>
        <time>2014-12-05T13:33:41Z</time>
      </trkpt>
      <trkpt lat="45.49404" lon="6.5949">
        <ele>1642.07</ele>
        <time>2014-12-05T13:33:49Z</time>
      </trkpt>
      <trkpt lat="45.49404" lon="6.59477">
        <ele>1638.7</ele>
        <time>2014-12-05T13:33:58Z</time>
      </trkpt>
      <trkpt lat="45.49404" lon="6.59473">
        <ele>1637.74</ele>
        <time>2014-12-05T13:34:02Z</time>
      </trkpt>
      <trkpt lat="45.49403" lon="6.59471">
        <ele>1637.26</ele>
        <time>2014-12-05T13:34:04Z</time>
      </trkpt>
      <trkpt lat="45.49398" lon="6.59461">
        <ele>1633.42</ele>
        <time>2014-12-05T13:34:17Z</time>
      </trkpt>
      <trkpt lat="45.49393" lon="6.59459">
        <ele>1633.42</ele>
        <time>2014-12-05T13:34:24Z</time>
      </trkpt>
      <trkpt lat="45.4939" lon="6.59462">
        <ele>1632.94</ele>
        <time>2014-12-05T13:34:27Z</time>
      </trkpt>
      <trkpt lat="45.49386" lon="6.59463">
        <ele>1632.46</ele>
        <time>2014-12-05T13:34:40Z</time>
      </trkpt>
      <trkpt lat="45.49387" lon="6.59465">
        <ele>1632.46</ele>
        <time>2014-12-05T13:34:54Z</time>
      </trkpt>
      <trkpt lat="45.49387" lon="6.59465">
        <ele>1632.46</ele>
        <time>2014-12-05T13:34:56Z</time>
      </trkpt>
      <trkpt lat="45.49394" lon="6.5946">
        <ele>1632.46</ele>
        <time>2014-12-05T13:35:03Z</time>
      </trkpt>
      <trkpt lat="45.49398" lon="6.59453">
        <ele>1632.46</ele>
        <time>2014-12-05T13:35:08Z</time>
      </trkpt>
      <trkpt lat="45.49402" lon="6.59444">
        <ele>1631.49</ele>
        <time>2014-12-05T13:35:14Z</time>
      </trkpt>
      <trkpt lat="45.49408" lon="6.59441">
        <ele>1630.05</ele>
        <time>2014-12-05T13:35:19Z</time>
      </trkpt>
      <trkpt lat="45.49412" lon="6.59435">
        <ele>1629.57</ele>
        <time>2014-12-05T13:35:23Z</time>
      </trkpt>
      <trkpt lat="45.49412" lon="6.59422">
        <ele>1628.13</ele>
        <time>2014-12-05T13:35:39Z</time>
      </trkpt>
      <trkpt lat="45.49411" lon="6.59423">
        <ele>1628.13</ele>
        <time>2014-12-05T13:35:58Z</time>
      </trkpt>
      <trkpt lat="45.49409" lon="6.59422">
        <ele>1628.13</ele>
        <time>2014-12-05T13:36:14Z</time>
      </trkpt>
      <trkpt lat="45.4941" lon="6.59423">
        <ele>1627.65</ele>
        <time>2014-12-05T13:36:35Z</time>
      </trkpt>
      <trkpt lat="45.49412" lon="6.59425">
        <ele>1627.65</ele>
        <time>2014-12-05T13:37:04Z</time>
      </trkpt>
      <trkpt lat="45.49413" lon="6.59428">
        <ele>1627.65</ele>
        <time>2014-12-05T13:37:23Z</time>
      </trkpt>
      <trkpt lat="45.49412" lon="6.59427">
        <ele>1627.65</ele>
        <time>2014-12-05T13:37:46Z</time>
      </trkpt>
      <trkpt lat="45.4941" lon="6.59425">
        <ele>1627.65</ele>
        <time>2014-12-05T13:38:14Z</time>
      </trkpt>
      <trkpt lat="45.49411" lon="6.59425">
        <ele>1627.65</ele>
        <time>2014-12-05T13:38:42Z</time>
      </trkpt>
      <trkpt lat="45.49409" lon="6.59416">
        <ele>1627.17</ele>
        <time>2014-12-05T13:38:51Z</time>
      </trkpt>
      <trkpt lat="45.49409" lon="6.59416">
        <ele>1627.17</ele>
        <time>2014-12-05T13:39:07Z</time>
      </trkpt>
      <trkpt lat="45.49409" lon="6.59419">
        <ele>1627.17</ele>
        <time>2014-12-05T13:39:25Z</time>
      </trkpt>
      <trkpt lat="45.4941" lon="6.59416">
        <ele>1627.17</ele>
        <time>2014-12-05T13:39:31Z</time>
      </trkpt>
      <trkpt lat="45.4941" lon="6.59424">
        <ele>1627.17</ele>
        <time>2014-12-05T13:39:40Z</time>
      </trkpt>
      <trkpt lat="45.49408" lon="6.59419">
        <ele>1626.69</ele>
        <time>2014-12-05T13:39:45Z</time>
      </trkpt>
      <trkpt lat="45.49393" lon="6.59422">
        <ele>1624.28</ele>
        <time>2014-12-05T13:40:00Z</time>
      </trkpt>
      <trkpt lat="45.49375" lon="6.59422">
        <ele>1621.88</ele>
        <time>2014-12-05T13:40:15Z</time>
      </trkpt>
      <trkpt lat="45.49359" lon="6.59425">
        <ele>1619.96</ele>
        <time>2014-12-05T13:40:30Z</time>
      </trkpt>
      <trkpt lat="45.49358" lon="6.59426">
        <ele>1619.48</ele>
        <time>2014-12-05T13:40:41Z</time>
      </trkpt>
      <trkpt lat="45.49359" lon="6.5941">
        <ele>1616.11</ele>
        <time>2014-12-05T13:40:54Z</time>
      </trkpt>
      <trkpt lat="45.49358" lon="6.5941">
        <ele>1616.11</ele>
        <time>2014-12-05T13:40:55Z</time>
      </trkpt>
      <trkpt lat="45.49355" lon="6.59397">
        <ele>1612.27</ele>
        <time>2014-12-05T13:41:06Z</time>
      </trkpt>
      <trkpt lat="45.49355" lon="6.59394">
        <ele>1610.83</ele>
        <time>2014-12-05T13:41:10Z</time>
      </trkpt>
      <trkpt lat="45.49359" lon="6.59391">
        <ele>1610.83</ele>
        <time>2014-12-05T13:41:16Z</time>
      </trkpt>
      <trkpt lat="45.49363" lon="6.59385">
        <ele>1610.35</ele>
        <time>2014-12-05T13:41:27Z</time>
      </trkpt>
      <trkpt lat="45.49364" lon="6.59385">
        <ele>1610.35</ele>
        <time>2014-12-05T13:41:43Z</time>
      </trkpt>
      <trkpt lat="45.49365" lon="6.59382">
        <ele>1608.9</ele>
        <time>2014-12-05T13:41:55Z</time>
      </trkpt>
      <trkpt lat="45.49365" lon="6.59381">
        <ele>1608.9</ele>
        <time>2014-12-05T13:42:00Z</time>
      </trkpt>
      <trkpt lat="45.4936" lon="6.59384">
        <ele>1610.35</ele>
        <time>2014-12-05T13:42:13Z</time>
      </trkpt>
      <trkpt lat="45.4936" lon="6.59387">
        <ele>1610.35</ele>
        <time>2014-12-05T13:42:31Z</time>
      </trkpt>
      <trkpt lat="45.4936" lon="6.59387">
        <ele>1610.35</ele>
        <time>2014-12-05T13:42:51Z</time>
      </trkpt>
      <trkpt lat="45.49361" lon="6.59383">
        <ele>1608.9</ele>
        <time>2014-12-05T13:43:05Z</time>
      </trkpt>
      <trkpt lat="45.49359" lon="6.59377">
        <ele>1606.02</ele>
        <time>2014-12-05T13:43:16Z</time>
      </trkpt>
      <trkpt lat="45.49353" lon="6.59371">
        <ele>1603.14</ele>
        <time>2014-12-05T13:43:30Z</time>
      </trkpt>
      <trkpt lat="45.49348" lon="6.59364">
        <ele>1600.25</ele>
        <time>2014-12-05T13:43:44Z</time>
      </trkpt>
      <trkpt lat="45.49349" lon="6.59358">
        <ele>1598.33</ele>
        <time>2014-12-05T13:43:56Z</time>
      </trkpt>
      <trkpt lat="45.49351" lon="6.59351">
        <ele>1596.41</ele>
        <time>2014-12-05T13:44:09Z</time>
      </trkpt>
      <trkpt lat="45.49356" lon="6.59343">
        <ele>1595.45</ele>
        <time>2014-12-05T13:44:21Z</time>
      </trkpt>
      <trkpt lat="45.4936" lon="6.59331">
        <ele>1593.04</ele>
        <time>2014-12-05T13:44:33Z</time>
      </trkpt>
      <trkpt lat="45.49362" lon="6.59321">
        <ele>1589.2</ele>
        <time>2014-12-05T13:44:45Z</time>
      </trkpt>
      <trkpt lat="45.49362" lon="6.5932">
        <ele>1588.72</ele>
        <time>2014-12-05T13:44:46Z</time>
      </trkpt>
      <trkpt lat="45.49361" lon="6.59318">
        <ele>1588.24</ele>
        <time>2014-12-05T13:44:48Z</time>
      </trkpt>
      <trkpt lat="45.4936" lon="6.5931">
        <ele>1585.35</ele>
        <time>2014-12-05T13:44:58Z</time>
      </trkpt>
      <trkpt lat="45.49359" lon="6.59308">
        <ele>1584.39</ele>
        <time>2014-12-05T13:45:02Z</time>
      </trkpt>
      <trkpt lat="45.49351" lon="6.59302">
        <ele>1581.99</ele>
        <time>2014-12-05T13:45:16Z</time>
      </trkpt>
      <trkpt lat="45.49351" lon="6.59298">
        <ele>1580.54</ele>
        <time>2014-12-05T13:45:27Z</time>
      </trkpt>
      <trkpt lat="45.4935" lon="6.59298">
        <ele>1580.54</ele>
        <time>2014-12-05T13:45:42Z</time>
      </trkpt>
      <trkpt lat="45.49347" lon="6.59289">
        <ele>1577.18</ele>
        <time>2014-12-05T13:45:54Z</time>
      </trkpt>
      <trkpt lat="45.49348" lon="6.59285">
        <ele>1575.74</ele>
        <time>2014-12-05T13:46:09Z</time>
      </trkpt>
      <trkpt lat="45.49346" lon="6.59271">
        <ele>1573.33</ele>
        <time>2014-12-05T13:46:26Z</time>
      </trkpt>
      <trkpt lat="45.49343" lon="6.59259">
        <ele>1571.41</ele>
        <time>2014-12-05T13:46:39Z</time>
      </trkpt>
      <trkpt lat="45.49343" lon="6.59255">
        <ele>1571.41</ele>
        <time>2014-12-05T13:46:42Z</time>
      </trkpt>
      <trkpt lat="45.49339" lon="6.59243">
        <ele>1569.97</ele>
        <time>2014-12-05T13:46:54Z</time>
      </trkpt>
      <trkpt lat="45.49336" lon="6.59234">
        <ele>1568.05</ele>
        <time>2014-12-05T13:47:02Z</time>
      </trkpt>
      <trkpt lat="45.49335" lon="6.5922">
        <ele>1564.2</ele>
        <time>2014-12-05T13:47:13Z</time>
      </trkpt>
      <trkpt lat="45.49336" lon="6.59209">
        <ele>1562.28</ele>
        <time>2014-12-05T13:47:22Z</time>
      </trkpt>
      <trkpt lat="45.49336" lon="6.59194">
        <ele>1559.4</ele>
        <time>2014-12-05T13:47:33Z</time>
      </trkpt>
      <trkpt lat="45.49335" lon="6.59181">
        <ele>1556.99</ele>
        <time>2014-12-05T13:47:44Z</time>
      </trkpt>
      <trkpt lat="45.49334" lon="6.59164">
        <ele>1554.59</ele>
        <time>2014-12-05T13:47:57Z</time>
      </trkpt>
      <trkpt lat="45.49334" lon="6.59152">
        <ele>1551.22</ele>
        <time>2014-12-05T13:48:07Z</time>
      </trkpt>
      <trkpt lat="45.49332" lon="6.59142">
        <ele>1547.86</ele>
        <time>2014-12-05T13:48:18Z</time>
      </trkpt>
      <trkpt lat="45.49328" lon="6.59136">
        <ele>1545.94</ele>
        <time>2014-12-05T13:48:32Z</time>
      </trkpt>
      <trkpt lat="45.4933" lon="6.59135">
        <ele>1545.46</ele>
        <time>2014-12-05T13:49:08Z</time>
      </trkpt>
      <trkpt lat="45.49332" lon="6.59139">
        <ele>1545.46</ele>
        <time>2014-12-05T13:49:36Z</time>
      </trkpt>
      <trkpt lat="45.49329" lon="6.59135">
        <ele>1545.46</ele>
        <time>2014-12-05T13:50:12Z</time>
      </trkpt>
      <trkpt lat="45.49329" lon="6.59133">
        <ele>1545.46</ele>
        <time>2014-12-05T13:50:20Z</time>
      </trkpt>
      <trkpt lat="45.49327" lon="6.59126">
        <ele>1543.05</ele>
        <time>2014-12-05T13:50:27Z</time>
      </trkpt>
      <trkpt lat="45.49323" lon="6.59121">
        <ele>1541.61</ele>
        <time>2014-12-05T13:50:32Z</time>
      </trkpt>
      <trkpt lat="45.49323" lon="6.59118">
        <ele>1541.13</ele>
        <time>2014-12-05T13:50:34Z</time>
      </trkpt>
      <trkpt lat="45.49319" lon="6.59103">
        <ele>1537.29</ele>
        <time>2014-12-05T13:50:47Z</time>
      </trkpt>
      <trkpt lat="45.49317" lon="6.59091">
        <ele>1533.92</ele>
        <time>2014-12-05T13:50:57Z</time>
      </trkpt>
      <trkpt lat="45.49317" lon="6.5908">
        <ele>1532.48</ele>
        <time>2014-12-05T13:51:04Z</time>
      </trkpt>
      <trkpt lat="45.49316" lon="6.59076">
        <ele>1531.52</ele>
        <time>2014-12-05T13:51:07Z</time>
      </trkpt>
      <trkpt lat="45.49315" lon="6.59073">
        <ele>1531.04</ele>
        <time>2014-12-05T13:51:09Z</time>
      </trkpt>
      <trkpt lat="45.49314" lon="6.59054">
        <ele>1527.67</ele>
        <time>2014-12-05T13:51:20Z</time>
      </trkpt>
      <trkpt lat="45.49314" lon="6.59049">
        <ele>1526.71</ele>
        <time>2014-12-05T13:51:23Z</time>
      </trkpt>
      <trkpt lat="45.49317" lon="6.5904">
        <ele>1525.27</ele>
        <time>2014-12-05T13:51:35Z</time>
      </trkpt>
      <trkpt lat="45.49316" lon="6.59037">
        <ele>1525.27</ele>
        <time>2014-12-05T13:51:56Z</time>
      </trkpt>
      <trkpt lat="45.49317" lon="6.59034">
        <ele>1525.27</ele>
        <time>2014-12-05T13:52:03Z</time>
      </trkpt>
      <trkpt lat="45.49325" lon="6.59037">
        <ele>1523.35</ele>
        <time>2014-12-05T13:52:13Z</time>
      </trkpt>
      <trkpt lat="45.49326" lon="6.59035">
        <ele>1522.39</ele>
        <time>2014-12-05T13:52:20Z</time>
      </trkpt>
      <trkpt lat="45.49325" lon="6.5903">
        <ele>1520.94</ele>
        <time>2014-12-05T13:52:25Z</time>
      </trkpt>
      <trkpt lat="45.49327" lon="6.59029">
        <ele>1520.94</ele>
        <time>2014-12-05T13:52:27Z</time>
      </trkpt>
      <trkpt lat="45.4933" lon="6.59031">
        <ele>1520.94</ele>
        <time>2014-12-05T13:52:32Z</time>
      </trkpt>
      <trkpt lat="45.49335" lon="6.59037">
        <ele>1520.46</ele>
        <time>2014-12-05T13:52:38Z</time>
      </trkpt>
      <trkpt lat="45.4934" lon="6.5905">
        <ele>1519.98</ele>
        <time>2014-12-05T13:52:46Z</time>
      </trkpt>
      <trkpt lat="45.49342" lon="6.59054">
        <ele>1519.5</ele>
        <time>2014-12-05T13:52:49Z</time>
      </trkpt>
      <trkpt lat="45.49347" lon="6.5906">
        <ele>1519.02</ele>
        <time>2014-12-05T13:52:54Z</time>
      </trkpt>
      <trkpt lat="45.49351" lon="6.59064">
        <ele>1518.54</ele>
        <time>2014-12-05T13:52:58Z</time>
      </trkpt>
      <trkpt lat="45.49357" lon="6.59072">
        <ele>1518.06</ele>
        <time>2014-12-05T13:53:04Z</time>
      </trkpt>
      <trkpt lat="45.49365" lon="6.59081">
        <ele>1517.58</ele>
        <time>2014-12-05T13:53:12Z</time>
      </trkpt>
      <trkpt lat="45.49377" lon="6.59093">
        <ele>1517.1</ele>
        <time>2014-12-05T13:53:24Z</time>
      </trkpt>
      <trkpt lat="45.4938" lon="6.59095">
        <ele>1517.1</ele>
        <time>2014-12-05T13:53:26Z</time>
      </trkpt>
      <trkpt lat="45.49384" lon="6.59095">
        <ele>1517.1</ele>
        <time>2014-12-05T13:53:30Z</time>
      </trkpt>
      <trkpt lat="45.49388" lon="6.59097">
        <ele>1517.1</ele>
        <time>2014-12-05T13:53:34Z</time>
      </trkpt>
      <trkpt lat="45.49397" lon="6.59098">
        <ele>1517.1</ele>
        <time>2014-12-05T13:53:40Z</time>
      </trkpt>
      <trkpt lat="45.49413" lon="6.59116">
        <ele>1515.66</ele>
        <time>2014-12-05T13:53:54Z</time>
      </trkpt>
      <trkpt lat="45.49417" lon="6.59125">
        <ele>1515.18</ele>
        <time>2014-12-05T13:53:59Z</time>
      </trkpt>
      <trkpt lat="45.4943" lon="6.59143">
        <ele>1513.25</ele>
        <time>2014-12-05T13:54:12Z</time>
      </trkpt>
      <trkpt lat="45.49434" lon="6.59151">
        <ele>1512.77</ele>
        <time>2014-12-05T13:54:17Z</time>
      </trkpt>
      <trkpt lat="45.49436" lon="6.59154">
        <ele>1512.29</ele>
        <time>2014-12-05T13:54:19Z</time>
      </trkpt>
      <trkpt lat="45.49441" lon="6.59163">
        <ele>1511.81</ele>
        <time>2014-12-05T13:54:26Z</time>
      </trkpt>
      <trkpt lat="45.49454" lon="6.59174">
        <ele>1510.85</ele>
        <time>2014-12-05T13:54:37Z</time>
      </trkpt>
      <trkpt lat="45.49467" lon="6.59193">
        <ele>1509.41</ele>
        <time>2014-12-05T13:54:49Z</time>
      </trkpt>
      <trkpt lat="45.49484" lon="6.59207">
        <ele>1507.97</ele>
        <time>2014-12-05T13:55:03Z</time>
      </trkpt>
      <trkpt lat="45.49485" lon="6.59207">
        <ele>1507.97</ele>
        <time>2014-12-05T13:55:04Z</time>
      </trkpt>
      <trkpt lat="45.49491" lon="6.59208">
        <ele>1507</ele>
        <time>2014-12-05T13:55:09Z</time>
      </trkpt>
      <trkpt lat="45.49511" lon="6.59216">
        <ele>1504.6</ele>
        <time>2014-12-05T13:55:24Z</time>
      </trkpt>
      <trkpt lat="45.49514" lon="6.59216">
        <ele>1505.08</ele>
        <time>2014-12-05T13:55:26Z</time>
      </trkpt>
      <trkpt lat="45.49535" lon="6.5922">
        <ele>1503.64</ele>
        <time>2014-12-05T13:55:41Z</time>
      </trkpt>
      <trkpt lat="45.49541" lon="6.59222">
        <ele>1503.16</ele>
        <time>2014-12-05T13:55:45Z</time>
      </trkpt>
      <trkpt lat="45.49557" lon="6.59229">
        <ele>1502.2</ele>
        <time>2014-12-05T13:55:56Z</time>
      </trkpt>
      <trkpt lat="45.49564" lon="6.59232">
        <ele>1501.24</ele>
        <time>2014-12-05T13:56:02Z</time>
      </trkpt>
      <trkpt lat="45.49572" lon="6.59229">
        <ele>1501.24</ele>
        <time>2014-12-05T13:56:08Z</time>
      </trkpt>
      <trkpt lat="45.49577" lon="6.59225">
        <ele>1500.76</ele>
        <time>2014-12-05T13:56:14Z</time>
      </trkpt>
      <trkpt lat="45.49585" lon="6.59212">
        <ele>1498.83</ele>
        <time>2014-12-05T13:56:28Z</time>
      </trkpt>
      <trkpt lat="45.49586" lon="6.59211">
        <ele>1498.83</ele>
        <time>2014-12-05T13:56:30Z</time>
      </trkpt>
      <trkpt lat="45.4959" lon="6.59208">
        <ele>1498.35</ele>
        <time>2014-12-05T13:56:36Z</time>
      </trkpt>
      <trkpt lat="45.49595" lon="6.59206">
        <ele>1497.39</ele>
        <time>2014-12-05T13:56:41Z</time>
      </trkpt>
      <trkpt lat="45.49603" lon="6.592">
        <ele>1495.95</ele>
        <time>2014-12-05T13:56:47Z</time>
      </trkpt>
      <trkpt lat="45.49606" lon="6.59199">
        <ele>1495.95</ele>
        <time>2014-12-05T13:56:49Z</time>
      </trkpt>
      <trkpt lat="45.49622" lon="6.59194">
        <ele>1494.03</ele>
        <time>2014-12-05T13:57:00Z</time>
      </trkpt>
      <trkpt lat="45.49643" lon="6.59191">
        <ele>1492.58</ele>
        <time>2014-12-05T13:57:13Z</time>
      </trkpt>
      <trkpt lat="45.49657" lon="6.5919">
        <ele>1491.62</ele>
        <time>2014-12-05T13:57:24Z</time>
      </trkpt>
      <trkpt lat="45.49673" lon="6.59188">
        <ele>1489.7</ele>
        <time>2014-12-05T13:57:36Z</time>
      </trkpt>
      <trkpt lat="45.49693" lon="6.59179">
        <ele>1488.74</ele>
        <time>2014-12-05T13:57:51Z</time>
      </trkpt>
      <trkpt lat="45.49704" lon="6.59176">
        <ele>1487.78</ele>
        <time>2014-12-05T13:58:01Z</time>
      </trkpt>
      <trkpt lat="45.49714" lon="6.59175">
        <ele>1487.3</ele>
        <time>2014-12-05T13:58:09Z</time>
      </trkpt>
      <trkpt lat="45.49721" lon="6.59175">
        <ele>1486.82</ele>
        <time>2014-12-05T13:58:14Z</time>
      </trkpt>
      <trkpt lat="45.49724" lon="6.5918">
        <ele>1486.82</ele>
        <time>2014-12-05T13:58:18Z</time>
      </trkpt>
      <trkpt lat="45.49731" lon="6.59181">
        <ele>1486.82</ele>
        <time>2014-12-05T13:58:23Z</time>
      </trkpt>
      <trkpt lat="45.49738" lon="6.59181">
        <ele>1486.34</ele>
        <time>2014-12-05T13:58:28Z</time>
      </trkpt>
      <trkpt lat="45.49754" lon="6.59181">
        <ele>1485.37</ele>
        <time>2014-12-05T13:58:38Z</time>
      </trkpt>
      <trkpt lat="45.49762" lon="6.59184">
        <ele>1484.89</ele>
        <time>2014-12-05T13:58:43Z</time>
      </trkpt>
      <trkpt lat="45.49767" lon="6.59184">
        <ele>1484.89</ele>
        <time>2014-12-05T13:58:46Z</time>
      </trkpt>
      <trkpt lat="45.49775" lon="6.59187">
        <ele>1484.41</ele>
        <time>2014-12-05T13:58:52Z</time>
      </trkpt>
      <trkpt lat="45.49778" lon="6.59189">
        <ele>1483.93</ele>
        <time>2014-12-05T13:58:54Z</time>
      </trkpt>
      <trkpt lat="45.49785" lon="6.59196">
        <ele>1483.45</ele>
        <time>2014-12-05T13:58:59Z</time>
      </trkpt>
      <trkpt lat="45.49806" lon="6.59209">
        <ele>1482.49</ele>
        <time>2014-12-05T13:59:14Z</time>
      </trkpt>
      <trkpt lat="45.49812" lon="6.59214">
        <ele>1482.01</ele>
        <time>2014-12-05T13:59:20Z</time>
      </trkpt>
      <trkpt lat="45.4982" lon="6.5922">
        <ele>1481.53</ele>
        <time>2014-12-05T13:59:26Z</time>
      </trkpt>
      <trkpt lat="45.49822" lon="6.5922">
        <ele>1481.53</ele>
        <time>2014-12-05T13:59:27Z</time>
      </trkpt>
      <trkpt lat="45.49823" lon="6.5922">
        <ele>1481.05</ele>
        <time>2014-12-05T13:59:28Z</time>
      </trkpt>
      <trkpt lat="45.49825" lon="6.59221">
        <ele>1481.05</ele>
        <time>2014-12-05T13:59:29Z</time>
      </trkpt>
      <trkpt lat="45.49826" lon="6.59221">
        <ele>1481.05</ele>
        <time>2014-12-05T13:59:30Z</time>
      </trkpt>
      <trkpt lat="45.49827" lon="6.59222">
        <ele>1481.05</ele>
        <time>2014-12-05T13:59:31Z</time>
      </trkpt>
      <trkpt lat="45.49829" lon="6.59222">
        <ele>1481.05</ele>
        <time>2014-12-05T13:59:32Z</time>
      </trkpt>
      <trkpt lat="45.4983" lon="6.59224">
        <ele>1481.05</ele>
        <time>2014-12-05T13:59:33Z</time>
      </trkpt>
      <trkpt lat="45.49831" lon="6.59224">
        <ele>1480.57</ele>
        <time>2014-12-05T13:59:34Z</time>
      </trkpt>
      <trkpt lat="45.49832" lon="6.59225">
        <ele>1480.57</ele>
        <time>2014-12-05T13:59:35Z</time>
      </trkpt>
      <trkpt lat="45.49833" lon="6.59226">
        <ele>1480.57</ele>
        <time>2014-12-05T13:59:36Z</time>
      </trkpt>
      <trkpt lat="45.49835" lon="6.59227">
        <ele>1480.09</ele>
        <time>2014-12-05T13:59:37Z</time>
      </trkpt>
      <trkpt lat="45.49838" lon="6.59229">
        <ele>1480.09</ele>
        <time>2014-12-05T13:59:40Z</time>
      </trkpt>
      <trkpt lat="45.49845" lon="6.5923">
        <ele>1479.13</ele>
        <time>2014-12-05T13:59:45Z</time>
      </trkpt>
      <trkpt lat="45.49847" lon="6.59231">
        <ele>1479.13</ele>
        <time>2014-12-05T13:59:46Z</time>
      </trkpt>
      <trkpt lat="45.49848" lon="6.59232">
        <ele>1479.13</ele>
        <time>2014-12-05T13:59:47Z</time>
      </trkpt>
      <trkpt lat="45.49849" lon="6.59234">
        <ele>1479.13</ele>
        <time>2014-12-05T13:59:48Z</time>
      </trkpt>
      <trkpt lat="45.4985" lon="6.59234">
        <ele>1478.65</ele>
        <time>2014-12-05T13:59:49Z</time>
      </trkpt>
      <trkpt lat="45.49851" lon="6.59235">
        <ele>1478.65</ele>
        <time>2014-12-05T13:59:50Z</time>
      </trkpt>
      <trkpt lat="45.49852" lon="6.59235">
        <ele>1478.65</ele>
        <time>2014-12-05T13:59:51Z</time>
      </trkpt>
      <trkpt lat="45.49853" lon="6.59236">
        <ele>1478.65</ele>
        <time>2014-12-05T13:59:52Z</time>
      </trkpt>
      <trkpt lat="45.49869" lon="6.5924">
        <ele>1476.72</ele>
        <time>2014-12-05T14:00:05Z</time>
      </trkpt>
      <trkpt lat="45.49873" lon="6.59241">
        <ele>1476.72</ele>
        <time>2014-12-05T14:00:08Z</time>
      </trkpt>
      <trkpt lat="45.49874" lon="6.59241">
        <ele>1476.72</ele>
        <time>2014-12-05T14:00:09Z</time>
      </trkpt>
      <trkpt lat="45.49878" lon="6.59242">
        <ele>1475.76</ele>
        <time>2014-12-05T14:00:12Z</time>
      </trkpt>
      <trkpt lat="45.49878" lon="6.59243">
        <ele>1475.76</ele>
        <time>2014-12-05T14:00:13Z</time>
      </trkpt>
      <trkpt lat="45.49881" lon="6.59245">
        <ele>1475.76</ele>
        <time>2014-12-05T14:00:15Z</time>
      </trkpt>
      <trkpt lat="45.49883" lon="6.59245">
        <ele>1475.28</ele>
        <time>2014-12-05T14:00:16Z</time>
      </trkpt>
      <trkpt lat="45.49886" lon="6.59246">
        <ele>1475.28</ele>
        <time>2014-12-05T14:00:18Z</time>
      </trkpt>
      <trkpt lat="45.49893" lon="6.5925">
        <ele>1474.8</ele>
        <time>2014-12-05T14:00:24Z</time>
      </trkpt>
      <trkpt lat="45.49895" lon="6.5925">
        <ele>1474.32</ele>
        <time>2014-12-05T14:00:25Z</time>
      </trkpt>
      <trkpt lat="45.49896" lon="6.5925">
        <ele>1474.32</ele>
        <time>2014-12-05T14:00:26Z</time>
      </trkpt>
      <trkpt lat="45.499" lon="6.5925">
        <ele>1474.32</ele>
        <time>2014-12-05T14:00:29Z</time>
      </trkpt>
      <trkpt lat="45.49902" lon="6.5925">
        <ele>1473.84</ele>
        <time>2014-12-05T14:00:30Z</time>
      </trkpt>
      <trkpt lat="45.49905" lon="6.59249">
        <ele>1473.84</ele>
        <time>2014-12-05T14:00:32Z</time>
      </trkpt>
      <trkpt lat="45.49907" lon="6.5925">
        <ele>1473.36</ele>
        <time>2014-12-05T14:00:33Z</time>
      </trkpt>
      <trkpt lat="45.49908" lon="6.59252">
        <ele>1473.36</ele>
        <time>2014-12-05T14:00:34Z</time>
      </trkpt>
      <trkpt lat="45.49922" lon="6.5926">
        <ele>1472.4</ele>
        <time>2014-12-05T14:00:46Z</time>
      </trkpt>
      <trkpt lat="45.49928" lon="6.59263">
        <ele>1471.92</ele>
        <time>2014-12-05T14:00:51Z</time>
      </trkpt>
      <trkpt lat="45.49947" lon="6.59274">
        <ele>1470.47</ele>
        <time>2014-12-05T14:01:05Z</time>
      </trkpt>
      <trkpt lat="45.49948" lon="6.59275">
        <ele>1469.99</ele>
        <time>2014-12-05T14:01:06Z</time>
      </trkpt>
      <trkpt lat="45.49949" lon="6.59276">
        <ele>1469.99</ele>
        <time>2014-12-05T14:01:07Z</time>
      </trkpt>
      <trkpt lat="45.49951" lon="6.59277">
        <ele>1469.99</ele>
        <time>2014-12-05T14:01:08Z</time>
      </trkpt>
      <trkpt lat="45.49952" lon="6.59278">
        <ele>1469.51</ele>
        <time>2014-12-05T14:01:09Z</time>
      </trkpt>
      <trkpt lat="45.49954" lon="6.59279">
        <ele>1469.51</ele>
        <time>2014-12-05T14:01:10Z</time>
      </trkpt>
      <trkpt lat="45.49969" lon="6.59281">
        <ele>1468.55</ele>
        <time>2014-12-05T14:01:20Z</time>
      </trkpt>
      <trkpt lat="45.4997" lon="6.59282">
        <ele>1468.07</ele>
        <time>2014-12-05T14:01:21Z</time>
      </trkpt>
      <trkpt lat="45.49971" lon="6.59283">
        <ele>1468.07</ele>
        <time>2014-12-05T14:01:23Z</time>
      </trkpt>
      <trkpt lat="45.49974" lon="6.59284">
        <ele>1467.59</ele>
        <time>2014-12-05T14:01:25Z</time>
      </trkpt>
      <trkpt lat="45.49987" lon="6.59286">
        <ele>1466.15</ele>
        <time>2014-12-05T14:01:35Z</time>
      </trkpt>
      <trkpt lat="45.50002" lon="6.59287">
        <ele>1464.71</ele>
        <time>2014-12-05T14:01:48Z</time>
      </trkpt>
      <trkpt lat="45.50014" lon="6.59292">
        <ele>1464.23</ele>
        <time>2014-12-05T14:02:00Z</time>
      </trkpt>
      <trkpt lat="45.50021" lon="6.59291">
        <ele>1463.74</ele>
        <time>2014-12-05T14:02:05Z</time>
      </trkpt>
      <trkpt lat="45.50029" lon="6.59288">
        <ele>1463.26</ele>
        <time>2014-12-05T14:02:10Z</time>
      </trkpt>
      <trkpt lat="45.50031" lon="6.59287">
        <ele>1463.26</ele>
        <time>2014-12-05T14:02:12Z</time>
      </trkpt>
      <trkpt lat="45.50033" lon="6.59287">
        <ele>1463.26</ele>
        <time>2014-12-05T14:02:13Z</time>
      </trkpt>
      <trkpt lat="45.50035" lon="6.59286">
        <ele>1462.78</ele>
        <time>2014-12-05T14:02:14Z</time>
      </trkpt>
      <trkpt lat="45.50036" lon="6.59284">
        <ele>1462.78</ele>
        <time>2014-12-05T14:02:15Z</time>
      </trkpt>
      <trkpt lat="45.50038" lon="6.59284">
        <ele>1462.78</ele>
        <time>2014-12-05T14:02:16Z</time>
      </trkpt>
      <trkpt lat="45.50058" lon="6.59281">
        <ele>1460.86</ele>
        <time>2014-12-05T14:02:30Z</time>
      </trkpt>
      <trkpt lat="45.50064" lon="6.59287">
        <ele>1459.9</ele>
        <time>2014-12-05T14:02:35Z</time>
      </trkpt>
      <trkpt lat="45.50066" lon="6.59288">
        <ele>1459.9</ele>
        <time>2014-12-05T14:02:36Z</time>
      </trkpt>
      <trkpt lat="45.50067" lon="6.59289">
        <ele>1459.9</ele>
        <time>2014-12-05T14:02:37Z</time>
      </trkpt>
      <trkpt lat="45.50084" lon="6.59313">
        <ele>1457.98</ele>
        <time>2014-12-05T14:02:52Z</time>
      </trkpt>
      <trkpt lat="45.50088" lon="6.59316">
        <ele>1457.5</ele>
        <time>2014-12-05T14:02:55Z</time>
      </trkpt>
      <trkpt lat="45.50089" lon="6.59316">
        <ele>1457.5</ele>
        <time>2014-12-05T14:02:56Z</time>
      </trkpt>
      <trkpt lat="45.50091" lon="6.59318">
        <ele>1457.5</ele>
        <time>2014-12-05T14:02:58Z</time>
      </trkpt>
      <trkpt lat="45.501" lon="6.59321">
        <ele>1456.53</ele>
        <time>2014-12-05T14:03:05Z</time>
      </trkpt>
      <trkpt lat="45.50102" lon="6.59321">
        <ele>1456.53</ele>
        <time>2014-12-05T14:03:06Z</time>
      </trkpt>
      <trkpt lat="45.50103" lon="6.59322">
        <ele>1456.05</ele>
        <time>2014-12-05T14:03:07Z</time>
      </trkpt>
      <trkpt lat="45.50104" lon="6.59323">
        <ele>1456.05</ele>
        <time>2014-12-05T14:03:08Z</time>
      </trkpt>
      <trkpt lat="45.50105" lon="6.59324">
        <ele>1456.05</ele>
        <time>2014-12-05T14:03:09Z</time>
      </trkpt>
      <trkpt lat="45.50114" lon="6.59328">
        <ele>1455.09</ele>
        <time>2014-12-05T14:03:15Z</time>
      </trkpt>
      <trkpt lat="45.50115" lon="6.5933">
        <ele>1455.09</ele>
        <time>2014-12-05T14:03:16Z</time>
      </trkpt>
      <trkpt lat="45.50117" lon="6.59331">
        <ele>1454.61</ele>
        <time>2014-12-05T14:03:17Z</time>
      </trkpt>
      <trkpt lat="45.50118" lon="6.59332">
        <ele>1454.61</ele>
        <time>2014-12-05T14:03:18Z</time>
      </trkpt>
      <trkpt lat="45.50119" lon="6.59333">
        <ele>1454.61</ele>
        <time>2014-12-05T14:03:19Z</time>
      </trkpt>
      <trkpt lat="45.50137" lon="6.59351">
        <ele>1454.13</ele>
        <time>2014-12-05T14:03:33Z</time>
      </trkpt>
      <trkpt lat="45.50153" lon="6.59366">
        <ele>1452.21</ele>
        <time>2014-12-05T14:03:46Z</time>
      </trkpt>
      <trkpt lat="45.50165" lon="6.59382">
        <ele>1450.29</ele>
        <time>2014-12-05T14:03:59Z</time>
      </trkpt>
      <trkpt lat="45.50166" lon="6.59384">
        <ele>1450.29</ele>
        <time>2014-12-05T14:04:00Z</time>
      </trkpt>
      <trkpt lat="45.50168" lon="6.59385">
        <ele>1450.29</ele>
        <time>2014-12-05T14:04:01Z</time>
      </trkpt>
      <trkpt lat="45.50182" lon="6.59398">
        <ele>1448.36</ele>
        <time>2014-12-05T14:04:14Z</time>
      </trkpt>
      <trkpt lat="45.50184" lon="6.59401">
        <ele>1447.4</ele>
        <time>2014-12-05T14:04:16Z</time>
      </trkpt>
      <trkpt lat="45.50186" lon="6.59402">
        <ele>1447.4</ele>
        <time>2014-12-05T14:04:17Z</time>
      </trkpt>
      <trkpt lat="45.50187" lon="6.59402">
        <ele>1447.4</ele>
        <time>2014-12-05T14:04:18Z</time>
      </trkpt>
      <trkpt lat="45.50188" lon="6.59403">
        <ele>1447.4</ele>
        <time>2014-12-05T14:04:19Z</time>
      </trkpt>
      <trkpt lat="45.5019" lon="6.59404">
        <ele>1447.4</ele>
        <time>2014-12-05T14:04:20Z</time>
      </trkpt>
      <trkpt lat="45.50197" lon="6.5941">
        <ele>1446.44</ele>
        <time>2014-12-05T14:04:26Z</time>
      </trkpt>
      <trkpt lat="45.50199" lon="6.59411">
        <ele>1446.44</ele>
        <time>2014-12-05T14:04:27Z</time>
      </trkpt>
      <trkpt lat="45.502" lon="6.59412">
        <ele>1445.96</ele>
        <time>2014-12-05T14:04:28Z</time>
      </trkpt>
      <trkpt lat="45.50202" lon="6.59413">
        <ele>1445.96</ele>
        <time>2014-12-05T14:04:29Z</time>
      </trkpt>
      <trkpt lat="45.50203" lon="6.59415">
        <ele>1445.48</ele>
        <time>2014-12-05T14:04:30Z</time>
      </trkpt>
      <trkpt lat="45.50204" lon="6.59416">
        <ele>1445.48</ele>
        <time>2014-12-05T14:04:31Z</time>
      </trkpt>
      <trkpt lat="45.50207" lon="6.5942">
        <ele>1445</ele>
        <time>2014-12-05T14:04:34Z</time>
      </trkpt>
      <trkpt lat="45.50209" lon="6.59421">
        <ele>1444.52</ele>
        <time>2014-12-05T14:04:35Z</time>
      </trkpt>
      <trkpt lat="45.5021" lon="6.59422">
        <ele>1444.52</ele>
        <time>2014-12-05T14:04:36Z</time>
      </trkpt>
      <trkpt lat="45.50228" lon="6.59437">
        <ele>1442.6</ele>
        <time>2014-12-05T14:04:50Z</time>
      </trkpt>
      <trkpt lat="45.50234" lon="6.59445">
        <ele>1441.63</ele>
        <time>2014-12-05T14:04:56Z</time>
      </trkpt>
      <trkpt lat="45.50235" lon="6.59446">
        <ele>1441.63</ele>
        <time>2014-12-05T14:04:57Z</time>
      </trkpt>
      <trkpt lat="45.50236" lon="6.59448">
        <ele>1441.63</ele>
        <time>2014-12-05T14:04:58Z</time>
      </trkpt>
      <trkpt lat="45.50237" lon="6.59449">
        <ele>1441.15</ele>
        <time>2014-12-05T14:04:59Z</time>
      </trkpt>
      <trkpt lat="45.50239" lon="6.5945">
        <ele>1441.15</ele>
        <time>2014-12-05T14:05:00Z</time>
      </trkpt>
      <trkpt lat="45.50252" lon="6.59467">
        <ele>1439.23</ele>
        <time>2014-12-05T14:05:13Z</time>
      </trkpt>
      <trkpt lat="45.50268" lon="6.59482">
        <ele>1437.79</ele>
        <time>2014-12-05T14:05:27Z</time>
      </trkpt>
      <trkpt lat="45.50271" lon="6.59486">
        <ele>1436.83</ele>
        <time>2014-12-05T14:05:30Z</time>
      </trkpt>
      <trkpt lat="45.50272" lon="6.59486">
        <ele>1436.35</ele>
        <time>2014-12-05T14:05:31Z</time>
      </trkpt>
      <trkpt lat="45.50274" lon="6.59487">
        <ele>1436.35</ele>
        <time>2014-12-05T14:05:32Z</time>
      </trkpt>
      <trkpt lat="45.50275" lon="6.59488">
        <ele>1436.35</ele>
        <time>2014-12-05T14:05:33Z</time>
      </trkpt>
      <trkpt lat="45.50277" lon="6.59488">
        <ele>1435.87</ele>
        <time>2014-12-05T14:05:34Z</time>
      </trkpt>
      <trkpt lat="45.50278" lon="6.59489">
        <ele>1435.87</ele>
        <time>2014-12-05T14:05:35Z</time>
      </trkpt>
      <trkpt lat="45.50294" lon="6.59502">
        <ele>1433.94</ele>
        <time>2014-12-05T14:05:50Z</time>
      </trkpt>
      <trkpt lat="45.50306" lon="6.59513">
        <ele>1432.5</ele>
        <time>2014-12-05T14:06:00Z</time>
      </trkpt>
      <trkpt lat="45.50307" lon="6.59515">
        <ele>1432.02</ele>
        <time>2014-12-05T14:06:01Z</time>
      </trkpt>
      <trkpt lat="45.50309" lon="6.59516">
        <ele>1432.02</ele>
        <time>2014-12-05T14:06:02Z</time>
      </trkpt>
      <trkpt lat="45.50325" lon="6.59526">
        <ele>1429.62</ele>
        <time>2014-12-05T14:06:15Z</time>
      </trkpt>
      <trkpt lat="45.50335" lon="6.59533">
        <ele>1428.18</ele>
        <time>2014-12-05T14:06:24Z</time>
      </trkpt>
      <trkpt lat="45.50336" lon="6.59534">
        <ele>1428.18</ele>
        <time>2014-12-05T14:06:25Z</time>
      </trkpt>
      <trkpt lat="45.50337" lon="6.59535">
        <ele>1428.18</ele>
        <time>2014-12-05T14:06:26Z</time>
      </trkpt>
      <trkpt lat="45.50339" lon="6.59536">
        <ele>1427.7</ele>
        <time>2014-12-05T14:06:27Z</time>
      </trkpt>
      <trkpt lat="45.5034" lon="6.59537">
        <ele>1427.7</ele>
        <time>2014-12-05T14:06:28Z</time>
      </trkpt>
      <trkpt lat="45.50345" lon="6.5954">
        <ele>1427.7</ele>
        <time>2014-12-05T14:06:43Z</time>
      </trkpt>
      <trkpt lat="45.50349" lon="6.59542">
        <ele>1426.73</ele>
        <time>2014-12-05T14:06:56Z</time>
      </trkpt>
      <trkpt lat="45.50355" lon="6.59544">
        <ele>1426.25</ele>
        <time>2014-12-05T14:07:03Z</time>
      </trkpt>
      <trkpt lat="45.50356" lon="6.59544">
        <ele>1426.25</ele>
        <time>2014-12-05T14:07:04Z</time>
      </trkpt>
      <trkpt lat="45.50358" lon="6.59548">
        <ele>1425.77</ele>
        <time>2014-12-05T14:07:19Z</time>
      </trkpt>
      <trkpt lat="45.50362" lon="6.59545">
        <ele>1425.77</ele>
        <time>2014-12-05T14:07:35Z</time>
      </trkpt>
      <trkpt lat="45.50364" lon="6.59544">
        <ele>1425.77</ele>
        <time>2014-12-05T14:07:43Z</time>
      </trkpt>
      <trkpt lat="45.50366" lon="6.59544">
        <ele>1425.77</ele>
        <time>2014-12-05T14:07:45Z</time>
      </trkpt>
      <trkpt lat="45.50367" lon="6.59544">
        <ele>1425.29</ele>
        <time>2014-12-05T14:07:46Z</time>
      </trkpt>
      <trkpt lat="45.50382" lon="6.59539">
        <ele>1423.85</ele>
        <time>2014-12-05T14:08:00Z</time>
      </trkpt>
      <trkpt lat="45.50385" lon="6.59539">
        <ele>1422.89</ele>
        <time>2014-12-05T14:08:04Z</time>
      </trkpt>
      <trkpt lat="45.50386" lon="6.59538">
        <ele>1422.89</ele>
        <time>2014-12-05T14:08:05Z</time>
      </trkpt>
      <trkpt lat="45.50401" lon="6.59528">
        <ele>1420.97</ele>
        <time>2014-12-05T14:08:18Z</time>
      </trkpt>
      <trkpt lat="45.50408" lon="6.59528">
        <ele>1419.52</ele>
        <time>2014-12-05T14:08:25Z</time>
      </trkpt>
      <trkpt lat="45.50431" lon="6.59523">
        <ele>1417.6</ele>
        <time>2014-12-05T14:08:39Z</time>
      </trkpt>
      <trkpt lat="45.50432" lon="6.59523">
        <ele>1417.12</ele>
        <time>2014-12-05T14:08:40Z</time>
      </trkpt>
      <trkpt lat="45.50433" lon="6.59523">
        <ele>1417.12</ele>
        <time>2014-12-05T14:08:41Z</time>
      </trkpt>
      <trkpt lat="45.50434" lon="6.59524">
        <ele>1417.12</ele>
        <time>2014-12-05T14:08:42Z</time>
      </trkpt>
      <trkpt lat="45.50436" lon="6.59524">
        <ele>1416.64</ele>
        <time>2014-12-05T14:08:43Z</time>
      </trkpt>
      <trkpt lat="45.5045" lon="6.59529">
        <ele>1414.72</ele>
        <time>2014-12-05T14:08:54Z</time>
      </trkpt>
      <trkpt lat="45.50464" lon="6.59535">
        <ele>1413.76</ele>
        <time>2014-12-05T14:09:03Z</time>
      </trkpt>
      <trkpt lat="45.50465" lon="6.59535">
        <ele>1413.76</ele>
        <time>2014-12-05T14:09:04Z</time>
      </trkpt>
      <trkpt lat="45.50477" lon="6.59542">
        <ele>1411.83</ele>
        <time>2014-12-05T14:09:14Z</time>
      </trkpt>
      <trkpt lat="45.50478" lon="6.59543">
        <ele>1411.35</ele>
        <time>2014-12-05T14:09:15Z</time>
      </trkpt>
      <trkpt lat="45.50484" lon="6.59541">
        <ele>1410.87</ele>
        <time>2014-12-05T14:09:30Z</time>
      </trkpt>
      <trkpt lat="45.50493" lon="6.59545">
        <ele>1409.91</ele>
        <time>2014-12-05T14:09:49Z</time>
      </trkpt>
      <trkpt lat="45.50503" lon="6.59551">
        <ele>1408.47</ele>
        <time>2014-12-05T14:09:57Z</time>
      </trkpt>
      <trkpt lat="45.50512" lon="6.59555">
        <ele>1406.55</ele>
        <time>2014-12-05T14:10:07Z</time>
      </trkpt>
      <trkpt lat="45.50514" lon="6.59555">
        <ele>1406.55</ele>
        <time>2014-12-05T14:10:08Z</time>
      </trkpt>
      <trkpt lat="45.50526" lon="6.59554">
        <ele>1404.14</ele>
        <time>2014-12-05T14:10:20Z</time>
      </trkpt>
      <trkpt lat="45.50525" lon="6.59555">
        <ele>1403.66</ele>
        <time>2014-12-05T14:10:25Z</time>
      </trkpt>
      <trkpt lat="45.50524" lon="6.59556">
        <ele>1403.66</ele>
        <time>2014-12-05T14:10:26Z</time>
      </trkpt>
      <trkpt lat="45.50531" lon="6.59552">
        <ele>1403.66</ele>
        <time>2014-12-05T14:10:38Z</time>
      </trkpt>
      <trkpt lat="45.50542" lon="6.59546">
        <ele>1403.66</ele>
        <time>2014-12-05T14:10:55Z</time>
      </trkpt>
      <trkpt lat="45.50543" lon="6.5954">
        <ele>1403.18</ele>
        <time>2014-12-05T14:11:14Z</time>
      </trkpt>
      <trkpt lat="45.50543" lon="6.5953">
        <ele>1402.22</ele>
        <time>2014-12-05T14:11:22Z</time>
      </trkpt>
      <trkpt lat="45.50543" lon="6.59527">
        <ele>1401.26</ele>
        <time>2014-12-05T14:11:24Z</time>
      </trkpt>
      <trkpt lat="45.50543" lon="6.59525">
        <ele>1401.26</ele>
        <time>2014-12-05T14:11:25Z</time>
      </trkpt>
      <trkpt lat="45.50543" lon="6.59505">
        <ele>1398.86</ele>
        <time>2014-12-05T14:11:38Z</time>
      </trkpt>
      <trkpt lat="45.50542" lon="6.59482">
        <ele>1397.41</ele>
        <time>2014-12-05T14:11:50Z</time>
      </trkpt>
      <trkpt lat="45.50538" lon="6.59477">
        <ele>1397.41</ele>
        <time>2014-12-05T14:12:11Z</time>
      </trkpt>
      <trkpt lat="45.5054" lon="6.59474">
        <ele>1396.93</ele>
        <time>2014-12-05T14:12:28Z</time>
      </trkpt>
      <trkpt lat="45.50546" lon="6.59461">
        <ele>1394.53</ele>
        <time>2014-12-05T14:12:37Z</time>
      </trkpt>
      <trkpt lat="45.50547" lon="6.59459">
        <ele>1394.53</ele>
        <time>2014-12-05T14:12:38Z</time>
      </trkpt>
      <trkpt lat="45.50548" lon="6.59458">
        <ele>1394.05</ele>
        <time>2014-12-05T14:12:39Z</time>
      </trkpt>
      <trkpt lat="45.50553" lon="6.59445">
        <ele>1391.65</ele>
        <time>2014-12-05T14:12:47Z</time>
      </trkpt>
      <trkpt lat="45.50561" lon="6.5942">
        <ele>1388.76</ele>
        <time>2014-12-05T14:13:01Z</time>
      </trkpt>
      <trkpt lat="45.50565" lon="6.594">
        <ele>1385.4</ele>
        <time>2014-12-05T14:13:13Z</time>
      </trkpt>
      <trkpt lat="45.50568" lon="6.59391">
        <ele>1382.03</ele>
        <time>2014-12-05T14:13:22Z</time>
      </trkpt>
      <trkpt lat="45.5057" lon="6.59387">
        <ele>1380.59</ele>
        <time>2014-12-05T14:13:33Z</time>
      </trkpt>
      <trkpt lat="45.5057" lon="6.59387">
        <ele>1380.59</ele>
        <time>2014-12-05T14:13:49Z</time>
      </trkpt>
      <trkpt lat="45.50571" lon="6.59385">
        <ele>1379.15</ele>
        <time>2014-12-05T14:14:08Z</time>
      </trkpt>
      <trkpt lat="45.50572" lon="6.59379">
        <ele>1376.75</ele>
        <time>2014-12-05T14:14:19Z</time>
      </trkpt>
      <trkpt lat="45.50578" lon="6.59374">
        <ele>1373.38</ele>
        <time>2014-12-05T14:14:28Z</time>
      </trkpt>
      <trkpt lat="45.50581" lon="6.59364">
        <ele>1370.5</ele>
        <time>2014-12-05T14:14:36Z</time>
      </trkpt>
      <trkpt lat="45.50583" lon="6.5936">
        <ele>1369.54</ele>
        <time>2014-12-05T14:14:39Z</time>
      </trkpt>
      <trkpt lat="45.50588" lon="6.59352">
        <ele>1368.09</ele>
        <time>2014-12-05T14:14:44Z</time>
      </trkpt>
      <trkpt lat="45.50595" lon="6.59338">
        <ele>1366.17</ele>
        <time>2014-12-05T14:14:53Z</time>
      </trkpt>
      <trkpt lat="45.50598" lon="6.59327">
        <ele>1364.25</ele>
        <time>2014-12-05T14:15:08Z</time>
      </trkpt>
      <trkpt lat="45.50606" lon="6.59322">
        <ele>1362.33</ele>
        <time>2014-12-05T14:15:21Z</time>
      </trkpt>
      <trkpt lat="45.50609" lon="6.59318">
        <ele>1362.33</ele>
        <time>2014-12-05T14:15:40Z</time>
      </trkpt>
      <trkpt lat="45.50608" lon="6.59321">
        <ele>1363.29</ele>
        <time>2014-12-05T14:15:45Z</time>
      </trkpt>
      <trkpt lat="45.50603" lon="6.59324">
        <ele>1364.73</ele>
        <time>2014-12-05T14:15:54Z</time>
      </trkpt>
      <trkpt lat="45.50587" lon="6.59331">
        <ele>1366.65</ele>
        <time>2014-12-05T14:16:09Z</time>
      </trkpt>
      <trkpt lat="45.50583" lon="6.5933">
        <ele>1366.65</ele>
        <time>2014-12-05T14:16:12Z</time>
      </trkpt>
      <trkpt lat="45.50581" lon="6.59329">
        <ele>1366.65</ele>
        <time>2014-12-05T14:16:14Z</time>
      </trkpt>
      <trkpt lat="45.5057" lon="6.59321">
        <ele>1365.21</ele>
        <time>2014-12-05T14:16:25Z</time>
      </trkpt>
      <trkpt lat="45.50568" lon="6.59319">
        <ele>1364.25</ele>
        <time>2014-12-05T14:16:41Z</time>
      </trkpt>
      <trkpt lat="45.50564" lon="6.5932">
        <ele>1363.29</ele>
        <time>2014-12-05T14:16:48Z</time>
      </trkpt>
      <trkpt lat="45.50556" lon="6.59318">
        <ele>1360.4</ele>
        <time>2014-12-05T14:16:59Z</time>
      </trkpt>
      <trkpt lat="45.50554" lon="6.59315">
        <ele>1359.92</ele>
        <time>2014-12-05T14:17:02Z</time>
      </trkpt>
      <trkpt lat="45.50549" lon="6.59309">
        <ele>1356.08</ele>
        <time>2014-12-05T14:17:14Z</time>
      </trkpt>
      <trkpt lat="45.50548" lon="6.59305">
        <ele>1353.67</ele>
        <time>2014-12-05T14:17:24Z</time>
      </trkpt>
      <trkpt lat="45.50544" lon="6.59302">
        <ele>1350.31</ele>
        <time>2014-12-05T14:17:34Z</time>
      </trkpt>
      <trkpt lat="45.50544" lon="6.59298">
        <ele>1348.87</ele>
        <time>2014-12-05T14:17:41Z</time>
      </trkpt>
      <trkpt lat="45.50545" lon="6.59291">
        <ele>1345.02</ele>
        <time>2014-12-05T14:17:52Z</time>
      </trkpt>
      <trkpt lat="45.50544" lon="6.59285">
        <ele>1343.1</ele>
        <time>2014-12-05T14:18:02Z</time>
      </trkpt>
      <trkpt lat="45.50542" lon="6.5928">
        <ele>1340.22</ele>
        <time>2014-12-05T14:18:13Z</time>
      </trkpt>
      <trkpt lat="45.50541" lon="6.59278">
        <ele>1339.25</ele>
        <time>2014-12-05T14:18:16Z</time>
      </trkpt>
      <trkpt lat="45.50543" lon="6.5927">
        <ele>1335.89</ele>
        <time>2014-12-05T14:18:25Z</time>
      </trkpt>
      <trkpt lat="45.50549" lon="6.59265">
        <ele>1333.01</ele>
        <time>2014-12-05T14:18:35Z</time>
      </trkpt>
      <trkpt lat="45.50553" lon="6.59263">
        <ele>1331.56</ele>
        <time>2014-12-05T14:18:48Z</time>
      </trkpt>
      <trkpt lat="45.50554" lon="6.59263">
        <ele>1331.08</ele>
        <time>2014-12-05T14:18:49Z</time>
      </trkpt>
      <trkpt lat="45.50563" lon="6.5926">
        <ele>1328.2</ele>
        <time>2014-12-05T14:19:02Z</time>
      </trkpt>
      <trkpt lat="45.50563" lon="6.5926">
        <ele>1327.72</ele>
        <time>2014-12-05T14:19:03Z</time>
      </trkpt>
      <trkpt lat="45.50566" lon="6.59255">
        <ele>1326.76</ele>
        <time>2014-12-05T14:19:13Z</time>
      </trkpt>
      <trkpt lat="45.50566" lon="6.59255">
        <ele>1325.8</ele>
        <time>2014-12-05T14:19:15Z</time>
      </trkpt>
      <trkpt lat="45.5057" lon="6.59247">
        <ele>1323.39</ele>
        <time>2014-12-05T14:19:26Z</time>
      </trkpt>
      <trkpt lat="45.50572" lon="6.59243">
        <ele>1322.43</ele>
        <time>2014-12-05T14:19:29Z</time>
      </trkpt>
      <trkpt lat="45.50578" lon="6.59233">
        <ele>1318.59</ele>
        <time>2014-12-05T14:19:40Z</time>
      </trkpt>
      <trkpt lat="45.50582" lon="6.59223">
        <ele>1315.7</ele>
        <time>2014-12-05T14:19:50Z</time>
      </trkpt>
      <trkpt lat="45.50585" lon="6.59216">
        <ele>1315.22</ele>
        <time>2014-12-05T14:19:59Z</time>
      </trkpt>
      <trkpt lat="45.50586" lon="6.59213">
        <ele>1315.22</ele>
        <time>2014-12-05T14:20:01Z</time>
      </trkpt>
      <trkpt lat="45.50579" lon="6.59194">
        <ele>1312.34</ele>
        <time>2014-12-05T14:20:14Z</time>
      </trkpt>
      <trkpt lat="45.50574" lon="6.59179">
        <ele>1309.45</ele>
        <time>2014-12-05T14:20:24Z</time>
      </trkpt>
      <trkpt lat="45.5057" lon="6.59169">
        <ele>1306.09</ele>
        <time>2014-12-05T14:20:34Z</time>
      </trkpt>
      <trkpt lat="45.50569" lon="6.5916">
        <ele>1304.65</ele>
        <time>2014-12-05T14:20:45Z</time>
      </trkpt>
      <trkpt lat="45.50566" lon="6.59157">
        <ele>1304.17</ele>
        <time>2014-12-05T14:20:56Z</time>
      </trkpt>
      <trkpt lat="45.5056" lon="6.59158">
        <ele>1304.65</ele>
        <time>2014-12-05T14:21:06Z</time>
      </trkpt>
      <trkpt lat="45.50562" lon="6.59155">
        <ele>1303.69</ele>
        <time>2014-12-05T14:21:18Z</time>
      </trkpt>
      <trkpt lat="45.50559" lon="6.5915">
        <ele>1302.24</ele>
        <time>2014-12-05T14:21:32Z</time>
      </trkpt>
      <trkpt lat="45.50559" lon="6.59148">
        <ele>1301.28</ele>
        <time>2014-12-05T14:21:40Z</time>
      </trkpt>
      <trkpt lat="45.50558" lon="6.59147">
        <ele>1300.32</ele>
        <time>2014-12-05T14:21:52Z</time>
      </trkpt>
      <trkpt lat="45.50558" lon="6.59146">
        <ele>1300.32</ele>
        <time>2014-12-05T14:21:53Z</time>
      </trkpt>
      <trkpt lat="45.50554" lon="6.59139">
        <ele>1297.92</ele>
        <time>2014-12-05T14:22:02Z</time>
      </trkpt>
      <trkpt lat="45.50554" lon="6.59126">
        <ele>1296.48</ele>
        <time>2014-12-05T14:22:13Z</time>
      </trkpt>
      <trkpt lat="45.50545" lon="6.59114">
        <ele>1296.48</ele>
        <time>2014-12-05T14:22:24Z</time>
      </trkpt>
      <trkpt lat="45.50545" lon="6.59114">
        <ele>1296.48</ele>
        <time>2014-12-05T14:22:44Z</time>
      </trkpt>
      <trkpt lat="45.50542" lon="6.59112">
        <ele>1296.48</ele>
        <time>2014-12-05T14:23:16Z</time>
      </trkpt>
      <trkpt lat="45.50536" lon="6.59108">
        <ele>1296.96</ele>
        <time>2014-12-05T14:23:42Z</time>
      </trkpt>
      <trkpt lat="45.50537" lon="6.59109">
        <ele>1296.96</ele>
        <time>2014-12-05T14:23:51Z</time>
      </trkpt>
      <trkpt lat="45.50538" lon="6.59109">
        <ele>1296.96</ele>
        <time>2014-12-05T14:23:56Z</time>
      </trkpt>
      <trkpt lat="45.50537" lon="6.59108">
        <ele>1296.96</ele>
        <time>2014-12-05T14:23:59Z</time>
      </trkpt>
      <trkpt lat="45.50535" lon="6.59104">
        <ele>1295.99</ele>
        <time>2014-12-05T14:24:02Z</time>
      </trkpt>
      <trkpt lat="45.50535" lon="6.59101">
        <ele>1295.03</ele>
        <time>2014-12-05T14:24:06Z</time>
      </trkpt>
      <trkpt lat="45.50534" lon="6.59098">
        <ele>1294.55</ele>
        <time>2014-12-05T14:24:08Z</time>
      </trkpt>
      <trkpt lat="45.50533" lon="6.59085">
        <ele>1293.11</ele>
        <time>2014-12-05T14:24:17Z</time>
      </trkpt>
      <trkpt lat="45.50536" lon="6.59076">
        <ele>1291.67</ele>
        <time>2014-12-05T14:24:23Z</time>
      </trkpt>
      <trkpt lat="45.50542" lon="6.59067">
        <ele>1291.19</ele>
        <time>2014-12-05T14:24:29Z</time>
      </trkpt>
      <trkpt lat="45.50546" lon="6.59058">
        <ele>1289.27</ele>
        <time>2014-12-05T14:24:35Z</time>
      </trkpt>
      <trkpt lat="45.50545" lon="6.59041">
        <ele>1287.34</ele>
        <time>2014-12-05T14:24:44Z</time>
      </trkpt>
      <trkpt lat="45.50545" lon="6.59035">
        <ele>1286.38</ele>
        <time>2014-12-05T14:24:47Z</time>
      </trkpt>
      <trkpt lat="45.50538" lon="6.59029">
        <ele>1285.9</ele>
        <time>2014-12-05T14:24:52Z</time>
      </trkpt>
      <trkpt lat="45.50535" lon="6.59026">
        <ele>1285.42</ele>
        <time>2014-12-05T14:24:54Z</time>
      </trkpt>
      <trkpt lat="45.50523" lon="6.59018">
        <ele>1283.98</ele>
        <time>2014-12-05T14:25:03Z</time>
      </trkpt>
      <trkpt lat="45.50479" lon="6.59004">
        <ele>1281.57</ele>
        <time>2014-12-05T14:25:20Z</time>
      </trkpt>
      <trkpt lat="45.50461" lon="6.58998">
        <ele>1278.69</ele>
        <time>2014-12-05T14:25:32Z</time>
      </trkpt>
      <trkpt lat="45.50454" lon="6.58989">
        <ele>1277.25</ele>
        <time>2014-12-05T14:25:39Z</time>
      </trkpt>
      <trkpt lat="45.50457" lon="6.58982">
        <ele>1276.29</ele>
        <time>2014-12-05T14:25:46Z</time>
      </trkpt>
      <trkpt lat="45.50467" lon="6.58978">
        <ele>1274.36</ele>
        <time>2014-12-05T14:25:57Z</time>
      </trkpt>
      <trkpt lat="45.50474" lon="6.58974">
        <ele>1273.4</ele>
        <time>2014-12-05T14:26:03Z</time>
      </trkpt>
      <trkpt lat="45.50488" lon="6.58965">
        <ele>1271.48</ele>
        <time>2014-12-05T14:26:16Z</time>
      </trkpt>
      <trkpt lat="45.50491" lon="6.58964">
        <ele>1271</ele>
        <time>2014-12-05T14:26:20Z</time>
      </trkpt>
      <trkpt lat="45.50505" lon="6.58973">
        <ele>1271</ele>
        <time>2014-12-05T14:26:32Z</time>
      </trkpt>
      <trkpt lat="45.50509" lon="6.58978">
        <ele>1271</ele>
        <time>2014-12-05T14:26:35Z</time>
      </trkpt>
      <trkpt lat="45.50516" lon="6.58991">
        <ele>1271</ele>
        <time>2014-12-05T14:26:43Z</time>
      </trkpt>
      <trkpt lat="45.50519" lon="6.58995">
        <ele>1271</ele>
        <time>2014-12-05T14:26:46Z</time>
      </trkpt>
      <trkpt lat="45.50527" lon="6.59016">
        <ele>1272.44</ele>
        <time>2014-12-05T14:26:59Z</time>
      </trkpt>
      <trkpt lat="45.50538" lon="6.59043">
        <ele>1272.44</ele>
        <time>2014-12-05T14:27:14Z</time>
      </trkpt>
      <trkpt lat="45.50545" lon="6.5906">
        <ele>1272.44</ele>
        <time>2014-12-05T14:27:25Z</time>
      </trkpt>
      <trkpt lat="45.50546" lon="6.59062">
        <ele>1271</ele>
        <time>2014-12-05T14:27:27Z</time>
      </trkpt>
      <trkpt lat="45.50549" lon="6.59064">
        <ele>1270.52</ele>
        <time>2014-12-05T14:27:29Z</time>
      </trkpt>
      <trkpt lat="45.50556" lon="6.5907">
        <ele>1270.04</ele>
        <time>2014-12-05T14:27:36Z</time>
      </trkpt>
      <trkpt lat="45.50561" lon="6.59072">
        <ele>1269.56</ele>
        <time>2014-12-05T14:27:40Z</time>
      </trkpt>
      <trkpt lat="45.50565" lon="6.59075">
        <ele>1269.56</ele>
        <time>2014-12-05T14:27:44Z</time>
      </trkpt>
      <trkpt lat="45.50573" lon="6.59074">
        <ele>1269.56</ele>
        <time>2014-12-05T14:27:50Z</time>
      </trkpt>
      <trkpt lat="45.50578" lon="6.59073">
        <ele>1269.08</ele>
        <time>2014-12-05T14:27:54Z</time>
      </trkpt>
      <trkpt lat="45.50585" lon="6.59073">
        <ele>1268.12</ele>
        <time>2014-12-05T14:27:59Z</time>
      </trkpt>
      <trkpt lat="45.50606" lon="6.59077">
        <ele>1266.67</ele>
        <time>2014-12-05T14:28:11Z</time>
      </trkpt>
      <trkpt lat="45.50623" lon="6.59086">
        <ele>1265.71</ele>
        <time>2014-12-05T14:28:26Z</time>
      </trkpt>
      <trkpt lat="45.50634" lon="6.59102">
        <ele>1263.31</ele>
        <time>2014-12-05T14:28:38Z</time>
      </trkpt>
      <trkpt lat="45.5065" lon="6.5912">
        <ele>1261.39</ele>
        <time>2014-12-05T14:28:51Z</time>
      </trkpt>
      <trkpt lat="45.50659" lon="6.59128">
        <ele>1260.91</ele>
        <time>2014-12-05T14:28:58Z</time>
      </trkpt>
      <trkpt lat="45.50667" lon="6.59135">
        <ele>1260.43</ele>
        <time>2014-12-05T14:29:10Z</time>
      </trkpt>
      <trkpt lat="45.50673" lon="6.59137">
        <ele>1260.43</ele>
        <time>2014-12-05T14:29:31Z</time>
      </trkpt>
      <trkpt lat="45.50682" lon="6.59156">
        <ele>1259.94</ele>
        <time>2014-12-05T14:29:49Z</time>
      </trkpt>
      <trkpt lat="45.50684" lon="6.5916">
        <ele>1259.94</ele>
        <time>2014-12-05T14:29:52Z</time>
      </trkpt>
      <trkpt lat="45.50691" lon="6.59187">
        <ele>1259.46</ele>
        <time>2014-12-05T14:30:06Z</time>
      </trkpt>
      <trkpt lat="45.50704" lon="6.59202">
        <ele>1258.5</ele>
        <time>2014-12-05T14:30:17Z</time>
      </trkpt>
      <trkpt lat="45.5071" lon="6.59211">
        <ele>1257.54</ele>
        <time>2014-12-05T14:30:23Z</time>
      </trkpt>
      <trkpt lat="45.50719" lon="6.5924">
        <ele>1257.06</ele>
        <time>2014-12-05T14:30:39Z</time>
      </trkpt>
      <trkpt lat="45.50726" lon="6.59258">
        <ele>1256.58</ele>
        <time>2014-12-05T14:30:50Z</time>
      </trkpt>
      <trkpt lat="45.50728" lon="6.59264">
        <ele>1256.1</ele>
        <time>2014-12-05T14:31:01Z</time>
      </trkpt>
      <trkpt lat="45.50729" lon="6.59264">
        <ele>1256.1</ele>
        <time>2014-12-05T14:31:02Z</time>
      </trkpt>
      <trkpt lat="45.5073" lon="6.59269">
        <ele>1256.1</ele>
        <time>2014-12-05T14:31:14Z</time>
      </trkpt>
      <trkpt lat="45.5073" lon="6.59265">
        <ele>1255.62</ele>
        <time>2014-12-05T14:31:39Z</time>
      </trkpt>
      <trkpt lat="45.50731" lon="6.59262">
        <ele>1255.62</ele>
        <time>2014-12-05T14:32:08Z</time>
      </trkpt>
      <trkpt lat="45.5073" lon="6.59267">
        <ele>1255.62</ele>
        <time>2014-12-05T14:32:33Z</time>
      </trkpt>
      <trkpt lat="45.5073" lon="6.59265">
        <ele>1255.62</ele>
        <time>2014-12-05T14:32:45Z</time>
      </trkpt>
      <trkpt lat="45.50729" lon="6.59267">
        <ele>1255.14</ele>
        <time>2014-12-05T14:33:10Z</time>
      </trkpt>
      <trkpt lat="45.50727" lon="6.59263">
        <ele>1255.14</ele>
        <time>2014-12-05T14:33:22Z</time>
      </trkpt>
      <trkpt lat="45.50729" lon="6.59262">
        <ele>1255.14</ele>
        <time>2014-12-05T14:33:26Z</time>
      </trkpt>
      <trkpt lat="45.50731" lon="6.5926">
        <ele>1255.14</ele>
        <time>2014-12-05T14:33:29Z</time>
      </trkpt>
      <trkpt lat="45.50739" lon="6.59259">
        <ele>1255.14</ele>
        <time>2014-12-05T14:33:40Z</time>
      </trkpt>
      <trkpt lat="45.50744" lon="6.59256">
        <ele>1255.14</ele>
        <time>2014-12-05T14:33:46Z</time>
      </trkpt>
      <trkpt lat="45.50757" lon="6.59246">
        <ele>1255.14</ele>
        <time>2014-12-05T14:33:58Z</time>
      </trkpt>
      <trkpt lat="45.50766" lon="6.59241">
        <ele>1255.14</ele>
        <time>2014-12-05T14:34:06Z</time>
      </trkpt>
      <trkpt lat="45.50776" lon="6.59229">
        <ele>1256.58</ele>
        <time>2014-12-05T14:34:13Z</time>
      </trkpt>
      <trkpt lat="45.50781" lon="6.59225">
        <ele>1257.06</ele>
        <time>2014-12-05T14:34:17Z</time>
      </trkpt>
      <trkpt lat="45.50789" lon="6.59219">
        <ele>1257.54</ele>
        <time>2014-12-05T14:34:24Z</time>
      </trkpt>
      <trkpt lat="45.5081" lon="6.59214">
        <ele>1258.98</ele>
        <time>2014-12-05T14:34:39Z</time>
      </trkpt>
      <trkpt lat="45.50831" lon="6.59216">
        <ele>1259.94</ele>
        <time>2014-12-05T14:34:54Z</time>
      </trkpt>
      <trkpt lat="45.50833" lon="6.59217">
        <ele>1259.94</ele>
        <time>2014-12-05T14:34:56Z</time>
      </trkpt>
      <trkpt lat="45.5085" lon="6.59229">
        <ele>1260.91</ele>
        <time>2014-12-05T14:35:10Z</time>
      </trkpt>
      <trkpt lat="45.50867" lon="6.59251">
        <ele>1262.35</ele>
        <time>2014-12-05T14:35:26Z</time>
      </trkpt>
      <trkpt lat="45.50881" lon="6.59272">
        <ele>1263.31</ele>
        <time>2014-12-05T14:35:41Z</time>
      </trkpt>
      <trkpt lat="45.50887" lon="6.59283">
        <ele>1263.79</ele>
        <time>2014-12-05T14:35:48Z</time>
      </trkpt>
      <trkpt lat="45.509" lon="6.59305">
        <ele>1265.23</ele>
        <time>2014-12-05T14:36:04Z</time>
      </trkpt>
      <trkpt lat="45.50903" lon="6.59309">
        <ele>1265.71</ele>
        <time>2014-12-05T14:36:07Z</time>
      </trkpt>
      <trkpt lat="45.50912" lon="6.59324">
        <ele>1266.19</ele>
        <time>2014-12-05T14:36:18Z</time>
      </trkpt>
      <trkpt lat="45.50928" lon="6.59343">
        <ele>1267.64</ele>
        <time>2014-12-05T14:36:34Z</time>
      </trkpt>
      <trkpt lat="45.50947" lon="6.5936">
        <ele>1270.04</ele>
        <time>2014-12-05T14:36:51Z</time>
      </trkpt>
      <trkpt lat="45.50965" lon="6.59369">
        <ele>1270.52</ele>
        <time>2014-12-05T14:37:05Z</time>
      </trkpt>
      <trkpt lat="45.50966" lon="6.59369">
        <ele>1270.52</ele>
        <time>2014-12-05T14:37:06Z</time>
      </trkpt>
      <trkpt lat="45.50965" lon="6.59366">
        <ele>1270.52</ele>
        <time>2014-12-05T14:37:12Z</time>
      </trkpt>
      <trkpt lat="45.50963" lon="6.5936">
        <ele>1271</ele>
        <time>2014-12-05T14:37:23Z</time>
      </trkpt>
      <trkpt lat="45.50969" lon="6.59356">
        <ele>1271</ele>
        <time>2014-12-05T14:37:36Z</time>
      </trkpt>
      <trkpt lat="45.50969" lon="6.59357">
        <ele>1269.08</ele>
        <time>2014-12-05T14:37:40Z</time>
      </trkpt>
      <trkpt lat="45.5097" lon="6.59358">
        <ele>1269.56</ele>
        <time>2014-12-05T14:37:49Z</time>
      </trkpt>
      <trkpt lat="45.50972" lon="6.59358">
        <ele>1268.6</ele>
        <time>2014-12-05T14:38:06Z</time>
      </trkpt>
    </trkseg>
  </trk>
</gpx>